﻿<?xml version="1.0" encoding="utf-8"?><gpx creator="Garmin Desktop App" version="1.1" xsi:schemaLocation="http://www.topografix.com/GPX/1/1 http://www.topografix.com/GPX/1/1/gpx.xsd http://www.garmin.com/xmlschemas/WaypointExtension/v1 http://www8.garmin.com/xmlschemas/WaypointExtensionv1.xsd http://www.garmin.com/xmlschemas/TrackPointExtension/v1 http://www.garmin.com/xmlschemas/TrackPointExtensionv1.xsd http://www.garmin.com/xmlschemas/GpxExtensions/v3 http://www8.garmin.com/xmlschemas/GpxExtensionsv3.xsd http://www.garmin.com/xmlschemas/ActivityExtension/v1 http://www8.garmin.com/xmlschemas/ActivityExtensionv1.xsd http://www.garmin.com/xmlschemas/AdventuresExtensions/v1 http://www8.garmin.com/xmlschemas/AdventuresExtensionv1.xsd http://www.garmin.com/xmlschemas/PressureExtension/v1 http://www.garmin.com/xmlschemas/PressureExtensionv1.xsd http://www.garmin.com/xmlschemas/TripExtensions/v1 http://www.garmin.com/xmlschemas/TripExtensionsv1.xsd http://www.garmin.com/xmlschemas/TripMetaDataExtensions/v1 http://www.garmin.com/xmlschemas/TripMetaDataExtensionsv1.xsd http://www.garmin.com/xmlschemas/ViaPointTransportationModeExtensions/v1 http://www.garmin.com/xmlschemas/ViaPointTransportationModeExtensionsv1.xsd http://www.garmin.com/xmlschemas/CreationTimeExtension/v1 http://www.garmin.com/xmlschemas/CreationTimeExtensionsv1.xsd http://www.garmin.com/xmlschemas/AccelerationExtension/v1 http://www.garmin.com/xmlschemas/AccelerationExtensionv1.xsd http://www.garmin.com/xmlschemas/PowerExtension/v1 http://www.garmin.com/xmlschemas/PowerExtensionv1.xsd http://www.garmin.com/xmlschemas/VideoExtension/v1 http://www.garmin.com/xmlschemas/VideoExtensionv1.xsd" xmlns="http://www.topografix.com/GPX/1/1" xmlns:xsi="http://www.w3.org/2001/XMLSchema-instance" xmlns:wptx1="http://www.garmin.com/xmlschemas/WaypointExtension/v1" xmlns:gpxtrx="http://www.garmin.com/xmlschemas/GpxExtensions/v3" xmlns:gpxtpx="http://www.garmin.com/xmlschemas/TrackPointExtension/v1" xmlns:gpxx="http://www.garmin.com/xmlschemas/GpxExtensions/v3" xmlns:trp="http://www.garmin.com/xmlschemas/TripExtensions/v1" xmlns:adv="http://www.garmin.com/xmlschemas/AdventuresExtensions/v1" xmlns:prs="http://www.garmin.com/xmlschemas/PressureExtension/v1" xmlns:tmd="http://www.garmin.com/xmlschemas/TripMetaDataExtensions/v1" xmlns:vptm="http://www.garmin.com/xmlschemas/ViaPointTransportationModeExtensions/v1" xmlns:ctx="http://www.garmin.com/xmlschemas/CreationTimeExtension/v1" xmlns:gpxacc="http://www.garmin.com/xmlschemas/AccelerationExtension/v1" xmlns:gpxpx="http://www.garmin.com/xmlschemas/PowerExtension/v1" xmlns:vidx1="http://www.garmin.com/xmlschemas/VideoExtension/v1">

  <metadata>
    <link href="http://www.garmin.com">
      <text>Garmin International</text>
    </link>
    <time>2021-01-15T16:30:42Z</time>
    <bounds maxlat="45.90405497699976" maxlon="7.937955418601632" minlat="45.865995353087783" minlon="7.904775654897094" />
  </metadata>

  <trk>
    <name>rifugio-barba-ferrero2013-09-19</name>
    <extensions>
      <gpxx:TrackExtension>
        <gpxx:DisplayColor>Yellow</gpxx:DisplayColor>
      </gpxx:TrackExtension>
    </extensions>
    <trkseg>
      <trkpt lat="45.865995353087783" lon="7.936853701248765">
        <ele>1268.1199999999999</ele>
        <time>2013-09-19T07:07:30Z</time>
      </trkpt>
      <trkpt lat="45.866005159914494" lon="7.936828387901187">
        <ele>1266.6700000000001</ele>
        <time>2013-09-19T07:07:34Z</time>
      </trkpt>
      <trkpt lat="45.8659961912781" lon="7.936856802552939">
        <ele>1267.1600000000001</ele>
        <time>2013-09-19T07:08:05Z</time>
      </trkpt>
      <trkpt lat="45.866010440513492" lon="7.936855629086494">
        <ele>1267.6400000000001</ele>
        <time>2013-09-19T07:08:20Z</time>
      </trkpt>
      <trkpt lat="45.866032065823674" lon="7.936871722340584">
        <ele>1267.6400000000001</ele>
        <time>2013-09-19T07:08:24Z</time>
      </trkpt>
      <trkpt lat="45.866029970347881" lon="7.936895610764623">
        <ele>1266.6700000000001</ele>
        <time>2013-09-19T07:08:38Z</time>
      </trkpt>
      <trkpt lat="45.866006417199969" lon="7.93685931712389">
        <ele>1266.1900000000001</ele>
        <time>2013-09-19T07:08:54Z</time>
      </trkpt>
      <trkpt lat="45.866011278703809" lon="7.936900220811367">
        <ele>1267.6400000000001</ele>
        <time>2013-09-19T07:09:03Z</time>
      </trkpt>
      <trkpt lat="45.866003399714828" lon="7.937002647668123">
        <ele>1267.1600000000001</ele>
        <time>2013-09-19T07:09:13Z</time>
      </trkpt>
      <trkpt lat="45.866019744426012" lon="7.936926037073135">
        <ele>1266.6700000000001</ele>
        <time>2013-09-19T07:09:25Z</time>
      </trkpt>
      <trkpt lat="45.866056624799967" lon="7.936732666566968">
        <ele>1267.1600000000001</ele>
        <time>2013-09-19T07:09:40Z</time>
      </trkpt>
      <trkpt lat="45.866074142977595" lon="7.936710705980659">
        <ele>1267.1600000000001</ele>
        <time>2013-09-19T07:09:43Z</time>
      </trkpt>
      <trkpt lat="45.866080177947879" lon="7.936695534735918">
        <ele>1266.6700000000001</ele>
        <time>2013-09-19T07:09:46Z</time>
      </trkpt>
      <trkpt lat="45.866171205416322" lon="7.936619343236089">
        <ele>1267.1600000000001</ele>
        <time>2013-09-19T07:09:58Z</time>
      </trkpt>
      <trkpt lat="45.866336412727833" lon="7.936640800908208">
        <ele>1269.0799999999999</ele>
        <time>2013-09-19T07:10:15Z</time>
      </trkpt>
      <trkpt lat="45.866467840969563" lon="7.93667558580637">
        <ele>1269.5599999999999</ele>
        <time>2013-09-19T07:10:27Z</time>
      </trkpt>
      <trkpt lat="45.866658361628652" lon="7.936742221936584">
        <ele>1270.52</ele>
        <time>2013-09-19T07:10:44Z</time>
      </trkpt>
      <trkpt lat="45.866810409352183" lon="7.936815647408366">
        <ele>1271.96</ele>
        <time>2013-09-19T07:10:57Z</time>
      </trkpt>
      <trkpt lat="45.866970419883728" lon="7.936928886920214">
        <ele>1272.4400000000001</ele>
        <time>2013-09-19T07:11:12Z</time>
      </trkpt>
      <trkpt lat="45.867044599726796" lon="7.937007509171963">
        <ele>1272.4400000000001</ele>
        <time>2013-09-19T07:11:19Z</time>
      </trkpt>
      <trkpt lat="45.867123808711767" lon="7.93711194768548">
        <ele>1273.8800000000001</ele>
        <time>2013-09-19T07:11:30Z</time>
      </trkpt>
      <trkpt lat="45.867198407649994" lon="7.93724438175559">
        <ele>1275.3299999999999</ele>
        <time>2013-09-19T07:11:46Z</time>
      </trkpt>
      <trkpt lat="45.867276610806584" lon="7.937365416437388">
        <ele>1276.77</ele>
        <time>2013-09-19T07:12:03Z</time>
      </trkpt>
      <trkpt lat="45.867369649931788" lon="7.937500616535544">
        <ele>1278.6900000000001</ele>
        <time>2013-09-19T07:12:16Z</time>
      </trkpt>
      <trkpt lat="45.867419689893723" lon="7.937556523829699">
        <ele>1279.1700000000001</ele>
        <time>2013-09-19T07:12:21Z</time>
      </trkpt>
      <trkpt lat="45.867565702646971" lon="7.937715612351894">
        <ele>1282.0599999999999</ele>
        <time>2013-09-19T07:12:37Z</time>
      </trkpt>
      <trkpt lat="45.867691431194544" lon="7.93783949688077">
        <ele>1283.02</ele>
        <time>2013-09-19T07:12:50Z</time>
      </trkpt>
      <trkpt lat="45.867879437282681" lon="7.937955418601632">
        <ele>1283.5</ele>
        <time>2013-09-19T07:13:05Z</time>
      </trkpt>
      <trkpt lat="45.868032490834594" lon="7.937951982021332">
        <ele>1284.9400000000001</ele>
        <time>2013-09-19T07:13:20Z</time>
      </trkpt>
      <trkpt lat="45.868123266845942" lon="7.937895487993956">
        <ele>1284.9400000000001</ele>
        <time>2013-09-19T07:13:28Z</time>
      </trkpt>
      <trkpt lat="45.86825461126864" lon="7.937794402241707">
        <ele>1285.9000000000001</ele>
        <time>2013-09-19T07:13:41Z</time>
      </trkpt>
      <trkpt lat="45.868373466655612" lon="7.937726257368922">
        <ele>1287.3399999999999</ele>
        <time>2013-09-19T07:13:54Z</time>
      </trkpt>
      <trkpt lat="45.868495926260948" lon="7.937645455822349">
        <ele>1288.3</ele>
        <time>2013-09-19T07:14:08Z</time>
      </trkpt>
      <trkpt lat="45.868519730865955" lon="7.937616035342217">
        <ele>1288.78</ele>
        <time>2013-09-19T07:14:11Z</time>
      </trkpt>
      <trkpt lat="45.868532974272966" lon="7.937597343698144">
        <ele>1288.78</ele>
        <time>2013-09-19T07:14:13Z</time>
      </trkpt>
      <trkpt lat="45.868634982034564" lon="7.937459209933877">
        <ele>1290.23</ele>
        <time>2013-09-19T07:14:26Z</time>
      </trkpt>
      <trkpt lat="45.868719471618533" lon="7.937352005392313">
        <ele>1290.71</ele>
        <time>2013-09-19T07:14:36Z</time>
      </trkpt>
      <trkpt lat="45.868768924847245" lon="7.937283860519528">
        <ele>1291.1900000000001</ele>
        <time>2013-09-19T07:14:42Z</time>
      </trkpt>
      <trkpt lat="45.86889817379415" lon="7.937182188034058">
        <ele>1292.6300000000001</ele>
        <time>2013-09-19T07:14:55Z</time>
      </trkpt>
      <trkpt lat="45.869058016687632" lon="7.937218397855759">
        <ele>1293.1099999999999</ele>
        <time>2013-09-19T07:15:09Z</time>
      </trkpt>
      <trkpt lat="45.869203777983785" lon="7.937307581305504">
        <ele>1293.1099999999999</ele>
        <time>2013-09-19T07:15:22Z</time>
      </trkpt>
      <trkpt lat="45.869262535125017" lon="7.937337923794985">
        <ele>1294.0699999999999</ele>
        <time>2013-09-19T07:15:28Z</time>
      </trkpt>
      <trkpt lat="45.869412487372756" lon="7.937409589067102">
        <ele>1295.99</ele>
        <time>2013-09-19T07:15:42Z</time>
      </trkpt>
      <trkpt lat="45.869435705244541" lon="7.937416043132544">
        <ele>1295.99</ele>
        <time>2013-09-19T07:15:44Z</time>
      </trkpt>
      <trkpt lat="45.869481302797794" lon="7.937443954870105">
        <ele>1295.99</ele>
        <time>2013-09-19T07:15:48Z</time>
      </trkpt>
      <trkpt lat="45.869502676650882" lon="7.937447391450405">
        <ele>1296.48</ele>
        <time>2013-09-19T07:15:50Z</time>
      </trkpt>
      <trkpt lat="45.869558919221163" lon="7.937471866607666">
        <ele>1296.96</ele>
        <time>2013-09-19T07:15:56Z</time>
      </trkpt>
      <trkpt lat="45.869666542857885" lon="7.937505897134543">
        <ele>1298.4000000000001</ele>
        <time>2013-09-19T07:16:05Z</time>
      </trkpt>
      <trkpt lat="45.869688168168068" lon="7.937508914619684">
        <ele>1298.4000000000001</ele>
        <time>2013-09-19T07:16:07Z</time>
      </trkpt>
      <trkpt lat="45.869774501770735" lon="7.937527857720852">
        <ele>1299.8399999999999</ele>
        <time>2013-09-19T07:16:16Z</time>
      </trkpt>
      <trkpt lat="45.869823032990098" lon="7.937536910176277">
        <ele>1300.8</ele>
        <time>2013-09-19T07:16:21Z</time>
      </trkpt>
      <trkpt lat="45.86983485147357" lon="7.937533054500818">
        <ele>1300.3199999999999</ele>
        <time>2013-09-19T07:16:22Z</time>
      </trkpt>
      <trkpt lat="45.869965944439173" lon="7.937530037015677">
        <ele>1301.76</ele>
        <time>2013-09-19T07:16:33Z</time>
      </trkpt>
      <trkpt lat="45.870088990777731" lon="7.937516458332539">
        <ele>1302.72</ele>
        <time>2013-09-19T07:16:45Z</time>
      </trkpt>
      <trkpt lat="45.870259394869208" lon="7.937477231025696">
        <ele>1305.6099999999999</ele>
        <time>2013-09-19T07:17:03Z</time>
      </trkpt>
      <trkpt lat="45.870405742898583" lon="7.937436159700155">
        <ele>1308.01</ele>
        <time>2013-09-19T07:17:18Z</time>
      </trkpt>
      <trkpt lat="45.870518814772367" lon="7.93740464374423">
        <ele>1308.97</ele>
        <time>2013-09-19T07:17:30Z</time>
      </trkpt>
      <trkpt lat="45.870577404275537" lon="7.937391400337219">
        <ele>1310.4100000000001</ele>
        <time>2013-09-19T07:17:39Z</time>
      </trkpt>
      <trkpt lat="45.87069483473897" lon="7.937361309304833">
        <ele>1312.8199999999999</ele>
        <time>2013-09-19T07:17:53Z</time>
      </trkpt>
      <trkpt lat="45.870848726481199" lon="7.937327362596989">
        <ele>1314.26</ele>
        <time>2013-09-19T07:18:07Z</time>
      </trkpt>
      <trkpt lat="45.871004965156317" lon="7.93728637509048">
        <ele>1315.7</ele>
        <time>2013-09-19T07:18:21Z</time>
      </trkpt>
      <trkpt lat="45.871145194396377" lon="7.937266258522868">
        <ele>1316.1800000000001</ele>
        <time>2013-09-19T07:18:34Z</time>
      </trkpt>
      <trkpt lat="45.87123186327517" lon="7.937276652082801">
        <ele>1316.6600000000001</ele>
        <time>2013-09-19T07:18:41Z</time>
      </trkpt>
      <trkpt lat="45.871281232684851" lon="7.937274137511849">
        <ele>1316.6600000000001</ele>
        <time>2013-09-19T07:18:45Z</time>
      </trkpt>
      <trkpt lat="45.871496312320232" lon="7.937291571870446">
        <ele>1317.6199999999999</ele>
        <time>2013-09-19T07:19:03Z</time>
      </trkpt>
      <trkpt lat="45.87163201533258" lon="7.937243040651083">
        <ele>1318.0999999999999</ele>
        <time>2013-09-19T07:19:17Z</time>
      </trkpt>
      <trkpt lat="45.871700495481491" lon="7.93721848167479">
        <ele>1318.5899999999999</ele>
        <time>2013-09-19T07:19:23Z</time>
      </trkpt>
      <trkpt lat="45.871822452172637" lon="7.937114629894495">
        <ele>1320.03</ele>
        <time>2013-09-19T07:19:37Z</time>
      </trkpt>
      <trkpt lat="45.87195455096662" lon="7.937006000429392">
        <ele>1321.95</ele>
        <time>2013-09-19T07:19:51Z</time>
      </trkpt>
      <trkpt lat="45.872059743851423" lon="7.936925617977977">
        <ele>1322.9100000000001</ele>
        <time>2013-09-19T07:20:02Z</time>
      </trkpt>
      <trkpt lat="45.872096205130219" lon="7.93690181337297">
        <ele>1322.9100000000001</ele>
        <time>2013-09-19T07:20:06Z</time>
      </trkpt>
      <trkpt lat="45.872175330296159" lon="7.9368329141289">
        <ele>1324.3499999999999</ele>
        <time>2013-09-19T07:20:14Z</time>
      </trkpt>
      <trkpt lat="45.872223861515522" lon="7.93679284863174">
        <ele>1324.8299999999999</ele>
        <time>2013-09-19T07:20:19Z</time>
      </trkpt>
      <trkpt lat="45.872321929782629" lon="7.936714813113213">
        <ele>1325.8</ele>
        <time>2013-09-19T07:20:29Z</time>
      </trkpt>
      <trkpt lat="45.872442880645394" lon="7.936618672683835">
        <ele>1327.24</ele>
        <time>2013-09-19T07:20:41Z</time>
      </trkpt>
      <trkpt lat="45.872609261423349" lon="7.936530662700534">
        <ele>1328.2</ele>
        <time>2013-09-19T07:20:56Z</time>
      </trkpt>
      <trkpt lat="45.872620325535536" lon="7.936525130644441">
        <ele>1328.2</ele>
        <time>2013-09-19T07:20:57Z</time>
      </trkpt>
      <trkpt lat="45.872681932523847" lon="7.936492692679167">
        <ele>1328.6800000000001</ele>
        <time>2013-09-19T07:21:03Z</time>
      </trkpt>
      <trkpt lat="45.872832387685776" lon="7.936409460380673">
        <ele>1329.6400000000001</ele>
        <time>2013-09-19T07:21:18Z</time>
      </trkpt>
      <trkpt lat="45.872945375740528" lon="7.936383727937937">
        <ele>1330.1199999999999</ele>
        <time>2013-09-19T07:21:29Z</time>
      </trkpt>
      <trkpt lat="45.873110415413976" lon="7.936345590278506">
        <ele>1331.0799999999999</ele>
        <time>2013-09-19T07:21:44Z</time>
      </trkpt>
      <trkpt lat="45.873264139518142" lon="7.936329245567322">
        <ele>1331.5599999999999</ele>
        <time>2013-09-19T07:21:57Z</time>
      </trkpt>
      <trkpt lat="45.873397998511791" lon="7.936287503689528">
        <ele>1333.01</ele>
        <time>2013-09-19T07:22:09Z</time>
      </trkpt>
      <trkpt lat="45.873537473380566" lon="7.936268225312233">
        <ele>1333.97</ele>
        <time>2013-09-19T07:22:21Z</time>
      </trkpt>
      <trkpt lat="45.873653646558523" lon="7.936235535889864">
        <ele>1335.4100000000001</ele>
        <time>2013-09-19T07:22:33Z</time>
      </trkpt>
      <trkpt lat="45.873671164736152" lon="7.936177114024758">
        <ele>1334.9300000000001</ele>
        <time>2013-09-19T07:22:45Z</time>
      </trkpt>
      <trkpt lat="45.873759258538485" lon="7.936155069619417">
        <ele>1335.4100000000001</ele>
        <time>2013-09-19T07:23:03Z</time>
      </trkpt>
      <trkpt lat="45.873787170276046" lon="7.936155237257481">
        <ele>1336.3699999999999</ele>
        <time>2013-09-19T07:23:06Z</time>
      </trkpt>
      <trkpt lat="45.873824721202254" lon="7.936178371310234">
        <ele>1336.3699999999999</ele>
        <time>2013-09-19T07:23:09Z</time>
      </trkpt>
      <trkpt lat="45.873849699273705" lon="7.936158170923591">
        <ele>1336.8499999999999</ele>
        <time>2013-09-19T07:23:12Z</time>
      </trkpt>
      <trkpt lat="45.873873084783554" lon="7.936117351055145">
        <ele>1337.3299999999999</ele>
        <time>2013-09-19T07:23:15Z</time>
      </trkpt>
      <trkpt lat="45.873964028432965" lon="7.936008889228106">
        <ele>1338.77</ele>
        <time>2013-09-19T07:23:28Z</time>
      </trkpt>
      <trkpt lat="45.874092439189553" lon="7.935923142358661">
        <ele>1340.7</ele>
        <time>2013-09-19T07:23:43Z</time>
      </trkpt>
      <trkpt lat="45.874200649559498" lon="7.935888357460499">
        <ele>1342.1400000000001</ele>
        <time>2013-09-19T07:23:56Z</time>
      </trkpt>
      <trkpt lat="45.874313386157155" lon="7.935845106840134">
        <ele>1344.54</ele>
        <time>2013-09-19T07:24:08Z</time>
      </trkpt>
      <trkpt lat="45.874422853812575" lon="7.935803364962339">
        <ele>1345.5</ele>
        <time>2013-09-19T07:24:19Z</time>
      </trkpt>
      <trkpt lat="45.874587055295706" lon="7.935794983059168">
        <ele>1347.4300000000001</ele>
        <time>2013-09-19T07:24:34Z</time>
      </trkpt>
      <trkpt lat="45.87418413721025" lon="7.935921214520931">
        <ele>1349.8299999999999</ele>
        <time>2013-09-19T07:24:46Z</time>
      </trkpt>
      <trkpt lat="45.87407567538321" lon="7.935732621699572">
        <ele>1351.75</ele>
        <time>2013-09-19T07:25:01Z</time>
      </trkpt>
      <trkpt lat="45.874193022027612" lon="7.935683000832796">
        <ele>1354.1500000000001</ele>
        <time>2013-09-19T07:25:16Z</time>
      </trkpt>
      <trkpt lat="45.874305926263332" lon="7.935630613937974">
        <ele>1356.0799999999999</ele>
        <time>2013-09-19T07:25:30Z</time>
      </trkpt>
      <trkpt lat="45.874454621225595" lon="7.935590967535973">
        <ele>1357.04</ele>
        <time>2013-09-19T07:25:45Z</time>
      </trkpt>
      <trkpt lat="45.874578757211566" lon="7.935576131567359">
        <ele>1359.9200000000001</ele>
        <time>2013-09-19T07:25:56Z</time>
      </trkpt>
      <trkpt lat="45.874623181298375" lon="7.93557470664382">
        <ele>1359.9200000000001</ele>
        <time>2013-09-19T07:26:02Z</time>
      </trkpt>
      <trkpt lat="45.874636005610228" lon="7.935575544834137">
        <ele>1359.9200000000001</ele>
        <time>2013-09-19T07:26:03Z</time>
      </trkpt>
      <trkpt lat="45.874650757759809" lon="7.935566660016775">
        <ele>1360.8800000000001</ele>
        <time>2013-09-19T07:26:04Z</time>
      </trkpt>
      <trkpt lat="45.874739270657301" lon="7.935551656410098">
        <ele>1362.8099999999999</ele>
        <time>2013-09-19T07:26:17Z</time>
      </trkpt>
      <trkpt lat="45.874871956184506" lon="7.93547403998673">
        <ele>1364.73</ele>
        <time>2013-09-19T07:26:32Z</time>
      </trkpt>
      <trkpt lat="45.875012604519725" lon="7.935419641435146">
        <ele>1367.1300000000001</ele>
        <time>2013-09-19T07:26:47Z</time>
      </trkpt>
      <trkpt lat="45.875147888436913" lon="7.935386532917619">
        <ele>1368.5699999999999</ele>
        <time>2013-09-19T07:27:00Z</time>
      </trkpt>
      <trkpt lat="45.875176806002855" lon="7.935374546796084">
        <ele>1369.05</ele>
        <time>2013-09-19T07:27:01Z</time>
      </trkpt>
      <trkpt lat="45.875432034954429" lon="7.935326937586069">
        <ele>1370.5</ele>
        <time>2013-09-19T07:27:14Z</time>
      </trkpt>
      <trkpt lat="45.87552105076611" lon="7.935298271477222">
        <ele>1371.46</ele>
        <time>2013-09-19T07:27:21Z</time>
      </trkpt>
      <trkpt lat="45.875695897266269" lon="7.935211518779397">
        <ele>1372.9000000000001</ele>
        <time>2013-09-19T07:27:36Z</time>
      </trkpt>
      <trkpt lat="45.875734454020858" lon="7.935191234573722">
        <ele>1373.3800000000001</ele>
        <time>2013-09-19T07:27:41Z</time>
      </trkpt>
      <trkpt lat="45.875829169526696" lon="7.935149911791086">
        <ele>1374.8199999999999</ele>
        <time>2013-09-19T07:27:48Z</time>
      </trkpt>
      <trkpt lat="45.875905193388462" lon="7.935109008103609">
        <ele>1375.3</ele>
        <time>2013-09-19T07:27:55Z</time>
      </trkpt>
      <trkpt lat="45.875956993550062" lon="7.935102051123977">
        <ele>1376.26</ele>
        <time>2013-09-19T07:28:00Z</time>
      </trkpt>
      <trkpt lat="45.875984821468592" lon="7.935093585401774">
        <ele>1376.26</ele>
        <time>2013-09-19T07:28:03Z</time>
      </trkpt>
      <trkpt lat="45.87600527331233" lon="7.93510171584785">
        <ele>1376.26</ele>
        <time>2013-09-19T07:28:05Z</time>
      </trkpt>
      <trkpt lat="45.876155644655228" lon="7.935083694756031">
        <ele>1378.1900000000001</ele>
        <time>2013-09-19T07:28:20Z</time>
      </trkpt>
      <trkpt lat="45.87628522887826" lon="7.935071708634496">
        <ele>1379.6300000000001</ele>
        <time>2013-09-19T07:28:32Z</time>
      </trkpt>
      <trkpt lat="45.876428810879588" lon="7.935056956484914">
        <ele>1381.0699999999999</ele>
        <time>2013-09-19T07:28:46Z</time>
      </trkpt>
      <trkpt lat="45.876553533598781" lon="7.935045473277569">
        <ele>1382.51</ele>
        <time>2013-09-19T07:28:56Z</time>
      </trkpt>
      <trkpt lat="45.876667695119977" lon="7.935025943443179">
        <ele>1383.96</ele>
        <time>2013-09-19T07:29:08Z</time>
      </trkpt>
      <trkpt lat="45.876805325970054" lon="7.935029044747353">
        <ele>1384.9200000000001</ele>
        <time>2013-09-19T07:29:21Z</time>
      </trkpt>
      <trkpt lat="45.876978747546673" lon="7.935007503256202">
        <ele>1386.3599999999999</ele>
        <time>2013-09-19T07:29:36Z</time>
      </trkpt>
      <trkpt lat="45.877033397555351" lon="7.93500398285687">
        <ele>1386.8399999999999</ele>
        <time>2013-09-19T07:29:42Z</time>
      </trkpt>
      <trkpt lat="45.877204975113273" lon="7.93499568477273">
        <ele>1388.28</ele>
        <time>2013-09-19T07:29:57Z</time>
      </trkpt>
      <trkpt lat="45.877236993983388" lon="7.934991829097271">
        <ele>1388.76</ele>
        <time>2013-09-19T07:30:00Z</time>
      </trkpt>
      <trkpt lat="45.877339337021112" lon="7.934976490214467">
        <ele>1390.2</ele>
        <time>2013-09-19T07:30:09Z</time>
      </trkpt>
      <trkpt lat="45.87750974111259" lon="7.934969533234835">
        <ele>1391.6500000000001</ele>
        <time>2013-09-19T07:30:26Z</time>
      </trkpt>
      <trkpt lat="45.877537736669183" lon="7.934928461909294">
        <ele>1391.1700000000001</ele>
        <time>2013-09-19T07:30:30Z</time>
      </trkpt>
      <trkpt lat="45.877604372799397" lon="7.934892838820815">
        <ele>1391.6500000000001</ele>
        <time>2013-09-19T07:30:42Z</time>
      </trkpt>
      <trkpt lat="45.877674026414752" lon="7.934902645647526">
        <ele>1391.1700000000001</ele>
        <time>2013-09-19T07:31:07Z</time>
      </trkpt>
      <trkpt lat="45.877615101635456" lon="7.934932820498943">
        <ele>1391.1700000000001</ele>
        <time>2013-09-19T07:31:28Z</time>
      </trkpt>
      <trkpt lat="45.877613257616758" lon="7.934963162988424">
        <ele>1390.6800000000001</ele>
        <time>2013-09-19T07:31:36Z</time>
      </trkpt>
      <trkpt lat="45.877872174605727" lon="7.934975400567055">
        <ele>1391.1700000000001</ele>
        <time>2013-09-19T07:31:45Z</time>
      </trkpt>
      <trkpt lat="45.87794216349721" lon="7.934998534619808">
        <ele>1391.1700000000001</ele>
        <time>2013-09-19T07:31:49Z</time>
      </trkpt>
      <trkpt lat="45.878142323344946" lon="7.934882109984756">
        <ele>1392.6099999999999</ele>
        <time>2013-09-19T07:32:05Z</time>
      </trkpt>
      <trkpt lat="45.87818012572825" lon="7.934846905991435">
        <ele>1392.6099999999999</ele>
        <time>2013-09-19T07:32:10Z</time>
      </trkpt>
      <trkpt lat="45.87831063196063" lon="7.934737773612142">
        <ele>1394.53</ele>
        <time>2013-09-19T07:32:25Z</time>
      </trkpt>
      <trkpt lat="45.878357067704201" lon="7.934704413637519">
        <ele>1395.01</ele>
        <time>2013-09-19T07:32:32Z</time>
      </trkpt>
      <trkpt lat="45.87851925753057" lon="7.934684380888939">
        <ele>1396.45</ele>
        <time>2013-09-19T07:32:48Z</time>
      </trkpt>
      <trkpt lat="45.878645572811365" lon="7.934703407809138">
        <ele>1397.4100000000001</ele>
        <time>2013-09-19T07:33:03Z</time>
      </trkpt>
      <trkpt lat="45.878649177029729" lon="7.93473576195538">
        <ele>1396.9300000000001</ele>
        <time>2013-09-19T07:33:34Z</time>
      </trkpt>
      <trkpt lat="45.878771049901843" lon="7.934790663421154">
        <ele>1398.8599999999999</ele>
        <time>2013-09-19T07:33:47Z</time>
      </trkpt>
      <trkpt lat="45.878838859498501" lon="7.934794686734676">
        <ele>1399.8199999999999</ele>
        <time>2013-09-19T07:33:55Z</time>
      </trkpt>
      <trkpt lat="45.878951344639063" lon="7.934764176607132">
        <ele>1401.74</ele>
        <time>2013-09-19T07:34:06Z</time>
      </trkpt>
      <trkpt lat="45.878988225013018" lon="7.934730313718319">
        <ele>1401.74</ele>
        <time>2013-09-19T07:34:10Z</time>
      </trkpt>
      <trkpt lat="45.879149325191975" lon="7.934777420014143">
        <ele>1404.6199999999999</ele>
        <time>2013-09-19T07:34:25Z</time>
      </trkpt>
      <trkpt lat="45.879172878339887" lon="7.934777671471238">
        <ele>1404.6199999999999</ele>
        <time>2013-09-19T07:34:28Z</time>
      </trkpt>
      <trkpt lat="45.879227528348565" lon="7.934775911271572">
        <ele>1405.5799999999999</ele>
        <time>2013-09-19T07:34:45Z</time>
      </trkpt>
      <trkpt lat="45.879243705421686" lon="7.934783035889268">
        <ele>1405.5799999999999</ele>
        <time>2013-09-19T07:34:47Z</time>
      </trkpt>
      <trkpt lat="45.87937630712986" lon="7.934819916263223">
        <ele>1407.03</ele>
        <time>2013-09-19T07:35:01Z</time>
      </trkpt>
      <trkpt lat="45.879521481692791" lon="7.934855120256543">
        <ele>1409.4300000000001</ele>
        <time>2013-09-19T07:35:17Z</time>
      </trkpt>
      <trkpt lat="45.879653161391616" lon="7.934867441654205">
        <ele>1411.3499999999999</ele>
        <time>2013-09-19T07:35:31Z</time>
      </trkpt>
      <trkpt lat="45.87967679835856" lon="7.934898370876908">
        <ele>1412.3099999999999</ele>
        <time>2013-09-19T07:35:51Z</time>
      </trkpt>
      <trkpt lat="45.879809316247702" lon="7.934889569878578">
        <ele>1414.72</ele>
        <time>2013-09-19T07:36:06Z</time>
      </trkpt>
      <trkpt lat="45.879937391728163" lon="7.934915721416473">
        <ele>1416.6400000000001</ele>
        <time>2013-09-19T07:36:19Z</time>
      </trkpt>
      <trkpt lat="45.880045434460044" lon="7.934969114139676">
        <ele>1417.5999999999999</ele>
        <time>2013-09-19T07:36:30Z</time>
      </trkpt>
      <trkpt lat="45.880198488011956" lon="7.935029463842511">
        <ele>1420</ele>
        <time>2013-09-19T07:36:45Z</time>
      </trkpt>
      <trkpt lat="45.880345925688744" lon="7.935089059174061">
        <ele>1421.9300000000001</ele>
        <time>2013-09-19T07:36:58Z</time>
      </trkpt>
      <trkpt lat="45.880473414435983" lon="7.935144882649183">
        <ele>1423.8499999999999</ele>
        <time>2013-09-19T07:37:11Z</time>
      </trkpt>
      <trkpt lat="45.880492860451341" lon="7.935307575389743">
        <ele>1425.29</ele>
        <time>2013-09-19T07:37:21Z</time>
      </trkpt>
      <trkpt lat="45.880377357825637" lon="7.935459455475211">
        <ele>1426.73</ele>
        <time>2013-09-19T07:37:35Z</time>
      </trkpt>
      <trkpt lat="45.880259927362204" lon="7.935538748279214">
        <ele>1428.6600000000001</ele>
        <time>2013-09-19T07:37:49Z</time>
      </trkpt>
      <trkpt lat="45.880137886852026" lon="7.935653664171696">
        <ele>1430.5799999999999</ele>
        <time>2013-09-19T07:38:04Z</time>
      </trkpt>
      <trkpt lat="45.880163870751858" lon="7.935854494571686">
        <ele>1432.5</ele>
        <time>2013-09-19T07:38:18Z</time>
      </trkpt>
      <trkpt lat="45.880231512710452" lon="7.935909731313586">
        <ele>1432.98</ele>
        <time>2013-09-19T07:38:26Z</time>
      </trkpt>
      <trkpt lat="45.880397893488407" lon="7.935961112380028">
        <ele>1434.9100000000001</ele>
        <time>2013-09-19T07:38:41Z</time>
      </trkpt>
      <trkpt lat="45.880574835464358" lon="7.93598273769021">
        <ele>1437.3099999999999</ele>
        <time>2013-09-19T07:38:58Z</time>
      </trkpt>
      <trkpt lat="45.880720010027289" lon="7.935939151793718">
        <ele>1439.23</ele>
        <time>2013-09-19T07:39:12Z</time>
      </trkpt>
      <trkpt lat="45.880782539024949" lon="7.935904283076525">
        <ele>1440.1900000000001</ele>
        <time>2013-09-19T07:39:19Z</time>
      </trkpt>
      <trkpt lat="45.880950260907412" lon="7.935780398547649">
        <ele>1443.0799999999999</ele>
        <time>2013-09-19T07:39:38Z</time>
      </trkpt>
      <trkpt lat="45.881042797118425" lon="7.935711666941643">
        <ele>1444.52</ele>
        <time>2013-09-19T07:39:52Z</time>
      </trkpt>
      <trkpt lat="45.881181936711073" lon="7.935664728283882">
        <ele>1447.4000000000001</ele>
        <time>2013-09-19T07:40:08Z</time>
      </trkpt>
      <trkpt lat="45.881293499842286" lon="7.935590967535973">
        <ele>1448.3599999999999</ele>
        <time>2013-09-19T07:40:21Z</time>
      </trkpt>
      <trkpt lat="45.881437081843615" lon="7.935552159324288">
        <ele>1451.25</ele>
        <time>2013-09-19T07:40:37Z</time>
      </trkpt>
      <trkpt lat="45.881563816219568" lon="7.935518715530634">
        <ele>1453.6500000000001</ele>
        <time>2013-09-19T07:40:53Z</time>
      </trkpt>
      <trkpt lat="45.881662890315056" lon="7.935496084392071">
        <ele>1455.5699999999999</ele>
        <time>2013-09-19T07:41:04Z</time>
      </trkpt>
      <trkpt lat="45.88168216869235" lon="7.935496671125293">
        <ele>1456.05</ele>
        <time>2013-09-19T07:41:06Z</time>
      </trkpt>
      <trkpt lat="45.88180135935545" lon="7.935496671125293">
        <ele>1457.02</ele>
        <time>2013-09-19T07:41:18Z</time>
      </trkpt>
      <trkpt lat="45.881937816739082" lon="7.935397680848837">
        <ele>1459.9000000000001</ele>
        <time>2013-09-19T07:41:33Z</time>
      </trkpt>
      <trkpt lat="45.88199925608933" lon="7.935254350304604">
        <ele>1461.3399999999999</ele>
        <time>2013-09-19T07:41:46Z</time>
      </trkpt>
      <trkpt lat="45.882069999352098" lon="7.935049328953028">
        <ele>1463.74</ele>
        <time>2013-09-19T07:42:02Z</time>
      </trkpt>
      <trkpt lat="45.882072933018208" lon="7.935037594288588">
        <ele>1463.74</ele>
        <time>2013-09-19T07:42:03Z</time>
      </trkpt>
      <trkpt lat="45.88209698908031" lon="7.934981267899275">
        <ele>1464.23</ele>
        <time>2013-09-19T07:42:07Z</time>
      </trkpt>
      <trkpt lat="45.882205870002508" lon="7.934807846322656">
        <ele>1466.1500000000001</ele>
        <time>2013-09-19T07:42:22Z</time>
      </trkpt>
      <trkpt lat="45.882213665172458" lon="7.934798374772072">
        <ele>1466.1500000000001</ele>
        <time>2013-09-19T07:42:23Z</time>
      </trkpt>
      <trkpt lat="45.882316594943404" lon="7.934644063934684">
        <ele>1468.55</ele>
        <time>2013-09-19T07:42:38Z</time>
      </trkpt>
      <trkpt lat="45.882341153919697" lon="7.934617912396789">
        <ele>1468.55</ele>
        <time>2013-09-19T07:42:41Z</time>
      </trkpt>
      <trkpt lat="45.882453722879291" lon="7.934474162757397">
        <ele>1470.95</ele>
        <time>2013-09-19T07:42:57Z</time>
      </trkpt>
      <trkpt lat="45.88251231238246" lon="7.934390679001808">
        <ele>1472.4000000000001</ele>
        <time>2013-09-19T07:43:12Z</time>
      </trkpt>
      <trkpt lat="45.882537206634879" lon="7.93443619273603">
        <ele>1472.4000000000001</ele>
        <time>2013-09-19T07:43:28Z</time>
      </trkpt>
      <trkpt lat="45.882559083402157" lon="7.934384644031525">
        <ele>1473.3599999999999</ele>
        <time>2013-09-19T07:43:37Z</time>
      </trkpt>
      <trkpt lat="45.882624797523022" lon="7.934298813343048">
        <ele>1474.3199999999999</ele>
        <time>2013-09-19T07:43:52Z</time>
      </trkpt>
      <trkpt lat="45.882652541622519" lon="7.934266962110996">
        <ele>1474.8</ele>
        <time>2013-09-19T07:43:55Z</time>
      </trkpt>
      <trkpt lat="45.882680704817176" lon="7.934214323759079">
        <ele>1475.76</ele>
        <time>2013-09-19T07:43:59Z</time>
      </trkpt>
      <trkpt lat="45.882837865501642" lon="7.934107454493642">
        <ele>1477.6800000000001</ele>
        <time>2013-09-19T07:44:14Z</time>
      </trkpt>
      <trkpt lat="45.882989494130015" lon="7.934053894132376">
        <ele>1480.0899999999999</ele>
        <time>2013-09-19T07:44:28Z</time>
      </trkpt>
      <trkpt lat="45.883090496063232" lon="7.93396370485425">
        <ele>1481.53</ele>
        <time>2013-09-19T07:44:40Z</time>
      </trkpt>
      <trkpt lat="45.883228126913309" lon="7.933836886659265">
        <ele>1483.45</ele>
        <time>2013-09-19T07:44:53Z</time>
      </trkpt>
      <trkpt lat="45.883247908204794" lon="7.933816770091653">
        <ele>1484.4100000000001</ele>
        <time>2013-09-19T07:44:55Z</time>
      </trkpt>
      <trkpt lat="45.88339819572866" lon="7.933688275516033">
        <ele>1486.3399999999999</ele>
        <time>2013-09-19T07:45:10Z</time>
      </trkpt>
      <trkpt lat="45.883495593443513" lon="7.933571096509695">
        <ele>1487.78</ele>
        <time>2013-09-19T07:45:23Z</time>
      </trkpt>
      <trkpt lat="45.883599864318967" lon="7.933413097634912">
        <ele>1489.7</ele>
        <time>2013-09-19T07:45:37Z</time>
      </trkpt>
      <trkpt lat="45.883693071082234" lon="7.933275634422898">
        <ele>1491.1400000000001</ele>
        <time>2013-09-19T07:45:50Z</time>
      </trkpt>
      <trkpt lat="45.883782422170043" lon="7.933128029108048">
        <ele>1493.55</ele>
        <time>2013-09-19T07:46:03Z</time>
      </trkpt>
      <trkpt lat="45.883798683062196" lon="7.933100368827581">
        <ele>1493.55</ele>
        <time>2013-09-19T07:46:05Z</time>
      </trkpt>
      <trkpt lat="45.883895074948668" lon="7.932919654995203">
        <ele>1495.47</ele>
        <time>2013-09-19T07:46:20Z</time>
      </trkpt>
      <trkpt lat="45.88390932418406" lon="7.932897275313735">
        <ele>1495.47</ele>
        <time>2013-09-19T07:46:22Z</time>
      </trkpt>
      <trkpt lat="45.883963722735643" lon="7.932864753529429">
        <ele>1495.95</ele>
        <time>2013-09-19T07:46:27Z</time>
      </trkpt>
      <trkpt lat="45.884151058271527" lon="7.932729469612241">
        <ele>1498.3499999999999</ele>
        <time>2013-09-19T07:46:47Z</time>
      </trkpt>
      <trkpt lat="45.884354067966342" lon="7.932609189301729">
        <ele>1500.27</ele>
        <time>2013-09-19T07:47:06Z</time>
      </trkpt>
      <trkpt lat="45.884453812614083" lon="7.9324846342206">
        <ele>1501.72</ele>
        <time>2013-09-19T07:47:18Z</time>
      </trkpt>
      <trkpt lat="45.884478790685534" lon="7.932335520163178">
        <ele>1501.72</ele>
        <time>2013-09-19T07:47:28Z</time>
      </trkpt>
      <trkpt lat="45.884476024657488" lon="7.932199900969863">
        <ele>1502.2</ele>
        <time>2013-09-19T07:47:37Z</time>
      </trkpt>
      <trkpt lat="45.88444241322577" lon="7.931994795799255">
        <ele>1505.0799999999999</ele>
        <time>2013-09-19T07:47:52Z</time>
      </trkpt>
      <trkpt lat="45.884441155940294" lon="7.931840317323804">
        <ele>1506.04</ele>
        <time>2013-09-19T07:48:04Z</time>
      </trkpt>
      <trkpt lat="45.88444484397769" lon="7.931710397824645">
        <ele>1507.48</ele>
        <time>2013-09-19T07:48:20Z</time>
      </trkpt>
      <trkpt lat="45.884454315528274" lon="7.93167594820261">
        <ele>1507.48</ele>
        <time>2013-09-19T07:48:33Z</time>
      </trkpt>
      <trkpt lat="45.884458171203732" lon="7.93167008087039">
        <ele>1507</ele>
        <time>2013-09-19T07:48:35Z</time>
      </trkpt>
      <trkpt lat="45.884418776258826" lon="7.931700674816966">
        <ele>1507.48</ele>
        <time>2013-09-19T07:49:05Z</time>
      </trkpt>
      <trkpt lat="45.884450376033783" lon="7.931682737544179">
        <ele>1507.97</ele>
        <time>2013-09-19T07:49:15Z</time>
      </trkpt>
      <trkpt lat="45.884437719359994" lon="7.931669661775231">
        <ele>1507.97</ele>
        <time>2013-09-19T07:49:18Z</time>
      </trkpt>
      <trkpt lat="45.884401006624103" lon="7.931683827191591">
        <ele>1507.97</ele>
        <time>2013-09-19T07:49:37Z</time>
      </trkpt>
      <trkpt lat="45.884383656084538" lon="7.931771082803607">
        <ele>1507.48</ele>
        <time>2013-09-19T07:50:03Z</time>
      </trkpt>
      <trkpt lat="45.884439395740628" lon="7.931670667603612">
        <ele>1507.97</ele>
        <time>2013-09-19T07:50:23Z</time>
      </trkpt>
      <trkpt lat="45.884476862847805" lon="7.931686257943511">
        <ele>1509.4100000000001</ele>
        <time>2013-09-19T07:50:55Z</time>
      </trkpt>
      <trkpt lat="45.884534530341625" lon="7.93155181221664">
        <ele>1510.8499999999999</ele>
        <time>2013-09-19T07:51:12Z</time>
      </trkpt>
      <trkpt lat="45.884564369916916" lon="7.931611407548189">
        <ele>1511.8099999999999</ele>
        <time>2013-09-19T07:51:32Z</time>
      </trkpt>
      <trkpt lat="45.884579960256815" lon="7.931645270437002">
        <ele>1511.8099999999999</ele>
        <time>2013-09-19T07:52:13Z</time>
      </trkpt>
      <trkpt lat="45.884593790397048" lon="7.931484170258045">
        <ele>1513.73</ele>
        <time>2013-09-19T07:52:29Z</time>
      </trkpt>
      <trkpt lat="45.88463494554162" lon="7.931341594085097">
        <ele>1515.6600000000001</ele>
        <time>2013-09-19T07:52:38Z</time>
      </trkpt>
      <trkpt lat="45.884669981896877" lon="7.931170938536525">
        <ele>1516.1400000000001</ele>
        <time>2013-09-19T07:52:54Z</time>
      </trkpt>
      <trkpt lat="45.884675765410066" lon="7.931147050112486">
        <ele>1518.0599999999999</ele>
        <time>2013-09-19T07:52:57Z</time>
      </trkpt>
      <trkpt lat="45.884713483974338" lon="7.930970946326852">
        <ele>1519.98</ele>
        <time>2013-09-19T07:53:11Z</time>
      </trkpt>
      <trkpt lat="45.884776851162314" lon="7.930824179202318">
        <ele>1522.8699999999999</ele>
        <time>2013-09-19T07:53:23Z</time>
      </trkpt>
      <trkpt lat="45.884801745414734" lon="7.930764919146895">
        <ele>1523.8299999999999</ele>
        <time>2013-09-19T07:53:28Z</time>
      </trkpt>
      <trkpt lat="45.884859496727586" lon="7.930607590824366">
        <ele>1525.75</ele>
        <time>2013-09-19T07:53:40Z</time>
      </trkpt>
      <trkpt lat="45.884889671579003" lon="7.930461494252086">
        <ele>1527.6700000000001</ele>
        <time>2013-09-19T07:53:53Z</time>
      </trkpt>
      <trkpt lat="45.884895706549287" lon="7.930292598903179">
        <ele>1531.04</ele>
        <time>2013-09-19T07:54:09Z</time>
      </trkpt>
      <trkpt lat="45.884902328252792" lon="7.930268961936235">
        <ele>1531.04</ele>
        <time>2013-09-19T07:54:20Z</time>
      </trkpt>
      <trkpt lat="45.88489780202508" lon="7.930270386859775">
        <ele>1531.04</ele>
        <time>2013-09-19T07:54:38Z</time>
      </trkpt>
      <trkpt lat="45.884893778711557" lon="7.930275667458773">
        <ele>1531.04</ele>
        <time>2013-09-19T07:55:03Z</time>
      </trkpt>
      <trkpt lat="45.884933257475495" lon="7.930264938622713">
        <ele>1531.04</ele>
        <time>2013-09-19T07:55:34Z</time>
      </trkpt>
      <trkpt lat="45.884885899722576" lon="7.930266447365284">
        <ele>1531.04</ele>
        <time>2013-09-19T07:55:42Z</time>
      </trkpt>
      <trkpt lat="45.884782802313566" lon="7.930114483460784">
        <ele>1531.52</ele>
        <time>2013-09-19T07:55:59Z</time>
      </trkpt>
      <trkpt lat="45.884743072092533" lon="7.930079698562622">
        <ele>1532.48</ele>
        <time>2013-09-19T07:56:10Z</time>
      </trkpt>
      <trkpt lat="45.884739886969328" lon="7.929949862882495">
        <ele>1534.4000000000001</ele>
        <time>2013-09-19T07:56:27Z</time>
      </trkpt>
      <trkpt lat="45.884828232228756" lon="7.9298460111022">
        <ele>1536.3199999999999</ele>
        <time>2013-09-19T07:56:44Z</time>
      </trkpt>
      <trkpt lat="45.884863436222076" lon="7.929845759645104">
        <ele>1537.29</ele>
        <time>2013-09-19T07:56:48Z</time>
      </trkpt>
      <trkpt lat="45.884905764833093" lon="7.929789433255792">
        <ele>1538.25</ele>
        <time>2013-09-19T07:57:04Z</time>
      </trkpt>
      <trkpt lat="45.884837284684181" lon="7.929720701649785">
        <ele>1540.6500000000001</ele>
        <time>2013-09-19T07:57:18Z</time>
      </trkpt>
      <trkpt lat="45.884757656604052" lon="7.929695807397366">
        <ele>1543.53</ele>
        <time>2013-09-19T07:57:31Z</time>
      </trkpt>
      <trkpt lat="45.884751956909895" lon="7.92966328561306">
        <ele>1545.46</ele>
        <time>2013-09-19T07:57:44Z</time>
      </trkpt>
      <trkpt lat="45.884733684360981" lon="7.929582484066486">
        <ele>1548.3399999999999</ele>
        <time>2013-09-19T07:58:01Z</time>
      </trkpt>
      <trkpt lat="45.884685069322586" lon="7.929586507380009">
        <ele>1551.22</ele>
        <time>2013-09-19T07:58:14Z</time>
      </trkpt>
      <trkpt lat="45.884663360193372" lon="7.929525570943952">
        <ele>1554.1099999999999</ele>
        <time>2013-09-19T07:58:24Z</time>
      </trkpt>
      <trkpt lat="45.884647686034441" lon="7.929434459656477">
        <ele>1556.51</ele>
        <time>2013-09-19T07:58:37Z</time>
      </trkpt>
      <trkpt lat="45.884659672155976" lon="7.929426077753305">
        <ele>1556.99</ele>
        <time>2013-09-19T07:58:49Z</time>
      </trkpt>
      <trkpt lat="45.884661432355642" lon="7.929432447999716">
        <ele>1556.99</ele>
        <time>2013-09-19T07:58:59Z</time>
      </trkpt>
      <trkpt lat="45.884609380736947" lon="7.929370421916246">
        <ele>1558.4300000000001</ele>
        <time>2013-09-19T07:59:11Z</time>
      </trkpt>
      <trkpt lat="45.884625473991036" lon="7.929334631189704">
        <ele>1558.4300000000001</ele>
        <time>2013-09-19T07:59:26Z</time>
      </trkpt>
      <trkpt lat="45.884610889479518" lon="7.929346868768334">
        <ele>1558.9200000000001</ele>
        <time>2013-09-19T07:59:40Z</time>
      </trkpt>
      <trkpt lat="45.884608710184693" lon="7.929353322833777">
        <ele>1558.4300000000001</ele>
        <time>2013-09-19T08:00:04Z</time>
      </trkpt>
      <trkpt lat="45.884594796225429" lon="7.929426915943623">
        <ele>1558.9200000000001</ele>
        <time>2013-09-19T08:00:31Z</time>
      </trkpt>
      <trkpt lat="45.884598400443792" lon="7.9294160194695">
        <ele>1558.9200000000001</ele>
        <time>2013-09-19T08:01:01Z</time>
      </trkpt>
      <trkpt lat="45.884677860885859" lon="7.929370421916246">
        <ele>1558.4300000000001</ele>
        <time>2013-09-19T08:01:12Z</time>
      </trkpt>
      <trkpt lat="45.884776348248124" lon="7.929318621754646">
        <ele>1561.8</ele>
        <time>2013-09-19T08:01:27Z</time>
      </trkpt>
      <trkpt lat="45.884766289964318" lon="7.929220218211412">
        <ele>1564.6800000000001</ele>
        <time>2013-09-19T08:01:39Z</time>
      </trkpt>
      <trkpt lat="45.884765703231096" lon="7.929053502157331">
        <ele>1568.05</ele>
        <time>2013-09-19T08:01:55Z</time>
      </trkpt>
      <trkpt lat="45.884739719331264" lon="7.929001282900572">
        <ele>1569.01</ele>
        <time>2013-09-19T08:02:08Z</time>
      </trkpt>
      <trkpt lat="45.884739886969328" lon="7.929015196859837">
        <ele>1569.49</ele>
        <time>2013-09-19T08:02:29Z</time>
      </trkpt>
      <trkpt lat="45.884755309671164" lon="7.929022405296564">
        <ele>1569.97</ele>
        <time>2013-09-19T08:02:47Z</time>
      </trkpt>
      <trkpt lat="45.884732510894537" lon="7.928993320092559">
        <ele>1570.45</ele>
        <time>2013-09-19T08:03:03Z</time>
      </trkpt>
      <trkpt lat="45.884836362674832" lon="7.928946213796735">
        <ele>1573.3299999999999</ele>
        <time>2013-09-19T08:03:18Z</time>
      </trkpt>
      <trkpt lat="45.88485287502408" lon="7.928806152194738">
        <ele>1576.22</ele>
        <time>2013-09-19T08:03:34Z</time>
      </trkpt>
      <trkpt lat="45.884886151179671" lon="7.928695259615779">
        <ele>1579.5799999999999</ele>
        <time>2013-09-19T08:03:45Z</time>
      </trkpt>
      <trkpt lat="45.884925965219736" lon="7.928600460290909">
        <ele>1581.99</ele>
        <time>2013-09-19T08:03:56Z</time>
      </trkpt>
      <trkpt lat="45.88502487167716" lon="7.928538182750344">
        <ele>1584.8699999999999</ele>
        <time>2013-09-19T08:04:10Z</time>
      </trkpt>
      <trkpt lat="45.885057142004371" lon="7.928477665409446">
        <ele>1585.8299999999999</ele>
        <time>2013-09-19T08:04:23Z</time>
      </trkpt>
      <trkpt lat="45.885055884718895" lon="7.928340034559369">
        <ele>1587.75</ele>
        <time>2013-09-19T08:04:38Z</time>
      </trkpt>
      <trkpt lat="45.885073402896523" lon="7.92819008231163">
        <ele>1590.6400000000001</ele>
        <time>2013-09-19T08:04:53Z</time>
      </trkpt>
      <trkpt lat="45.885127214714885" lon="7.928129648789764">
        <ele>1593.52</ele>
        <time>2013-09-19T08:05:06Z</time>
      </trkpt>
      <trkpt lat="45.885113384574652" lon="7.928096456453204">
        <ele>1595.45</ele>
        <time>2013-09-19T08:05:13Z</time>
      </trkpt>
      <trkpt lat="45.885132160037756" lon="7.92804105207324">
        <ele>1595.9300000000001</ele>
        <time>2013-09-19T08:05:27Z</time>
      </trkpt>
      <trkpt lat="45.885162837803364" lon="7.927982797846198">
        <ele>1597.3699999999999</ele>
        <time>2013-09-19T08:05:38Z</time>
      </trkpt>
      <trkpt lat="45.885238274931908" lon="7.927950192242861">
        <ele>1598.3299999999999</ele>
        <time>2013-09-19T08:05:51Z</time>
      </trkpt>
      <trkpt lat="45.885245818644762" lon="7.927944995462894">
        <ele>1600.25</ele>
        <time>2013-09-19T08:05:53Z</time>
      </trkpt>
      <trkpt lat="45.885337013751268" lon="7.927899481728673">
        <ele>1602.1700000000001</ele>
        <time>2013-09-19T08:06:09Z</time>
      </trkpt>
      <trkpt lat="45.885359728708863" lon="7.927802000194788">
        <ele>1605.0599999999999</ele>
        <time>2013-09-19T08:06:19Z</time>
      </trkpt>
      <trkpt lat="45.885361069813371" lon="7.927794624119997">
        <ele>1605.54</ele>
        <time>2013-09-19T08:06:20Z</time>
      </trkpt>
      <trkpt lat="45.885356040671468" lon="7.927601002156735">
        <ele>1606.5</ele>
        <time>2013-09-19T08:06:34Z</time>
      </trkpt>
      <trkpt lat="45.885373475030065" lon="7.927451301366091">
        <ele>1606.98</ele>
        <time>2013-09-19T08:06:48Z</time>
      </trkpt>
      <trkpt lat="45.885378671810031" lon="7.927421880885959">
        <ele>1606.98</ele>
        <time>2013-09-19T08:06:52Z</time>
      </trkpt>
      <trkpt lat="45.8853820245713" lon="7.927366644144058">
        <ele>1606.5</ele>
        <time>2013-09-19T08:07:09Z</time>
      </trkpt>
      <trkpt lat="45.885399794206023" lon="7.927321381866932">
        <ele>1606.02</ele>
        <time>2013-09-19T08:07:34Z</time>
      </trkpt>
      <trkpt lat="45.885381773114204" lon="7.927362956106663">
        <ele>1606.5</ele>
        <time>2013-09-19T08:07:55Z</time>
      </trkpt>
      <trkpt lat="45.885392585769296" lon="7.927358262240887">
        <ele>1606.5</ele>
        <time>2013-09-19T08:08:23Z</time>
      </trkpt>
      <trkpt lat="45.88541965931654" lon="7.927331021055579">
        <ele>1606.5</ele>
        <time>2013-09-19T08:09:00Z</time>
      </trkpt>
      <trkpt lat="45.885406667366624" lon="7.927345689386129">
        <ele>1606.5</ele>
        <time>2013-09-19T08:09:27Z</time>
      </trkpt>
      <trkpt lat="45.885383617132902" lon="7.927344935014844">
        <ele>1606.98</ele>
        <time>2013-09-19T08:09:55Z</time>
      </trkpt>
      <trkpt lat="45.885425107553601" lon="7.927326411008835">
        <ele>1607.46</ele>
        <time>2013-09-19T08:10:12Z</time>
      </trkpt>
      <trkpt lat="45.88541379198432" lon="7.927319118753076">
        <ele>1607.46</ele>
        <time>2013-09-19T08:10:19Z</time>
      </trkpt>
      <trkpt lat="45.885438015684485" lon="7.927282322198153">
        <ele>1606.98</ele>
        <time>2013-09-19T08:10:23Z</time>
      </trkpt>
      <trkpt lat="45.885451845824718" lon="7.927278047427535">
        <ele>1607.9400000000001</ele>
        <time>2013-09-19T08:10:37Z</time>
      </trkpt>
      <trkpt lat="45.885497108101845" lon="7.927199592813849">
        <ele>1609.3800000000001</ele>
        <time>2013-09-19T08:10:50Z</time>
      </trkpt>
      <trkpt lat="45.885557541623712" lon="7.927270671352744">
        <ele>1611.79</ele>
        <time>2013-09-19T08:11:06Z</time>
      </trkpt>
      <trkpt lat="45.885615292936563" lon="7.927192384377122">
        <ele>1611.79</ele>
        <time>2013-09-19T08:11:19Z</time>
      </trkpt>
      <trkpt lat="45.885614370927215" lon="7.927181487902999">
        <ele>1611.79</ele>
        <time>2013-09-19T08:11:40Z</time>
      </trkpt>
      <trkpt lat="45.885585453361273" lon="7.927149888128042">
        <ele>1610.8299999999999</ele>
        <time>2013-09-19T08:11:45Z</time>
      </trkpt>
      <trkpt lat="45.885633565485477" lon="7.927127676084638">
        <ele>1610.3499999999999</ele>
        <time>2013-09-19T08:11:49Z</time>
      </trkpt>
      <trkpt lat="45.885653430595994" lon="7.92709649540484">
        <ele>1610.8299999999999</ele>
        <time>2013-09-19T08:11:52Z</time>
      </trkpt>
      <trkpt lat="45.885663153603673" lon="7.926924666389823">
        <ele>1610.8299999999999</ele>
        <time>2013-09-19T08:12:03Z</time>
      </trkpt>
      <trkpt lat="45.885667009279132" lon="7.926899436861277">
        <ele>1610.8299999999999</ele>
        <time>2013-09-19T08:12:05Z</time>
      </trkpt>
      <trkpt lat="45.885669020935893" lon="7.926705563440919">
        <ele>1611.3099999999999</ele>
        <time>2013-09-19T08:12:19Z</time>
      </trkpt>
      <trkpt lat="45.885670362040401" lon="7.92659617960453">
        <ele>1611.79</ele>
        <time>2013-09-19T08:12:32Z</time>
      </trkpt>
      <trkpt lat="45.885704811662436" lon="7.926546391099691">
        <ele>1611.79</ele>
        <time>2013-09-19T08:12:46Z</time>
      </trkpt>
      <trkpt lat="45.885736914351583" lon="7.926423931494355">
        <ele>1614.1900000000001</ele>
        <time>2013-09-19T08:12:59Z</time>
      </trkpt>
      <trkpt lat="45.885750660672784" lon="7.9261832870543">
        <ele>1616.1099999999999</ele>
        <time>2013-09-19T08:13:15Z</time>
      </trkpt>
      <trkpt lat="45.885836910456419" lon="7.926010703667998">
        <ele>1618.04</ele>
        <time>2013-09-19T08:13:30Z</time>
      </trkpt>
      <trkpt lat="45.885879071429372" lon="7.925880029797554">
        <ele>1619.48</ele>
        <time>2013-09-19T08:13:41Z</time>
      </trkpt>
      <trkpt lat="45.885892398655415" lon="7.9258534591645">
        <ele>1619.48</ele>
        <time>2013-09-19T08:13:43Z</time>
      </trkpt>
      <trkpt lat="45.885912347584963" lon="7.925793947651982">
        <ele>1619</ele>
        <time>2013-09-19T08:13:47Z</time>
      </trkpt>
      <trkpt lat="45.885939840227365" lon="7.925771567970514">
        <ele>1619</ele>
        <time>2013-09-19T08:13:50Z</time>
      </trkpt>
      <trkpt lat="45.885973870754242" lon="7.925724042579532">
        <ele>1619</ele>
        <time>2013-09-19T08:13:54Z</time>
      </trkpt>
      <trkpt lat="45.886002201586962" lon="7.925669392570853">
        <ele>1619.48</ele>
        <time>2013-09-19T08:13:58Z</time>
      </trkpt>
      <trkpt lat="45.886106891557574" lon="7.92551239952445">
        <ele>1620.4400000000001</ele>
        <time>2013-09-19T08:14:12Z</time>
      </trkpt>
      <trkpt lat="45.886107981204987" lon="7.925506867468357">
        <ele>1619.96</ele>
        <time>2013-09-19T08:14:31Z</time>
      </trkpt>
      <trkpt lat="45.886110244318843" lon="7.925507286563516">
        <ele>1620.4400000000001</ele>
        <time>2013-09-19T08:14:33Z</time>
      </trkpt>
      <trkpt lat="45.886223651468754" lon="7.925439644604921">
        <ele>1621.4000000000001</ele>
        <time>2013-09-19T08:14:46Z</time>
      </trkpt>
      <trkpt lat="45.886274194344878" lon="7.925361022353172">
        <ele>1622.8399999999999</ele>
        <time>2013-09-19T08:14:55Z</time>
      </trkpt>
      <trkpt lat="45.88631828315556" lon="7.925329590216279">
        <ele>1623.8</ele>
        <time>2013-09-19T08:15:00Z</time>
      </trkpt>
      <trkpt lat="45.886325156316161" lon="7.925235629081726">
        <ele>1623.3199999999999</ele>
        <time>2013-09-19T08:15:05Z</time>
      </trkpt>
      <trkpt lat="45.886409059166908" lon="7.925180476158857">
        <ele>1623.8</ele>
        <time>2013-09-19T08:15:12Z</time>
      </trkpt>
      <trkpt lat="45.886500170454383" lon="7.925026081502438">
        <ele>1623.8</ele>
        <time>2013-09-19T08:15:23Z</time>
      </trkpt>
      <trkpt lat="45.886510061100125" lon="7.924961540848017">
        <ele>1623.8</ele>
        <time>2013-09-19T08:15:27Z</time>
      </trkpt>
      <trkpt lat="45.886522885411978" lon="7.924715615808964">
        <ele>1623.3199999999999</ele>
        <time>2013-09-19T08:15:42Z</time>
      </trkpt>
      <trkpt lat="45.886555993929505" lon="7.924533141776919">
        <ele>1623.8</ele>
        <time>2013-09-19T08:15:52Z</time>
      </trkpt>
      <trkpt lat="45.886624474078417" lon="7.924450244754553">
        <ele>1625.25</ele>
        <time>2013-09-19T08:16:00Z</time>
      </trkpt>
      <trkpt lat="45.88663537055254" lon="7.924421913921833">
        <ele>1625.73</ele>
        <time>2013-09-19T08:16:02Z</time>
      </trkpt>
      <trkpt lat="45.88665347546339" lon="7.924406407400966">
        <ele>1625.73</ele>
        <time>2013-09-19T08:16:04Z</time>
      </trkpt>
      <trkpt lat="45.886709969490767" lon="7.924214294180274">
        <ele>1628.6099999999999</ele>
        <time>2013-09-19T08:16:20Z</time>
      </trkpt>
      <trkpt lat="45.88671550154686" lon="7.924098707735539">
        <ele>1631.49</ele>
        <time>2013-09-19T08:16:33Z</time>
      </trkpt>
      <trkpt lat="45.886771408841014" lon="7.923994101583958">
        <ele>1633.4200000000001</ele>
        <time>2013-09-19T08:16:45Z</time>
      </trkpt>
      <trkpt lat="45.886769564822316" lon="7.9239815287292">
        <ele>1633.4200000000001</ele>
        <time>2013-09-19T08:16:46Z</time>
      </trkpt>
      <trkpt lat="45.886761350557208" lon="7.923840712755919">
        <ele>1635.3399999999999</ele>
        <time>2013-09-19T08:17:01Z</time>
      </trkpt>
      <trkpt lat="45.88679856620729" lon="7.923669302836061">
        <ele>1636.3</ele>
        <time>2013-09-19T08:17:15Z</time>
      </trkpt>
      <trkpt lat="45.886844918131828" lon="7.923574084416032">
        <ele>1637.26</ele>
        <time>2013-09-19T08:17:24Z</time>
      </trkpt>
      <trkpt lat="45.886912224814296" lon="7.923449194058776">
        <ele>1639.1900000000001</ele>
        <time>2013-09-19T08:17:38Z</time>
      </trkpt>
      <trkpt lat="45.886950613930821" lon="7.923311395570636">
        <ele>1640.1500000000001</ele>
        <time>2013-09-19T08:17:52Z</time>
      </trkpt>
      <trkpt lat="45.88700040243566" lon="7.92312590405345">
        <ele>1639.6700000000001</ele>
        <time>2013-09-19T08:18:07Z</time>
      </trkpt>
      <trkpt lat="45.887029822915792" lon="7.922981148585677">
        <ele>1640.1500000000001</ele>
        <time>2013-09-19T08:18:19Z</time>
      </trkpt>
      <trkpt lat="45.887036947533488" lon="7.922872938215733">
        <ele>1640.6300000000001</ele>
        <time>2013-09-19T08:18:34Z</time>
      </trkpt>
      <trkpt lat="45.887044491246343" lon="7.922904537990689">
        <ele>1641.5899999999999</ele>
        <time>2013-09-19T08:18:49Z</time>
      </trkpt>
      <trkpt lat="45.887018507346511" lon="7.922916524112225">
        <ele>1640.6300000000001</ele>
        <time>2013-09-19T08:19:09Z</time>
      </trkpt>
      <trkpt lat="45.887037115171552" lon="7.922897078096867">
        <ele>1640.1500000000001</ele>
        <time>2013-09-19T08:19:22Z</time>
      </trkpt>
      <trkpt lat="45.887043988332152" lon="7.922887690365315">
        <ele>1639.6700000000001</ele>
        <time>2013-09-19T08:19:48Z</time>
      </trkpt>
      <trkpt lat="45.887044658884406" lon="7.922893138602376">
        <ele>1640.1500000000001</ele>
        <time>2013-09-19T08:19:49Z</time>
      </trkpt>
      <trkpt lat="45.887116994708776" lon="7.92292314581573">
        <ele>1640.6300000000001</ele>
        <time>2013-09-19T08:19:56Z</time>
      </trkpt>
      <trkpt lat="45.887194108217955" lon="7.922836057841778">
        <ele>1643.03</ele>
        <time>2013-09-19T08:20:11Z</time>
      </trkpt>
      <trkpt lat="45.88722369633615" lon="7.922740252688527">
        <ele>1645.4300000000001</ele>
        <time>2013-09-19T08:20:23Z</time>
      </trkpt>
      <trkpt lat="45.887270383536816" lon="7.922653751447797">
        <ele>1646.4000000000001</ele>
        <time>2013-09-19T08:20:31Z</time>
      </trkpt>
      <trkpt lat="45.887284632772207" lon="7.922632545232773">
        <ele>1646.4000000000001</ele>
        <time>2013-09-19T08:20:33Z</time>
      </trkpt>
      <trkpt lat="45.887338444590569" lon="7.922549732029438">
        <ele>1646.4000000000001</ele>
        <time>2013-09-19T08:20:40Z</time>
      </trkpt>
      <trkpt lat="45.887336768209934" lon="7.92249072343111">
        <ele>1645.9100000000001</ele>
        <time>2013-09-19T08:20:44Z</time>
      </trkpt>
      <trkpt lat="45.887367613613605" lon="7.922363402321935">
        <ele>1644.95</ele>
        <time>2013-09-19T08:20:51Z</time>
      </trkpt>
      <trkpt lat="45.887375744059682" lon="7.922332808375359">
        <ele>1644.95</ele>
        <time>2013-09-19T08:20:53Z</time>
      </trkpt>
      <trkpt lat="45.887417905032635" lon="7.922210348770022">
        <ele>1646.4000000000001</ele>
        <time>2013-09-19T08:21:02Z</time>
      </trkpt>
      <trkpt lat="45.887429639697075" lon="7.922178413718939">
        <ele>1646.4000000000001</ele>
        <time>2013-09-19T08:21:04Z</time>
      </trkpt>
      <trkpt lat="45.887511279433966" lon="7.9219991248101">
        <ele>1647.8399999999999</ele>
        <time>2013-09-19T08:21:19Z</time>
      </trkpt>
      <trkpt lat="45.88755645789206" lon="7.921901810914278">
        <ele>1650.72</ele>
        <time>2013-09-19T08:21:33Z</time>
      </trkpt>
      <trkpt lat="45.887607168406248" lon="7.921889070421457">
        <ele>1653.1199999999999</ele>
        <time>2013-09-19T08:21:47Z</time>
      </trkpt>
      <trkpt lat="45.887646814808249" lon="7.921737693250179">
        <ele>1655.53</ele>
        <time>2013-09-19T08:22:01Z</time>
      </trkpt>
      <trkpt lat="45.887698531150818" lon="7.921663513407111">
        <ele>1657.9300000000001</ele>
        <time>2013-09-19T08:22:12Z</time>
      </trkpt>
      <trkpt lat="45.887711690738797" lon="7.921534013003111">
        <ele>1659.8499999999999</ele>
        <time>2013-09-19T08:22:25Z</time>
      </trkpt>
      <trkpt lat="45.887780925258994" lon="7.921470310539007">
        <ele>1661.78</ele>
        <time>2013-09-19T08:22:39Z</time>
      </trkpt>
      <trkpt lat="45.887828199192882" lon="7.921458072960377">
        <ele>1663.22</ele>
        <time>2013-09-19T08:22:52Z</time>
      </trkpt>
      <trkpt lat="45.887826271355152" lon="7.921301666647196">
        <ele>1664.6600000000001</ele>
        <time>2013-09-19T08:23:08Z</time>
      </trkpt>
      <trkpt lat="45.887897433713078" lon="7.921154564246535">
        <ele>1663.7</ele>
        <time>2013-09-19T08:23:23Z</time>
      </trkpt>
      <trkpt lat="45.888025425374508" lon="7.921050963923335">
        <ele>1664.1800000000001</ele>
        <time>2013-09-19T08:23:39Z</time>
      </trkpt>
      <trkpt lat="45.888098850846291" lon="7.921003773808479">
        <ele>1664.6600000000001</ele>
        <time>2013-09-19T08:23:50Z</time>
      </trkpt>
      <trkpt lat="45.888174790889025" lon="7.920924481004477">
        <ele>1665.1400000000001</ele>
        <time>2013-09-19T08:24:03Z</time>
      </trkpt>
      <trkpt lat="45.88821611367166" lon="7.920840578153729">
        <ele>1663.22</ele>
        <time>2013-09-19T08:24:14Z</time>
      </trkpt>
      <trkpt lat="45.888291550800204" lon="7.920771175995469">
        <ele>1661.3</ele>
        <time>2013-09-19T08:24:25Z</time>
      </trkpt>
      <trkpt lat="45.888318121433258" lon="7.920731948688626">
        <ele>1660.3299999999999</ele>
        <time>2013-09-19T08:24:36Z</time>
      </trkpt>
      <trkpt lat="45.888371681794524" lon="7.920659696683288">
        <ele>1657.9300000000001</ele>
        <time>2013-09-19T08:24:50Z</time>
      </trkpt>
      <trkpt lat="45.888430355116725" lon="7.920582666993141">
        <ele>1656.97</ele>
        <time>2013-09-19T08:25:01Z</time>
      </trkpt>
      <trkpt lat="45.888529513031244" lon="7.920474288985133">
        <ele>1656.01</ele>
        <time>2013-09-19T08:25:16Z</time>
      </trkpt>
      <trkpt lat="45.888608805835247" lon="7.920444952324033">
        <ele>1656.97</ele>
        <time>2013-09-19T08:25:30Z</time>
      </trkpt>
      <trkpt lat="45.888699749484658" lon="7.920323582366109">
        <ele>1659.3699999999999</ele>
        <time>2013-09-19T08:25:44Z</time>
      </trkpt>
      <trkpt lat="45.888767307624221" lon="7.920150831341744">
        <ele>1660.8099999999999</ele>
        <time>2013-09-19T08:26:00Z</time>
      </trkpt>
      <trkpt lat="45.888840733096004" lon="7.920077238231897">
        <ele>1663.22</ele>
        <time>2013-09-19T08:26:15Z</time>
      </trkpt>
      <trkpt lat="45.888886833563447" lon="7.919995011761785">
        <ele>1664.1800000000001</ele>
        <time>2013-09-19T08:26:29Z</time>
      </trkpt>
      <trkpt lat="45.888941735029221" lon="7.919912114739418">
        <ele>1662.26</ele>
        <time>2013-09-19T08:26:45Z</time>
      </trkpt>
      <trkpt lat="45.889001749455929" lon="7.919835085049272">
        <ele>1660.8099999999999</ele>
        <time>2013-09-19T08:26:58Z</time>
      </trkpt>
      <trkpt lat="45.889041563495994" lon="7.919779848307371">
        <ele>1658.8900000000001</ele>
        <time>2013-09-19T08:27:07Z</time>
      </trkpt>
      <trkpt lat="45.889107780531049" lon="7.919723773375154">
        <ele>1657.9300000000001</ele>
        <time>2013-09-19T08:27:19Z</time>
      </trkpt>
      <trkpt lat="45.889157904312015" lon="7.919646576046944">
        <ele>1658.8900000000001</ele>
        <time>2013-09-19T08:27:31Z</time>
      </trkpt>
      <trkpt lat="45.889195706695318" lon="7.919580191373825">
        <ele>1659.3699999999999</ele>
        <time>2013-09-19T08:27:42Z</time>
      </trkpt>
      <trkpt lat="45.889252200722694" lon="7.919533755630255">
        <ele>1660.8099999999999</ele>
        <time>2013-09-19T08:27:55Z</time>
      </trkpt>
      <trkpt lat="45.88927399367094" lon="7.919461755082011">
        <ele>1661.78</ele>
        <time>2013-09-19T08:28:07Z</time>
      </trkpt>
      <trkpt lat="45.889213979244232" lon="7.919422695413232">
        <ele>1662.74</ele>
        <time>2013-09-19T08:28:20Z</time>
      </trkpt>
      <trkpt lat="45.889227725565434" lon="7.919260589405894">
        <ele>1663.7</ele>
        <time>2013-09-19T08:28:35Z</time>
      </trkpt>
      <trkpt lat="45.889292098581791" lon="7.919179704040289">
        <ele>1665.1400000000001</ele>
        <time>2013-09-19T08:28:47Z</time>
      </trkpt>
      <trkpt lat="45.889316322281957" lon="7.91909865103662">
        <ele>1666.5799999999999</ele>
        <time>2013-09-19T08:29:00Z</time>
      </trkpt>
      <trkpt lat="45.889392010867596" lon="7.918996810913086">
        <ele>1668.51</ele>
        <time>2013-09-19T08:29:15Z</time>
      </trkpt>
      <trkpt lat="45.88941715657711" lon="7.918927911669016">
        <ele>1669.95</ele>
        <time>2013-09-19T08:29:29Z</time>
      </trkpt>
      <trkpt lat="45.889412378892303" lon="7.918833615258336">
        <ele>1669.95</ele>
        <time>2013-09-19T08:29:44Z</time>
      </trkpt>
      <trkpt lat="45.889505250379443" lon="7.918782066553831">
        <ele>1671.8699999999999</ele>
        <time>2013-09-19T08:29:58Z</time>
      </trkpt>
      <trkpt lat="45.889540705829859" lon="7.91867159307003">
        <ele>1674.27</ele>
        <time>2013-09-19T08:30:14Z</time>
      </trkpt>
      <trkpt lat="45.889615640044212" lon="7.918582912534475">
        <ele>1675.72</ele>
        <time>2013-09-19T08:30:29Z</time>
      </trkpt>
      <trkpt lat="45.889662746340036" lon="7.918490208685398">
        <ele>1677.6400000000001</ele>
        <time>2013-09-19T08:30:45Z</time>
      </trkpt>
      <trkpt lat="45.889729047194123" lon="7.918360456824303">
        <ele>1679.5599999999999</ele>
        <time>2013-09-19T08:31:00Z</time>
      </trkpt>
      <trkpt lat="45.889739524573088" lon="7.918278565630317">
        <ele>1680.52</ele>
        <time>2013-09-19T08:31:13Z</time>
      </trkpt>
      <trkpt lat="45.889751426875591" lon="7.918181251734495">
        <ele>1682.4400000000001</ele>
        <time>2013-09-19T08:31:28Z</time>
      </trkpt>
      <trkpt lat="45.889787217602134" lon="7.918073460459709">
        <ele>1683.8900000000001</ele>
        <time>2013-09-19T08:31:40Z</time>
      </trkpt>
      <trkpt lat="45.889813704416156" lon="7.917978996410966">
        <ele>1685.3299999999999</ele>
        <time>2013-09-19T08:31:55Z</time>
      </trkpt>
      <trkpt lat="45.88988034054637" lon="7.917852262035012">
        <ele>1687.25</ele>
        <time>2013-09-19T08:32:12Z</time>
      </trkpt>
      <trkpt lat="45.889880089089274" lon="7.917764587327838">
        <ele>1689.1700000000001</ele>
        <time>2013-09-19T08:32:25Z</time>
      </trkpt>
      <trkpt lat="45.889858296141028" lon="7.917635422199965">
        <ele>1690.6199999999999</ele>
        <time>2013-09-19T08:32:40Z</time>
      </trkpt>
      <trkpt lat="45.889890398830175" lon="7.917600469663739">
        <ele>1691.5799999999999</ele>
        <time>2013-09-19T08:32:46Z</time>
      </trkpt>
      <trkpt lat="45.889946473762393" lon="7.917488571256399">
        <ele>1693.02</ele>
        <time>2013-09-19T08:32:59Z</time>
      </trkpt>
      <trkpt lat="45.889905653893948" lon="7.917435262352228">
        <ele>1694.9400000000001</ele>
        <time>2013-09-19T08:33:13Z</time>
      </trkpt>
      <trkpt lat="45.889908839017153" lon="7.91736694984138">
        <ele>1696.3800000000001</ele>
        <time>2013-09-19T08:33:25Z</time>
      </trkpt>
      <trkpt lat="45.88989014737308" lon="7.917265696451068">
        <ele>1698.3099999999999</ele>
        <time>2013-09-19T08:33:38Z</time>
      </trkpt>
      <trkpt lat="45.889876233413815" lon="7.917182296514511">
        <ele>1699.75</ele>
        <time>2013-09-19T08:33:51Z</time>
      </trkpt>
      <trkpt lat="45.889936834573746" lon="7.917028991505504">
        <ele>1701.6700000000001</ele>
        <time>2013-09-19T08:34:06Z</time>
      </trkpt>
      <trkpt lat="45.889965668320656" lon="7.916907956823707">
        <ele>1702.6300000000001</ele>
        <time>2013-09-19T08:34:18Z</time>
      </trkpt>
      <trkpt lat="45.89000984095037" lon="7.916755909100175">
        <ele>1705.04</ele>
        <time>2013-09-19T08:34:33Z</time>
      </trkpt>
      <trkpt lat="45.89006507769227" lon="7.916620122268796">
        <ele>1706</ele>
        <time>2013-09-19T08:34:46Z</time>
      </trkpt>
      <trkpt lat="45.890099192038178" lon="7.916488358750939">
        <ele>1707.9200000000001</ele>
        <time>2013-09-19T08:35:00Z</time>
      </trkpt>
      <trkpt lat="45.890139006078243" lon="7.916408814489842">
        <ele>1709.8399999999999</ele>
        <time>2013-09-19T08:35:14Z</time>
      </trkpt>
      <trkpt lat="45.890144035220146" lon="7.916405042633414">
        <ele>1709.8399999999999</ele>
        <time>2013-09-19T08:35:15Z</time>
      </trkpt>
      <trkpt lat="45.890243779867887" lon="7.916306806728244">
        <ele>1711.28</ele>
        <time>2013-09-19T08:35:29Z</time>
      </trkpt>
      <trkpt lat="45.890299854800105" lon="7.916195159777999">
        <ele>1713.6900000000001</ele>
        <time>2013-09-19T08:35:41Z</time>
      </trkpt>
      <trkpt lat="45.890341345220804" lon="7.916162637993693">
        <ele>1714.1700000000001</ele>
        <time>2013-09-19T08:35:52Z</time>
      </trkpt>
      <trkpt lat="45.890352996066213" lon="7.916141767054796">
        <ele>1714.1700000000001</ele>
        <time>2013-09-19T08:36:13Z</time>
      </trkpt>
      <trkpt lat="45.890431283041835" lon="7.916044872254133">
        <ele>1715.1300000000001</ele>
        <time>2013-09-19T08:36:25Z</time>
      </trkpt>
      <trkpt lat="45.890527172014117" lon="7.916019894182682">
        <ele>1718.49</ele>
        <time>2013-09-19T08:36:40Z</time>
      </trkpt>
      <trkpt lat="45.890569249168038" lon="7.915941271930933">
        <ele>1719.46</ele>
        <time>2013-09-19T08:36:52Z</time>
      </trkpt>
      <trkpt lat="45.890637980774045" lon="7.91591327637434">
        <ele>1720.9000000000001</ele>
        <time>2013-09-19T08:37:04Z</time>
      </trkpt>
      <trkpt lat="45.890732193365693" lon="7.915934985503554">
        <ele>1722.3399999999999</ele>
        <time>2013-09-19T08:37:17Z</time>
      </trkpt>
      <trkpt lat="45.89078776538372" lon="7.915959795936942">
        <ele>1723.3</ele>
        <time>2013-09-19T08:37:29Z</time>
      </trkpt>
      <trkpt lat="45.89088792912662" lon="7.915962226688862">
        <ele>1724.74</ele>
        <time>2013-09-19T08:37:44Z</time>
      </trkpt>
      <trkpt lat="45.890926737338305" lon="7.91592207737267">
        <ele>1725.22</ele>
        <time>2013-09-19T08:37:56Z</time>
      </trkpt>
      <trkpt lat="45.890969652682543" lon="7.915905732661486">
        <ele>1726.6700000000001</ele>
        <time>2013-09-19T08:38:03Z</time>
      </trkpt>
      <trkpt lat="45.891016004607081" lon="7.915883520618081">
        <ele>1728.1099999999999</ele>
        <time>2013-09-19T08:38:18Z</time>
      </trkpt>
      <trkpt lat="45.891044922173023" lon="7.915746979415417">
        <ele>1730.51</ele>
        <time>2013-09-19T08:38:32Z</time>
      </trkpt>
      <trkpt lat="45.891095800325274" lon="7.915667686611414">
        <ele>1731.47</ele>
        <time>2013-09-19T08:38:45Z</time>
      </trkpt>
      <trkpt lat="45.891130166128278" lon="7.915690569207072">
        <ele>1731.95</ele>
        <time>2013-09-19T08:38:48Z</time>
      </trkpt>
      <trkpt lat="45.891194455325603" lon="7.915746225044131">
        <ele>1733.3900000000001</ele>
        <time>2013-09-19T08:39:01Z</time>
      </trkpt>
      <trkpt lat="45.891236951574683" lon="7.915768185630441">
        <ele>1735.3199999999999</ele>
        <time>2013-09-19T08:39:16Z</time>
      </trkpt>
      <trkpt lat="45.891284225508571" lon="7.915641451254487">
        <ele>1736.76</ele>
        <time>2013-09-19T08:39:30Z</time>
      </trkpt>
      <trkpt lat="45.891302078962326" lon="7.915553105995059">
        <ele>1738.6800000000001</ele>
        <time>2013-09-19T08:39:43Z</time>
      </trkpt>
      <trkpt lat="45.891374163329601" lon="7.915427293628454">
        <ele>1738.6800000000001</ele>
        <time>2013-09-19T08:39:56Z</time>
      </trkpt>
      <trkpt lat="45.891442727297544" lon="7.915345402434468">
        <ele>1740.1199999999999</ele>
        <time>2013-09-19T08:40:10Z</time>
      </trkpt>
      <trkpt lat="45.891458569094539" lon="7.915341882035136">
        <ele>1740.5999999999999</ele>
        <time>2013-09-19T08:40:12Z</time>
      </trkpt>
      <trkpt lat="45.891525037586689" lon="7.9152936860919">
        <ele>1743.01</ele>
        <time>2013-09-19T08:40:24Z</time>
      </trkpt>
      <trkpt lat="45.891573233529925" lon="7.915229648351669">
        <ele>1743.97</ele>
        <time>2013-09-19T08:40:34Z</time>
      </trkpt>
      <trkpt lat="45.891582202166319" lon="7.915214225649834">
        <ele>1743.97</ele>
        <time>2013-09-19T08:40:36Z</time>
      </trkpt>
      <trkpt lat="45.891630230471492" lon="7.915166784077883">
        <ele>1744.45</ele>
        <time>2013-09-19T08:40:43Z</time>
      </trkpt>
      <trkpt lat="45.891701728105545" lon="7.91517399251461">
        <ele>1745.8900000000001</ele>
        <time>2013-09-19T08:40:55Z</time>
      </trkpt>
      <trkpt lat="45.891712205484509" lon="7.915121437981725">
        <ele>1746.8499999999999</ele>
        <time>2013-09-19T08:41:05Z</time>
      </trkpt>
      <trkpt lat="45.891760485246778" lon="7.91509822010994">
        <ele>1748.78</ele>
        <time>2013-09-19T08:41:16Z</time>
      </trkpt>
      <trkpt lat="45.891786050051451" lon="7.915009623393416">
        <ele>1749.26</ele>
        <time>2013-09-19T08:41:27Z</time>
      </trkpt>
      <trkpt lat="45.891815302893519" lon="7.915005516260862">
        <ele>1750.22</ele>
        <time>2013-09-19T08:41:42Z</time>
      </trkpt>
      <trkpt lat="45.891868527978659" lon="7.914969054982066">
        <ele>1750.7</ele>
        <time>2013-09-19T08:41:55Z</time>
      </trkpt>
      <trkpt lat="45.891946060582995" lon="7.914930833503604">
        <ele>1751.6600000000001</ele>
        <time>2013-09-19T08:42:08Z</time>
      </trkpt>
      <trkpt lat="45.891979588195682" lon="7.914931755512953">
        <ele>1752.6199999999999</ele>
        <time>2013-09-19T08:42:21Z</time>
      </trkpt>
      <trkpt lat="45.892022252082825" lon="7.914835782721639">
        <ele>1754.0599999999999</ele>
        <time>2013-09-19T08:42:33Z</time>
      </trkpt>
      <trkpt lat="45.892043458297849" lon="7.914731847122312">
        <ele>1756.47</ele>
        <time>2013-09-19T08:42:48Z</time>
      </trkpt>
      <trkpt lat="45.892079500481486" lon="7.914581224322319">
        <ele>1757.9100000000001</ele>
        <time>2013-09-19T08:43:05Z</time>
      </trkpt>
      <trkpt lat="45.892127696424723" lon="7.914499836042523">
        <ele>1760.79</ele>
        <time>2013-09-19T08:43:19Z</time>
      </trkpt>
      <trkpt lat="45.892177065834403" lon="7.914560940116644">
        <ele>1764.1600000000001</ele>
        <time>2013-09-19T08:43:33Z</time>
      </trkpt>
      <trkpt lat="45.892214868217707" lon="7.9145304299891">
        <ele>1767.04</ele>
        <time>2013-09-19T08:43:47Z</time>
      </trkpt>
      <trkpt lat="45.892292987555265" lon="7.914573512971401">
        <ele>1770.4100000000001</ele>
        <time>2013-09-19T08:44:04Z</time>
      </trkpt>
      <trkpt lat="45.892338082194328" lon="7.914535459131002">
        <ele>1772.3299999999999</ele>
        <time>2013-09-19T08:44:16Z</time>
      </trkpt>
      <trkpt lat="45.892340429127216" lon="7.914511151611805">
        <ele>1772.3299999999999</ele>
        <time>2013-09-19T08:44:18Z</time>
      </trkpt>
      <trkpt lat="45.892382087185979" lon="7.914406294003129">
        <ele>1774.25</ele>
        <time>2013-09-19T08:44:29Z</time>
      </trkpt>
      <trkpt lat="45.89245836250484" lon="7.914394056424499">
        <ele>1775.6900000000001</ele>
        <time>2013-09-19T08:44:40Z</time>
      </trkpt>
      <trkpt lat="45.892510330304503" lon="7.914406461641192">
        <ele>1777.1300000000001</ele>
        <time>2013-09-19T08:44:52Z</time>
      </trkpt>
      <trkpt lat="45.892538912594318" lon="7.914432696998119">
        <ele>1777.6099999999999</ele>
        <time>2013-09-19T08:45:18Z</time>
      </trkpt>
      <trkpt lat="45.892547126859426" lon="7.914411742240191">
        <ele>1777.6099999999999</ele>
        <time>2013-09-19T08:45:22Z</time>
      </trkpt>
      <trkpt lat="45.892645865678787" lon="7.914358600974083">
        <ele>1777.1300000000001</ele>
        <time>2013-09-19T08:45:36Z</time>
      </trkpt>
      <trkpt lat="45.892770756036043" lon="7.914321385324001">
        <ele>1778.0999999999999</ele>
        <time>2013-09-19T08:45:50Z</time>
      </trkpt>
      <trkpt lat="45.892786681652069" lon="7.914315182715654">
        <ele>1778.0999999999999</ele>
        <time>2013-09-19T08:45:52Z</time>
      </trkpt>
      <trkpt lat="45.89286245405674" lon="7.914293892681599">
        <ele>1778.5799999999999</ele>
        <time>2013-09-19T08:46:03Z</time>
      </trkpt>
      <trkpt lat="45.892923474311829" lon="7.914260867983103">
        <ele>1779.0599999999999</ele>
        <time>2013-09-19T08:46:10Z</time>
      </trkpt>
      <trkpt lat="45.893018441274762" lon="7.914256174117327">
        <ele>1781.46</ele>
        <time>2013-09-19T08:46:24Z</time>
      </trkpt>
      <trkpt lat="45.893064374104142" lon="7.914328677579761">
        <ele>1783.8599999999999</ele>
        <time>2013-09-19T08:46:36Z</time>
      </trkpt>
      <trkpt lat="45.893122376874089" lon="7.914318535476923">
        <ele>1785.79</ele>
        <time>2013-09-19T08:46:49Z</time>
      </trkpt>
      <trkpt lat="45.893148109316826" lon="7.91431694291532">
        <ele>1785.79</ele>
        <time>2013-09-19T08:46:52Z</time>
      </trkpt>
      <trkpt lat="45.893232766538858" lon="7.914226753637195">
        <ele>1787.71</ele>
        <time>2013-09-19T08:47:06Z</time>
      </trkpt>
      <trkpt lat="45.893316250294447" lon="7.914213929325342">
        <ele>1789.1500000000001</ele>
        <time>2013-09-19T08:47:20Z</time>
      </trkpt>
      <trkpt lat="45.893338127061725" lon="7.914173947647214">
        <ele>1790.5899999999999</ele>
        <time>2013-09-19T08:47:26Z</time>
      </trkpt>
      <trkpt lat="45.893380371853709" lon="7.914127176627517">
        <ele>1791.0699999999999</ele>
        <time>2013-09-19T08:47:34Z</time>
      </trkpt>
      <trkpt lat="45.893434686586261" lon="7.91405500844121">
        <ele>1791.55</ele>
        <time>2013-09-19T08:47:48Z</time>
      </trkpt>
      <trkpt lat="45.893447510898113" lon="7.913954928517342">
        <ele>1793</ele>
        <time>2013-09-19T08:48:02Z</time>
      </trkpt>
      <trkpt lat="45.893495790660381" lon="7.913901703432202">
        <ele>1795.8800000000001</ele>
        <time>2013-09-19T08:48:15Z</time>
      </trkpt>
      <trkpt lat="45.893550273030996" lon="7.913869936019182">
        <ele>1797.8</ele>
        <time>2013-09-19T08:48:30Z</time>
      </trkpt>
      <trkpt lat="45.893618250265718" lon="7.913850070908666">
        <ele>1800.6900000000001</ele>
        <time>2013-09-19T08:48:46Z</time>
      </trkpt>
      <trkpt lat="45.893680192530155" lon="7.913878485560417">
        <ele>1800.6900000000001</ele>
        <time>2013-09-19T08:49:09Z</time>
      </trkpt>
      <trkpt lat="45.89380550198257" lon="7.913848897442222">
        <ele>1801.6500000000001</ele>
        <time>2013-09-19T08:49:24Z</time>
      </trkpt>
      <trkpt lat="45.893828552216291" lon="7.913806401193142">
        <ele>1802.1300000000001</ele>
        <time>2013-09-19T08:49:39Z</time>
      </trkpt>
      <trkpt lat="45.893908264115453" lon="7.913769269362092">
        <ele>1803.5699999999999</ele>
        <time>2013-09-19T08:49:51Z</time>
      </trkpt>
      <trkpt lat="45.893972385674715" lon="7.913696765899658">
        <ele>1805.01</ele>
        <time>2013-09-19T08:50:02Z</time>
      </trkpt>
      <trkpt lat="45.893983701243997" lon="7.9136479832232">
        <ele>1806.45</ele>
        <time>2013-09-19T08:50:15Z</time>
      </trkpt>
      <trkpt lat="45.894031226634979" lon="7.913561146706343">
        <ele>1807.4200000000001</ele>
        <time>2013-09-19T08:50:29Z</time>
      </trkpt>
      <trkpt lat="45.894063580781221" lon="7.91351999156177">
        <ele>1809.3399999999999</ele>
        <time>2013-09-19T08:50:40Z</time>
      </trkpt>
      <trkpt lat="45.894105909392238" lon="7.913424437865615">
        <ele>1809.8199999999999</ele>
        <time>2013-09-19T08:50:55Z</time>
      </trkpt>
      <trkpt lat="45.894113117828965" lon="7.913416558876634">
        <ele>1809.8199999999999</ele>
        <time>2013-09-19T08:50:56Z</time>
      </trkpt>
      <trkpt lat="45.894146058708429" lon="7.913301140069962">
        <ele>1810.3</ele>
        <time>2013-09-19T08:51:09Z</time>
      </trkpt>
      <trkpt lat="45.894179753959179" lon="7.913281442597508">
        <ele>1811.26</ele>
        <time>2013-09-19T08:51:19Z</time>
      </trkpt>
      <trkpt lat="45.89421059936285" lon="7.913185469806194">
        <ele>1814.1500000000001</ele>
        <time>2013-09-19T08:51:33Z</time>
      </trkpt>
      <trkpt lat="45.894256951287389" lon="7.913095112890005">
        <ele>1816.0699999999999</ele>
        <time>2013-09-19T08:51:48Z</time>
      </trkpt>
      <trkpt lat="45.89428972452879" lon="7.913097459822893">
        <ele>1816.0699999999999</ele>
        <time>2013-09-19T08:51:55Z</time>
      </trkpt>
      <trkpt lat="45.894324509426951" lon="7.913110284134746">
        <ele>1816.0699999999999</ele>
        <time>2013-09-19T08:51:59Z</time>
      </trkpt>
      <trkpt lat="45.894384775310755" lon="7.913158647716045">
        <ele>1817.03</ele>
        <time>2013-09-19T08:52:07Z</time>
      </trkpt>
      <trkpt lat="45.894460463896394" lon="7.913089077919722">
        <ele>1818.47</ele>
        <time>2013-09-19T08:52:21Z</time>
      </trkpt>
      <trkpt lat="45.894466666504741" lon="7.91300886310637">
        <ele>1819.9100000000001</ele>
        <time>2013-09-19T08:52:32Z</time>
      </trkpt>
      <trkpt lat="45.894500026479363" lon="7.912928815931082">
        <ele>1821.3499999999999</ele>
        <time>2013-09-19T08:52:44Z</time>
      </trkpt>
      <trkpt lat="45.894569177180529" lon="7.9128622636199">
        <ele>1822.8</ele>
        <time>2013-09-19T08:52:57Z</time>
      </trkpt>
      <trkpt lat="45.894613349810243" lon="7.912833848968148">
        <ele>1824.72</ele>
        <time>2013-09-19T08:53:09Z</time>
      </trkpt>
      <trkpt lat="45.894641848281026" lon="7.912789676338434">
        <ele>1826.1600000000001</ele>
        <time>2013-09-19T08:53:17Z</time>
      </trkpt>
      <trkpt lat="45.894756261259317" lon="7.912804847583175">
        <ele>1826.6400000000001</ele>
        <time>2013-09-19T08:53:29Z</time>
      </trkpt>
      <trkpt lat="45.894828345626593" lon="7.91279872879386">
        <ele>1827.5999999999999</ele>
        <time>2013-09-19T08:53:41Z</time>
      </trkpt>
      <trkpt lat="45.894860280677676" lon="7.91274206712842">
        <ele>1828.5599999999999</ele>
        <time>2013-09-19T08:53:48Z</time>
      </trkpt>
      <trkpt lat="45.894918367266655" lon="7.912651291117072">
        <ele>1830.01</ele>
        <time>2013-09-19T08:54:00Z</time>
      </trkpt>
      <trkpt lat="45.894902357831597" lon="7.912605023011565">
        <ele>1831.45</ele>
        <time>2013-09-19T08:54:14Z</time>
      </trkpt>
      <trkpt lat="45.894908476620913" lon="7.91253050789237">
        <ele>1831.9300000000001</ele>
        <time>2013-09-19T08:54:36Z</time>
      </trkpt>
      <trkpt lat="45.894941836595535" lon="7.912461273372173">
        <ele>1833.3699999999999</ele>
        <time>2013-09-19T08:54:50Z</time>
      </trkpt>
      <trkpt lat="45.89495818130672" lon="7.912365971133113">
        <ele>1834.3299999999999</ele>
        <time>2013-09-19T08:55:03Z</time>
      </trkpt>
      <trkpt lat="45.895004784688354" lon="7.912278631702066">
        <ele>1837.22</ele>
        <time>2013-09-19T08:55:16Z</time>
      </trkpt>
      <trkpt lat="45.895000761374831" lon="7.912232195958495">
        <ele>1840.0999999999999</ele>
        <time>2013-09-19T08:55:28Z</time>
      </trkpt>
      <trkpt lat="45.894981734454632" lon="7.912205625325441">
        <ele>1841.54</ele>
        <time>2013-09-19T08:55:32Z</time>
      </trkpt>
      <trkpt lat="45.895018698647618" lon="7.912116693332791">
        <ele>1842.5</ele>
        <time>2013-09-19T08:55:46Z</time>
      </trkpt>
      <trkpt lat="45.895063541829586" lon="7.912062630057335">
        <ele>1842.98</ele>
        <time>2013-09-19T08:55:59Z</time>
      </trkpt>
      <trkpt lat="45.895122718065977" lon="7.912029605358839">
        <ele>1842.5</ele>
        <time>2013-09-19T08:56:09Z</time>
      </trkpt>
      <trkpt lat="45.89521324262023" lon="7.911921394988895">
        <ele>1844.9100000000001</ele>
        <time>2013-09-19T08:56:28Z</time>
      </trkpt>
      <trkpt lat="45.895303599536419" lon="7.911889208480716">
        <ele>1847.3099999999999</ele>
        <time>2013-09-19T08:56:44Z</time>
      </trkpt>
      <trkpt lat="45.8953114785254" lon="7.911764737218618">
        <ele>1849.23</ele>
        <time>2013-09-19T08:56:59Z</time>
      </trkpt>
      <trkpt lat="45.895360428839922" lon="7.911743363365531">
        <ele>1850.6800000000001</ele>
        <time>2013-09-19T08:57:11Z</time>
      </trkpt>
      <trkpt lat="45.895412312820554" lon="7.911691144108772">
        <ele>1851.6400000000001</ele>
        <time>2013-09-19T08:57:22Z</time>
      </trkpt>
      <trkpt lat="45.895454892888665" lon="7.911678990349174">
        <ele>1853.0799999999999</ele>
        <time>2013-09-19T08:57:33Z</time>
      </trkpt>
      <trkpt lat="45.895496970042586" lon="7.911671278998256">
        <ele>1854.52</ele>
        <time>2013-09-19T08:57:46Z</time>
      </trkpt>
      <trkpt lat="45.895502585917711" lon="7.91168125346303">
        <ele>1854.52</ele>
        <time>2013-09-19T08:58:02Z</time>
      </trkpt>
      <trkpt lat="45.895518595352769" lon="7.911674464121461">
        <ele>1854.52</ele>
        <time>2013-09-19T08:58:11Z</time>
      </trkpt>
      <trkpt lat="45.895618172362447" lon="7.911591650918126">
        <ele>1855</ele>
        <time>2013-09-19T08:58:23Z</time>
      </trkpt>
      <trkpt lat="45.895635690540075" lon="7.911489056423307">
        <ele>1855.96</ele>
        <time>2013-09-19T08:58:32Z</time>
      </trkpt>
      <trkpt lat="45.895627643913031" lon="7.911447733640671">
        <ele>1856.4400000000001</ele>
        <time>2013-09-19T08:58:35Z</time>
      </trkpt>
      <trkpt lat="45.895658992230892" lon="7.911380426958203">
        <ele>1855.48</ele>
        <time>2013-09-19T08:58:47Z</time>
      </trkpt>
      <trkpt lat="45.895644994452596" lon="7.911372631788254">
        <ele>1856.4400000000001</ele>
        <time>2013-09-19T08:59:08Z</time>
      </trkpt>
      <trkpt lat="45.895622950047255" lon="7.91131722740829">
        <ele>1856.9200000000001</ele>
        <time>2013-09-19T08:59:23Z</time>
      </trkpt>
      <trkpt lat="45.895685227587819" lon="7.911256207153201">
        <ele>1859.8099999999999</ele>
        <time>2013-09-19T08:59:36Z</time>
      </trkpt>
      <trkpt lat="45.89570190757513" lon="7.911229887977243">
        <ele>1860.29</ele>
        <time>2013-09-19T08:59:52Z</time>
      </trkpt>
      <trkpt lat="45.895720599219203" lon="7.911235587671399">
        <ele>1860.77</ele>
        <time>2013-09-19T09:00:05Z</time>
      </trkpt>
      <trkpt lat="45.895714228972793" lon="7.911234330385923">
        <ele>1860.77</ele>
        <time>2013-09-19T09:00:22Z</time>
      </trkpt>
      <trkpt lat="45.895705679431558" lon="7.911210106685758">
        <ele>1860.29</ele>
        <time>2013-09-19T09:00:42Z</time>
      </trkpt>
      <trkpt lat="45.895708361640573" lon="7.911204323172569">
        <ele>1860.77</ele>
        <time>2013-09-19T09:01:05Z</time>
      </trkpt>
      <trkpt lat="45.895754713565111" lon="7.91124053299427">
        <ele>1860.77</ele>
        <time>2013-09-19T09:01:30Z</time>
      </trkpt>
      <trkpt lat="45.895724706351757" lon="7.911234414204955">
        <ele>1860.77</ele>
        <time>2013-09-19T09:01:51Z</time>
      </trkpt>
      <trkpt lat="45.895728310570121" lon="7.911255368962884">
        <ele>1861.25</ele>
        <time>2013-09-19T09:02:14Z</time>
      </trkpt>
      <trkpt lat="45.895711714401841" lon="7.911257380619645">
        <ele>1860.77</ele>
        <time>2013-09-19T09:02:32Z</time>
      </trkpt>
      <trkpt lat="45.895707691088319" lon="7.911296440288425">
        <ele>1861.25</ele>
        <time>2013-09-19T09:02:51Z</time>
      </trkpt>
      <trkpt lat="45.895690005272627" lon="7.911311946809292">
        <ele>1861.25</ele>
        <time>2013-09-19T09:03:10Z</time>
      </trkpt>
      <trkpt lat="45.895644742995501" lon="7.91132259182632">
        <ele>1861.25</ele>
        <time>2013-09-19T09:03:37Z</time>
      </trkpt>
      <trkpt lat="45.895623452961445" lon="7.911296105012298">
        <ele>1861.25</ele>
        <time>2013-09-19T09:04:02Z</time>
      </trkpt>
      <trkpt lat="45.895722610875964" lon="7.911309851333499">
        <ele>1861.73</ele>
        <time>2013-09-19T09:04:34Z</time>
      </trkpt>
      <trkpt lat="45.895711127668619" lon="7.911329045891762">
        <ele>1861.73</ele>
        <time>2013-09-19T09:05:03Z</time>
      </trkpt>
      <trkpt lat="45.895679695531726" lon="7.911332817748189">
        <ele>1862.21</ele>
        <time>2013-09-19T09:05:31Z</time>
      </trkpt>
      <trkpt lat="45.8956637699157" lon="7.911338349804282">
        <ele>1862.6900000000001</ele>
        <time>2013-09-19T09:06:05Z</time>
      </trkpt>
      <trkpt lat="45.89572093449533" lon="7.911276072263718">
        <ele>1862.6900000000001</ele>
        <time>2013-09-19T09:06:26Z</time>
      </trkpt>
      <trkpt lat="45.89577223174274" lon="7.911238772794604">
        <ele>1862.6900000000001</ele>
        <time>2013-09-19T09:06:53Z</time>
      </trkpt>
      <trkpt lat="45.895785642787814" lon="7.911283364519477">
        <ele>1862.6900000000001</ele>
        <time>2013-09-19T09:07:22Z</time>
      </trkpt>
      <trkpt lat="45.895696375519037" lon="7.91124539449811">
        <ele>1863.6500000000001</ele>
        <time>2013-09-19T09:07:55Z</time>
      </trkpt>
      <trkpt lat="45.895739542320371" lon="7.911231061443687">
        <ele>1863.1700000000001</ele>
        <time>2013-09-19T09:08:13Z</time>
      </trkpt>
      <trkpt lat="45.895763598382473" lon="7.911253441125155">
        <ele>1863.1700000000001</ele>
        <time>2013-09-19T09:08:35Z</time>
      </trkpt>
      <trkpt lat="45.895711211487651" lon="7.911205664277077">
        <ele>1863.1700000000001</ele>
        <time>2013-09-19T09:09:01Z</time>
      </trkpt>
      <trkpt lat="45.895666033029556" lon="7.911204490810633">
        <ele>1863.6500000000001</ele>
        <time>2013-09-19T09:09:20Z</time>
      </trkpt>
      <trkpt lat="45.895653376355767" lon="7.911230055615306">
        <ele>1863.1700000000001</ele>
        <time>2013-09-19T09:09:50Z</time>
      </trkpt>
      <trkpt lat="45.895698387175798" lon="7.91123709641397">
        <ele>1863.6500000000001</ele>
        <time>2013-09-19T09:10:11Z</time>
      </trkpt>
      <trkpt lat="45.895718839019537" lon="7.911230809986591">
        <ele>1863.1700000000001</ele>
        <time>2013-09-19T09:10:39Z</time>
      </trkpt>
      <trkpt lat="45.895728897303343" lon="7.911255452781916">
        <ele>1863.6500000000001</ele>
        <time>2013-09-19T09:10:55Z</time>
      </trkpt>
      <trkpt lat="45.895714648067951" lon="7.911261320114136">
        <ele>1863.6500000000001</ele>
        <time>2013-09-19T09:11:13Z</time>
      </trkpt>
      <trkpt lat="45.895700063556433" lon="7.911258554086089">
        <ele>1863.1700000000001</ele>
        <time>2013-09-19T09:11:33Z</time>
      </trkpt>
      <trkpt lat="45.895662931725383" lon="7.911251010373235">
        <ele>1863.1700000000001</ele>
        <time>2013-09-19T09:11:56Z</time>
      </trkpt>
      <trkpt lat="45.89567550458014" lon="7.911240449175239">
        <ele>1863.6500000000001</ele>
        <time>2013-09-19T09:12:24Z</time>
      </trkpt>
      <trkpt lat="45.89567743241787" lon="7.911249669268727">
        <ele>1863.1700000000001</ele>
        <time>2013-09-19T09:12:40Z</time>
      </trkpt>
      <trkpt lat="45.895665781572461" lon="7.911266768351197">
        <ele>1863.1700000000001</ele>
        <time>2013-09-19T09:12:55Z</time>
      </trkpt>
      <trkpt lat="45.89563300833106" lon="7.911272216588259">
        <ele>1863.6500000000001</ele>
        <time>2013-09-19T09:13:19Z</time>
      </trkpt>
      <trkpt lat="45.895626051351428" lon="7.911269450560212">
        <ele>1863.6500000000001</ele>
        <time>2013-09-19T09:13:40Z</time>
      </trkpt>
      <trkpt lat="45.89563887566328" lon="7.911244472488761">
        <ele>1863.6500000000001</ele>
        <time>2013-09-19T09:14:01Z</time>
      </trkpt>
      <trkpt lat="45.895631583407521" lon="7.911242460832">
        <ele>1864.1300000000001</ele>
        <time>2013-09-19T09:14:23Z</time>
      </trkpt>
      <trkpt lat="45.895667122676969" lon="7.911266600713134">
        <ele>1864.1300000000001</ele>
        <time>2013-09-19T09:14:41Z</time>
      </trkpt>
      <trkpt lat="45.895661255344748" lon="7.911272384226322">
        <ele>1864.1300000000001</ele>
        <time>2013-09-19T09:15:04Z</time>
      </trkpt>
      <trkpt lat="45.895616579800844" lon="7.91130498982966">
        <ele>1863.6500000000001</ele>
        <time>2013-09-19T09:15:24Z</time>
      </trkpt>
      <trkpt lat="45.895589757710695" lon="7.911293171346188">
        <ele>1863.6500000000001</ele>
        <time>2013-09-19T09:15:40Z</time>
      </trkpt>
      <trkpt lat="45.895664859563112" lon="7.911260733380914">
        <ele>1865.5799999999999</ele>
        <time>2013-09-19T09:15:56Z</time>
      </trkpt>
      <trkpt lat="45.89579276740551" lon="7.911269869655371">
        <ele>1866.54</ele>
        <time>2013-09-19T09:16:09Z</time>
      </trkpt>
      <trkpt lat="45.895859319716692" lon="7.911235922947526">
        <ele>1868.46</ele>
        <time>2013-09-19T09:16:23Z</time>
      </trkpt>
      <trkpt lat="45.895939115434885" lon="7.911143135279417">
        <ele>1870.3800000000001</ele>
        <time>2013-09-19T09:16:42Z</time>
      </trkpt>
      <trkpt lat="45.89597599580884" lon="7.911128718405962">
        <ele>1871.8199999999999</ele>
        <time>2013-09-19T09:16:53Z</time>
      </trkpt>
      <trkpt lat="45.895980019122362" lon="7.91112570092082">
        <ele>1872.3</ele>
        <time>2013-09-19T09:17:07Z</time>
      </trkpt>
      <trkpt lat="45.895979180932045" lon="7.911138609051704">
        <ele>1873.27</ele>
        <time>2013-09-19T09:17:26Z</time>
      </trkpt>
      <trkpt lat="45.895977504551411" lon="7.91113056242466">
        <ele>1874.71</ele>
        <time>2013-09-19T09:17:41Z</time>
      </trkpt>
      <trkpt lat="45.896025449037552" lon="7.911127712577581">
        <ele>1878.0699999999999</ele>
        <time>2013-09-19T09:17:53Z</time>
      </trkpt>
      <trkpt lat="45.896036848425865" lon="7.911126203835011">
        <ele>1879.03</ele>
        <time>2013-09-19T09:18:03Z</time>
      </trkpt>
      <trkpt lat="45.896100383251905" lon="7.911154786124826">
        <ele>1880.96</ele>
        <time>2013-09-19T09:18:15Z</time>
      </trkpt>
      <trkpt lat="45.896129216998816" lon="7.911097202450037">
        <ele>1882.8800000000001</ele>
        <time>2013-09-19T09:18:28Z</time>
      </trkpt>
      <trkpt lat="45.896172383800149" lon="7.911105332896113">
        <ele>1884.8</ele>
        <time>2013-09-19T09:18:41Z</time>
      </trkpt>
      <trkpt lat="45.896204235032201" lon="7.91104263626039">
        <ele>1887.21</ele>
        <time>2013-09-19T09:18:56Z</time>
      </trkpt>
      <trkpt lat="45.89615092612803" lon="7.910974826663733">
        <ele>1888.6500000000001</ele>
        <time>2013-09-19T09:19:10Z</time>
      </trkpt>
      <trkpt lat="45.896165929734707" lon="7.910883380100131">
        <ele>1890.0899999999999</ele>
        <time>2013-09-19T09:19:24Z</time>
      </trkpt>
      <trkpt lat="45.896167941391468" lon="7.910808529704809">
        <ele>1891.53</ele>
        <time>2013-09-19T09:19:37Z</time>
      </trkpt>
      <trkpt lat="45.89619342237711" lon="7.910776343196631">
        <ele>1893.45</ele>
        <time>2013-09-19T09:19:48Z</time>
      </trkpt>
      <trkpt lat="45.896251006051898" lon="7.910785982385278">
        <ele>1895.3800000000001</ele>
        <time>2013-09-19T09:20:01Z</time>
      </trkpt>
      <trkpt lat="45.896269697695971" lon="7.910756897181273">
        <ele>1895.3800000000001</ele>
        <time>2013-09-19T09:20:22Z</time>
      </trkpt>
      <trkpt lat="45.896318815648556" lon="7.910765865817666">
        <ele>1897.78</ele>
        <time>2013-09-19T09:20:33Z</time>
      </trkpt>
      <trkpt lat="45.896342536434531" lon="7.910823868587613">
        <ele>1898.74</ele>
        <time>2013-09-19T09:20:48Z</time>
      </trkpt>
      <trkpt lat="45.896403975784779" lon="7.910739546641707">
        <ele>1902.1099999999999</ele>
        <time>2013-09-19T09:21:01Z</time>
      </trkpt>
      <trkpt lat="45.896401628851891" lon="7.910747174173594">
        <ele>1901.6300000000001</ele>
        <time>2013-09-19T09:21:24Z</time>
      </trkpt>
      <trkpt lat="45.896458374336362" lon="7.910850439220667">
        <ele>1903.55</ele>
        <time>2013-09-19T09:21:51Z</time>
      </trkpt>
      <trkpt lat="45.896509503945708" lon="7.910865442827344">
        <ele>1905.95</ele>
        <time>2013-09-19T09:22:03Z</time>
      </trkpt>
      <trkpt lat="45.896547641605139" lon="7.910741725936532">
        <ele>1908.8299999999999</ele>
        <time>2013-09-19T09:22:18Z</time>
      </trkpt>
      <trkpt lat="45.896603632718325" lon="7.910680957138538">
        <ele>1912.2</ele>
        <time>2013-09-19T09:22:30Z</time>
      </trkpt>
      <trkpt lat="45.896727181971073" lon="7.910683052614331">
        <ele>1913.6400000000001</ele>
        <time>2013-09-19T09:22:46Z</time>
      </trkpt>
      <trkpt lat="45.89684528298676" lon="7.910609794780612">
        <ele>1916.53</ele>
        <time>2013-09-19T09:23:04Z</time>
      </trkpt>
      <trkpt lat="45.896845953539014" lon="7.910534357652068">
        <ele>1917.01</ele>
        <time>2013-09-19T09:23:09Z</time>
      </trkpt>
      <trkpt lat="45.896895909681916" lon="7.910277536138892">
        <ele>1918.45</ele>
        <time>2013-09-19T09:23:27Z</time>
      </trkpt>
      <trkpt lat="45.896998336538672" lon="7.910267058759928">
        <ele>1920.8499999999999</ele>
        <time>2013-09-19T09:23:41Z</time>
      </trkpt>
      <trkpt lat="45.897010238841176" lon="7.910207882523537">
        <ele>1921.8099999999999</ele>
        <time>2013-09-19T09:23:49Z</time>
      </trkpt>
      <trkpt lat="45.897029684856534" lon="7.910176450386643">
        <ele>1921.8099999999999</ele>
        <time>2013-09-19T09:23:53Z</time>
      </trkpt>
      <trkpt lat="45.897082490846515" lon="7.910115597769618">
        <ele>1923.74</ele>
        <time>2013-09-19T09:24:06Z</time>
      </trkpt>
      <trkpt lat="45.897139739245176" lon="7.910106377676129">
        <ele>1925.1800000000001</ele>
        <time>2013-09-19T09:24:18Z</time>
      </trkpt>
      <trkpt lat="45.897212661802769" lon="7.910145437344909">
        <ele>1927.0999999999999</ele>
        <time>2013-09-19T09:24:32Z</time>
      </trkpt>
      <trkpt lat="45.897272424772382" lon="7.910116352140904">
        <ele>1929.02</ele>
        <time>2013-09-19T09:24:46Z</time>
      </trkpt>
      <trkpt lat="45.897330427542329" lon="7.910042423754931">
        <ele>1929.98</ele>
        <time>2013-09-19T09:24:59Z</time>
      </trkpt>
      <trkpt lat="45.897332103922963" lon="7.909989533945918">
        <ele>1930.95</ele>
        <time>2013-09-19T09:25:07Z</time>
      </trkpt>
      <trkpt lat="45.897316345945001" lon="7.909871516749263">
        <ele>1931.9100000000001</ele>
        <time>2013-09-19T09:25:23Z</time>
      </trkpt>
      <trkpt lat="45.897352304309607" lon="7.909816950559616">
        <ele>1933.3499999999999</ele>
        <time>2013-09-19T09:25:36Z</time>
      </trkpt>
      <trkpt lat="45.897413827478886" lon="7.909747799858451">
        <ele>1936.23</ele>
        <time>2013-09-19T09:25:52Z</time>
      </trkpt>
      <trkpt lat="45.897498652338982" lon="7.909801779314876">
        <ele>1938.6400000000001</ele>
        <time>2013-09-19T09:26:07Z</time>
      </trkpt>
      <trkpt lat="45.897570820525289" lon="7.909846371039748">
        <ele>1940.0799999999999</ele>
        <time>2013-09-19T09:26:22Z</time>
      </trkpt>
      <trkpt lat="45.897620357573032" lon="7.909847209230065">
        <ele>1941.52</ele>
        <time>2013-09-19T09:26:36Z</time>
      </trkpt>
      <trkpt lat="45.897638211026788" lon="7.909765737131238">
        <ele>1942.96</ele>
        <time>2013-09-19T09:26:49Z</time>
      </trkpt>
      <trkpt lat="45.897686071693897" lon="7.909738663583994">
        <ele>1945.3599999999999</ele>
        <time>2013-09-19T09:27:06Z</time>
      </trkpt>
      <trkpt lat="45.897711804136634" lon="7.909671356901527">
        <ele>1947.77</ele>
        <time>2013-09-19T09:27:22Z</time>
      </trkpt>
      <trkpt lat="45.89776586741209" lon="7.909659454599023">
        <ele>1948.73</ele>
        <time>2013-09-19T09:27:38Z</time>
      </trkpt>
      <trkpt lat="45.897793527692556" lon="7.909632381051779">
        <ele>1950.6500000000001</ele>
        <time>2013-09-19T09:27:50Z</time>
      </trkpt>
      <trkpt lat="45.897838454693556" lon="7.909593740478158">
        <ele>1952.0899999999999</ele>
        <time>2013-09-19T09:28:01Z</time>
      </trkpt>
      <trkpt lat="45.897891595959663" lon="7.9095708578825">
        <ele>1954.02</ele>
        <time>2013-09-19T09:28:14Z</time>
      </trkpt>
      <trkpt lat="45.897904168814421" lon="7.909586532041431">
        <ele>1954.02</ele>
        <time>2013-09-19T09:28:16Z</time>
      </trkpt>
      <trkpt lat="45.897930236533284" lon="7.909627603366971">
        <ele>1954.5</ele>
        <time>2013-09-19T09:28:19Z</time>
      </trkpt>
      <trkpt lat="45.898018078878522" lon="7.909652246162295">
        <ele>1955.9400000000001</ele>
        <time>2013-09-19T09:28:33Z</time>
      </trkpt>
      <trkpt lat="45.898012798279524" lon="7.909616287797689">
        <ele>1955.46</ele>
        <time>2013-09-19T09:28:48Z</time>
      </trkpt>
      <trkpt lat="45.898027969524264" lon="7.909547388553619">
        <ele>1957.8599999999999</ele>
        <time>2013-09-19T09:29:07Z</time>
      </trkpt>
      <trkpt lat="45.898073483258486" lon="7.90947706438601">
        <ele>1960.75</ele>
        <time>2013-09-19T09:29:20Z</time>
      </trkpt>
      <trkpt lat="45.898090498521924" lon="7.909480584785342">
        <ele>1961.23</ele>
        <time>2013-09-19T09:29:23Z</time>
      </trkpt>
      <trkpt lat="45.89817188680172" lon="7.909484943374991">
        <ele>1963.1500000000001</ele>
        <time>2013-09-19T09:29:37Z</time>
      </trkpt>
      <trkpt lat="45.898209773004055" lon="7.909474214538932">
        <ele>1963.6300000000001</ele>
        <time>2013-09-19T09:29:42Z</time>
      </trkpt>
      <trkpt lat="45.898318234831095" lon="7.90946289896965">
        <ele>1966.03</ele>
        <time>2013-09-19T09:29:58Z</time>
      </trkpt>
      <trkpt lat="45.898368861526251" lon="7.909452170133591">
        <ele>1967.48</ele>
        <time>2013-09-19T09:30:13Z</time>
      </trkpt>
      <trkpt lat="45.89840205386281" lon="7.909368602558971">
        <ele>1969.4000000000001</ele>
        <time>2013-09-19T09:30:30Z</time>
      </trkpt>
      <trkpt lat="45.898463157936931" lon="7.909370781853795">
        <ele>1970.8399999999999</ele>
        <time>2013-09-19T09:30:44Z</time>
      </trkpt>
      <trkpt lat="45.898476904258132" lon="7.90938276797533">
        <ele>1971.3199999999999</ele>
        <time>2013-09-19T09:31:22Z</time>
      </trkpt>
      <trkpt lat="45.89854278601706" lon="7.909233486279845">
        <ele>1974.2</ele>
        <time>2013-09-19T09:31:38Z</time>
      </trkpt>
      <trkpt lat="45.898592825978994" lon="7.909218650311232">
        <ele>1975.6500000000001</ele>
        <time>2013-09-19T09:31:53Z</time>
      </trkpt>
      <trkpt lat="45.898592406883836" lon="7.909220410510898">
        <ele>1975.6500000000001</ele>
        <time>2013-09-19T09:31:59Z</time>
      </trkpt>
      <trkpt lat="45.898674633353949" lon="7.909182189032435">
        <ele>1978.53</ele>
        <time>2013-09-19T09:32:13Z</time>
      </trkpt>
      <trkpt lat="45.898759122937918" lon="7.909141620621085">
        <ele>1981.9000000000001</ele>
        <time>2013-09-19T09:32:26Z</time>
      </trkpt>
      <trkpt lat="45.898843696340919" lon="7.909066267311573">
        <ele>1984.3</ele>
        <time>2013-09-19T09:32:40Z</time>
      </trkpt>
      <trkpt lat="45.898875379934907" lon="7.909101136028767">
        <ele>1984.78</ele>
        <time>2013-09-19T09:32:44Z</time>
      </trkpt>
      <trkpt lat="45.89891804382205" lon="7.909086467698216">
        <ele>1986.7</ele>
        <time>2013-09-19T09:32:57Z</time>
      </trkpt>
      <trkpt lat="45.89889214374125" lon="7.909052520990372">
        <ele>1987.1800000000001</ele>
        <time>2013-09-19T09:33:02Z</time>
      </trkpt>
      <trkpt lat="45.898923156782985" lon="7.909054951742292">
        <ele>1990.0699999999999</ele>
        <time>2013-09-19T09:33:13Z</time>
      </trkpt>
      <trkpt lat="45.898882001638412" lon="7.909069871529937">
        <ele>1988.6199999999999</ele>
        <time>2013-09-19T09:33:26Z</time>
      </trkpt>
      <trkpt lat="45.898867668583989" lon="7.909111445769668">
        <ele>1989.0999999999999</ele>
        <time>2013-09-19T09:33:58Z</time>
      </trkpt>
      <trkpt lat="45.898893149569631" lon="7.90905830450356">
        <ele>1990.0699999999999</ele>
        <time>2013-09-19T09:34:17Z</time>
      </trkpt>
      <trkpt lat="45.898936400189996" lon="7.909029638394713">
        <ele>1991.03</ele>
        <time>2013-09-19T09:34:28Z</time>
      </trkpt>
      <trkpt lat="45.898979231715202" lon="7.909030392765999">
        <ele>1991.99</ele>
        <time>2013-09-19T09:34:33Z</time>
      </trkpt>
      <trkpt lat="45.899029858410358" lon="7.909097950905561">
        <ele>1993.4300000000001</ele>
        <time>2013-09-19T09:34:39Z</time>
      </trkpt>
      <trkpt lat="45.899030612781644" lon="7.909047156572342">
        <ele>1993.9100000000001</ele>
        <time>2013-09-19T09:34:45Z</time>
      </trkpt>
      <trkpt lat="45.899094315245748" lon="7.9089630022645">
        <ele>1996.3199999999999</ele>
        <time>2013-09-19T09:34:57Z</time>
      </trkpt>
      <trkpt lat="45.899157347157598" lon="7.908896952867508">
        <ele>1999.6800000000001</ele>
        <time>2013-09-19T09:35:09Z</time>
      </trkpt>
      <trkpt lat="45.899225492030382" lon="7.908858144655824">
        <ele>2002.5599999999999</ele>
        <time>2013-09-19T09:35:24Z</time>
      </trkpt>
      <trkpt lat="45.899290619418025" lon="7.908889325335622">
        <ele>2004.49</ele>
        <time>2013-09-19T09:35:38Z</time>
      </trkpt>
      <trkpt lat="45.899317022413015" lon="7.908903490751982">
        <ele>2005.9300000000001</ele>
        <time>2013-09-19T09:35:49Z</time>
      </trkpt>
      <trkpt lat="45.899380473420024" lon="7.908842638134956">
        <ele>2008.8099999999999</ele>
        <time>2013-09-19T09:36:00Z</time>
      </trkpt>
      <trkpt lat="45.899421377107501" lon="7.908777091652155">
        <ele>2010.25</ele>
        <time>2013-09-19T09:36:14Z</time>
      </trkpt>
      <trkpt lat="45.899456162005663" lon="7.908746581524611">
        <ele>2010.73</ele>
        <time>2013-09-19T09:36:35Z</time>
      </trkpt>
      <trkpt lat="45.89952640235424" lon="7.908671731129289">
        <ele>2013.6199999999999</ele>
        <time>2013-09-19T09:36:50Z</time>
      </trkpt>
      <trkpt lat="45.899554984644055" lon="7.908659828826785">
        <ele>2014.5799999999999</ele>
        <time>2013-09-19T09:37:03Z</time>
      </trkpt>
      <trkpt lat="45.899612316861749" lon="7.908630575984716">
        <ele>2016.02</ele>
        <time>2013-09-19T09:37:19Z</time>
      </trkpt>
      <trkpt lat="45.899679623544216" lon="7.908683465793729">
        <ele>2018.4300000000001</ele>
        <time>2013-09-19T09:37:30Z</time>
      </trkpt>
      <trkpt lat="45.899722119793296" lon="7.908682459965348">
        <ele>2019.8699999999999</ele>
        <time>2013-09-19T09:37:41Z</time>
      </trkpt>
      <trkpt lat="45.899721113964915" lon="7.908677682280541">
        <ele>2019.8699999999999</ele>
        <time>2013-09-19T09:37:56Z</time>
      </trkpt>
      <trkpt lat="45.899765118956566" lon="7.908694865182042">
        <ele>2021.3099999999999</ele>
        <time>2013-09-19T09:38:10Z</time>
      </trkpt>
      <trkpt lat="45.899791605770588" lon="7.908599060028791">
        <ele>2022.27</ele>
        <time>2013-09-19T09:38:25Z</time>
      </trkpt>
      <trkpt lat="45.899852961301804" lon="7.908560670912266">
        <ele>2025.1500000000001</ele>
        <time>2013-09-19T09:38:40Z</time>
      </trkpt>
      <trkpt lat="45.899885399267077" lon="7.908521862700582">
        <ele>2027.0799999999999</ele>
        <time>2013-09-19T09:38:53Z</time>
      </trkpt>
      <trkpt lat="45.899885818362236" lon="7.908514654263854">
        <ele>2027.0799999999999</ele>
        <time>2013-09-19T09:38:54Z</time>
      </trkpt>
      <trkpt lat="45.89990065433085" lon="7.908521946519613">
        <ele>2028.04</ele>
        <time>2013-09-19T09:39:10Z</time>
      </trkpt>
      <trkpt lat="45.899908868595958" lon="7.908440642058849">
        <ele>2029.48</ele>
        <time>2013-09-19T09:39:26Z</time>
      </trkpt>
      <trkpt lat="45.899987826123834" lon="7.908480456098914">
        <ele>2030.9200000000001</ele>
        <time>2013-09-19T09:39:40Z</time>
      </trkpt>
      <trkpt lat="45.900045074522495" lon="7.908449191600084">
        <ele>2033.3299999999999</ele>
        <time>2013-09-19T09:39:50Z</time>
      </trkpt>
      <trkpt lat="45.900080278515816" lon="7.908354643732309">
        <ele>2035.73</ele>
        <time>2013-09-19T09:40:04Z</time>
      </trkpt>
      <trkpt lat="45.900066113099456" lon="7.90834098123014">
        <ele>2037.1700000000001</ele>
        <time>2013-09-19T09:40:09Z</time>
      </trkpt>
      <trkpt lat="45.900040213018656" lon="7.908256743103266">
        <ele>2038.6099999999999</ele>
        <time>2013-09-19T09:40:24Z</time>
      </trkpt>
      <trkpt lat="45.900054043158889" lon="7.908204104751349">
        <ele>2040.05</ele>
        <time>2013-09-19T09:40:42Z</time>
      </trkpt>
      <trkpt lat="45.900055635720491" lon="7.908118944615126">
        <ele>2041.5</ele>
        <time>2013-09-19T09:40:54Z</time>
      </trkpt>
      <trkpt lat="45.900065610185266" lon="7.907996652647853">
        <ele>2043.9000000000001</ele>
        <time>2013-09-19T09:41:08Z</time>
      </trkpt>
      <trkpt lat="45.90005555190146" lon="7.90799648500979">
        <ele>2043.9000000000001</ele>
        <time>2013-09-19T09:41:10Z</time>
      </trkpt>
      <trkpt lat="45.900036776438355" lon="7.907896740362048">
        <ele>2046.78</ele>
        <time>2013-09-19T09:41:23Z</time>
      </trkpt>
      <trkpt lat="45.900047169998288" lon="7.907804623246193">
        <ele>2049.6700000000001</ele>
        <time>2013-09-19T09:41:37Z</time>
      </trkpt>
      <trkpt lat="45.900084637105465" lon="7.907760702073574">
        <ele>2051.5900000000001</ele>
        <time>2013-09-19T09:41:49Z</time>
      </trkpt>
      <trkpt lat="45.900040296837687" lon="7.907725162804127">
        <ele>2052.5500000000002</ele>
        <time>2013-09-19T09:42:00Z</time>
      </trkpt>
      <trkpt lat="45.900033172219992" lon="7.907715607434511">
        <ele>2053.0300000000002</ele>
        <time>2013-09-19T09:42:10Z</time>
      </trkpt>
      <trkpt lat="45.90002822689712" lon="7.907709823921323">
        <ele>2053.0300000000002</ele>
        <time>2013-09-19T09:42:34Z</time>
      </trkpt>
      <trkpt lat="45.900075165554881" lon="7.907629190012813">
        <ele>2055.4400000000001</ele>
        <time>2013-09-19T09:42:48Z</time>
      </trkpt>
      <trkpt lat="45.900124534964561" lon="7.907528607174754">
        <ele>2058.3200000000002</ele>
        <time>2013-09-19T09:43:04Z</time>
      </trkpt>
      <trkpt lat="45.900195110589266" lon="7.907484853640199">
        <ele>2061.1999999999998</ele>
        <time>2013-09-19T09:43:18Z</time>
      </trkpt>
      <trkpt lat="45.900239618495107" lon="7.907468676567078">
        <ele>2064.0900000000001</ele>
        <time>2013-09-19T09:43:33Z</time>
      </trkpt>
      <trkpt lat="45.900295693427324" lon="7.907408494502306">
        <ele>2066.9699999999998</ele>
        <time>2013-09-19T09:43:47Z</time>
      </trkpt>
      <trkpt lat="45.900359731167555" lon="7.907370440661907">
        <ele>2069.8600000000001</ele>
        <time>2013-09-19T09:44:01Z</time>
      </trkpt>
      <trkpt lat="45.900352271273732" lon="7.907315874472261">
        <ele>2071.3000000000002</ele>
        <time>2013-09-19T09:44:12Z</time>
      </trkpt>
      <trkpt lat="45.900361072272062" lon="7.907174220308662">
        <ele>2073.2199999999998</ele>
        <time>2013-09-19T09:44:28Z</time>
      </trkpt>
      <trkpt lat="45.900400299578905" lon="7.907104650512338">
        <ele>2076.5900000000001</ele>
        <time>2013-09-19T09:44:46Z</time>
      </trkpt>
      <trkpt lat="45.900399712845683" lon="7.906946735456586">
        <ele>2079.4699999999998</ele>
        <time>2013-09-19T09:45:02Z</time>
      </trkpt>
      <trkpt lat="45.900366604328156" lon="7.906880183145404">
        <ele>2081.3899999999999</ele>
        <time>2013-09-19T09:45:18Z</time>
      </trkpt>
      <trkpt lat="45.900366017594934" lon="7.906819330528379">
        <ele>2082.8299999999999</ele>
        <time>2013-09-19T09:45:46Z</time>
      </trkpt>
      <trkpt lat="45.900416560471058" lon="7.906782701611519">
        <ele>2084.2800000000002</ele>
        <time>2013-09-19T09:46:00Z</time>
      </trkpt>
      <trkpt lat="45.900424774736166" lon="7.906778259202838">
        <ele>2084.2800000000002</ele>
        <time>2013-09-19T09:46:01Z</time>
      </trkpt>
      <trkpt lat="45.900469617918134" lon="7.90672997944057">
        <ele>2087.6399999999999</ele>
        <time>2013-09-19T09:46:15Z</time>
      </trkpt>
      <trkpt lat="45.900467270985246" lon="7.906644735485315">
        <ele>2090.04</ele>
        <time>2013-09-19T09:46:29Z</time>
      </trkpt>
      <trkpt lat="45.900491159409285" lon="7.906636940315366">
        <ele>2091.4899999999998</ele>
        <time>2013-09-19T09:46:40Z</time>
      </trkpt>
      <trkpt lat="45.900505408644676" lon="7.906630402430892">
        <ele>2091.4899999999998</ele>
        <time>2013-09-19T09:47:01Z</time>
      </trkpt>
      <trkpt lat="45.900565506890416" lon="7.90668211877346">
        <ele>2093.4099999999999</ele>
        <time>2013-09-19T09:47:14Z</time>
      </trkpt>
      <trkpt lat="45.900573302060366" lon="7.906631659716368">
        <ele>2095.8099999999999</ele>
        <time>2013-09-19T09:47:27Z</time>
      </trkpt>
      <trkpt lat="45.900576319545507" lon="7.906563514843583">
        <ele>2098.21</ele>
        <time>2013-09-19T09:47:39Z</time>
      </trkpt>
      <trkpt lat="45.900598950684071" lon="7.906490927562118">
        <ele>2100.1399999999999</ele>
        <time>2013-09-19T09:47:54Z</time>
      </trkpt>
      <trkpt lat="45.900586042553186" lon="7.906512971967459">
        <ele>2101.5799999999999</ele>
        <time>2013-09-19T09:48:11Z</time>
      </trkpt>
      <trkpt lat="45.900577325373888" lon="7.906504422426224">
        <ele>2101.5799999999999</ele>
        <time>2013-09-19T09:48:46Z</time>
      </trkpt>
      <trkpt lat="45.900581516325474" lon="7.906419932842255">
        <ele>2104.46</ele>
        <time>2013-09-19T09:49:01Z</time>
      </trkpt>
      <trkpt lat="45.900654690340161" lon="7.906416580080986">
        <ele>2106.8699999999999</ele>
        <time>2013-09-19T09:49:13Z</time>
      </trkpt>
      <trkpt lat="45.900715291500092" lon="7.906336532905698">
        <ele>2110.23</ele>
        <time>2013-09-19T09:49:27Z</time>
      </trkpt>
      <trkpt lat="45.900693917647004" lon="7.9062345251441">
        <ele>2112.1500000000001</ele>
        <time>2013-09-19T09:49:39Z</time>
      </trkpt>
      <trkpt lat="45.900709088891745" lon="7.906157076358795">
        <ele>2114.0799999999999</ele>
        <time>2013-09-19T09:49:50Z</time>
      </trkpt>
      <trkpt lat="45.900731552392244" lon="7.906066216528416">
        <ele>2116.96</ele>
        <time>2013-09-19T09:50:04Z</time>
      </trkpt>
      <trkpt lat="45.90077773667872" lon="7.906007543206215">
        <ele>2119.3600000000001</ele>
        <time>2013-09-19T09:50:20Z</time>
      </trkpt>
      <trkpt lat="45.900823334231973" lon="7.906092200428248">
        <ele>2121.29</ele>
        <time>2013-09-19T09:50:32Z</time>
      </trkpt>
      <trkpt lat="45.900853173807263" lon="7.906094798818231">
        <ele>2121.77</ele>
        <time>2013-09-19T09:50:46Z</time>
      </trkpt>
      <trkpt lat="45.90091947466135" lon="7.906031515449286">
        <ele>2124.1700000000001</ele>
        <time>2013-09-19T09:51:00Z</time>
      </trkpt>
      <trkpt lat="45.900880247354507" lon="7.905952725559473">
        <ele>2126.0900000000001</ele>
        <time>2013-09-19T09:51:15Z</time>
      </trkpt>
      <trkpt lat="45.900902710855007" lon="7.905865805223584">
        <ele>2128.02</ele>
        <time>2013-09-19T09:51:31Z</time>
      </trkpt>
      <trkpt lat="45.900897011160851" lon="7.905807383358479">
        <ele>2128.98</ele>
        <time>2013-09-19T09:51:42Z</time>
      </trkpt>
      <trkpt lat="45.900892149657011" lon="7.905796989798546">
        <ele>2129.9400000000001</ele>
        <time>2013-09-19T09:51:44Z</time>
      </trkpt>
      <trkpt lat="45.90095266699791" lon="7.905788188800216">
        <ele>2131.3800000000001</ele>
        <time>2013-09-19T09:51:56Z</time>
      </trkpt>
      <trkpt lat="45.900937579572201" lon="7.905755918473005">
        <ele>2131.8600000000001</ele>
        <time>2013-09-19T09:52:08Z</time>
      </trkpt>
      <trkpt lat="45.900926515460014" lon="7.90573169477284">
        <ele>2132.8200000000002</ele>
        <time>2013-09-19T09:52:32Z</time>
      </trkpt>
      <trkpt lat="45.901009412482381" lon="7.905743010342121">
        <ele>2135.71</ele>
        <time>2013-09-19T09:52:45Z</time>
      </trkpt>
      <trkpt lat="45.901066409423947" lon="7.905738903209567">
        <ele>2137.6300000000001</ele>
        <time>2013-09-19T09:52:56Z</time>
      </trkpt>
      <trkpt lat="45.901097757741809" lon="7.90581182576716">
        <ele>2138.5900000000001</ele>
        <time>2013-09-19T09:53:10Z</time>
      </trkpt>
      <trkpt lat="45.901162214577198" lon="7.905837558209896">
        <ele>2139.5500000000002</ele>
        <time>2013-09-19T09:53:30Z</time>
      </trkpt>
      <trkpt lat="45.901202447712421" lon="7.905776370316744">
        <ele>2141.4699999999998</ele>
        <time>2013-09-19T09:53:40Z</time>
      </trkpt>
      <trkpt lat="45.901269419118762" lon="7.905798749998212">
        <ele>2143.4000000000001</ele>
        <time>2013-09-19T09:53:51Z</time>
      </trkpt>
      <trkpt lat="45.901308730244637" lon="7.905793972313404">
        <ele>2145.3200000000002</ele>
        <time>2013-09-19T09:53:58Z</time>
      </trkpt>
      <trkpt lat="45.901368912309408" lon="7.905814340338111">
        <ele>2146.7600000000002</ele>
        <time>2013-09-19T09:54:13Z</time>
      </trkpt>
      <trkpt lat="45.901365391910076" lon="7.905757091939449">
        <ele>2148.1999999999998</ele>
        <time>2013-09-19T09:54:23Z</time>
      </trkpt>
      <trkpt lat="45.901315687224269" lon="7.90570286102593">
        <ele>2149.6500000000001</ele>
        <time>2013-09-19T09:54:38Z</time>
      </trkpt>
      <trkpt lat="45.901262043043971" lon="7.905624071136117">
        <ele>2152.0500000000002</ele>
        <time>2013-09-19T09:55:01Z</time>
      </trkpt>
      <trkpt lat="45.90128593146801" lon="7.90555140003562">
        <ele>2154.9299999999998</ele>
        <time>2013-09-19T09:55:16Z</time>
      </trkpt>
      <trkpt lat="45.901278806850314" lon="7.90548543445766">
        <ele>2157.8200000000002</ele>
        <time>2013-09-19T09:55:29Z</time>
      </trkpt>
      <trkpt lat="45.901296911761165" lon="7.905355598777533">
        <ele>2160.2199999999998</ele>
        <time>2013-09-19T09:55:41Z</time>
      </trkpt>
      <trkpt lat="45.90133429504931" lon="7.905241856351495">
        <ele>2163.0999999999999</ele>
        <time>2013-09-19T09:55:53Z</time>
      </trkpt>
      <trkpt lat="45.901349214836955" lon="7.905186116695404">
        <ele>2164.5500000000002</ele>
        <time>2013-09-19T09:56:03Z</time>
      </trkpt>
      <trkpt lat="45.901337480172515" lon="7.905156277120113">
        <ele>2165.9899999999998</ele>
        <time>2013-09-19T09:56:16Z</time>
      </trkpt>
      <trkpt lat="45.901322728022933" lon="7.90509844198823">
        <ele>2166.9499999999998</ele>
        <time>2013-09-19T09:56:36Z</time>
      </trkpt>
      <trkpt lat="45.90131962671876" lon="7.905074218288064">
        <ele>2167.4299999999998</ele>
        <time>2013-09-19T09:56:46Z</time>
      </trkpt>
      <trkpt lat="45.901310658082366" lon="7.905010851100087">
        <ele>2167.9099999999999</ele>
        <time>2013-09-19T09:56:57Z</time>
      </trkpt>
      <trkpt lat="45.901304874569178" lon="7.905029375106096">
        <ele>2167.9099999999999</ele>
        <time>2013-09-19T09:57:14Z</time>
      </trkpt>
      <trkpt lat="45.901297498494387" lon="7.905015544965863">
        <ele>2168.3899999999999</ele>
        <time>2013-09-19T09:57:32Z</time>
      </trkpt>
      <trkpt lat="45.901288697496057" lon="7.905013952404261">
        <ele>2168.3899999999999</ele>
        <time>2013-09-19T09:57:49Z</time>
      </trkpt>
      <trkpt lat="45.901278890669346" lon="7.905002385377884">
        <ele>2168.3899999999999</ele>
        <time>2013-09-19T09:58:14Z</time>
      </trkpt>
      <trkpt lat="45.901267239823937" lon="7.905016634613276">
        <ele>2168.3899999999999</ele>
        <time>2013-09-19T09:58:33Z</time>
      </trkpt>
      <trkpt lat="45.901291714981198" lon="7.905018227174878">
        <ele>2168.3899999999999</ele>
        <time>2013-09-19T09:58:52Z</time>
      </trkpt>
      <trkpt lat="45.901280483230948" lon="7.905002636834979">
        <ele>2168.8699999999999</ele>
        <time>2013-09-19T09:59:12Z</time>
      </trkpt>
      <trkpt lat="45.901284506544471" lon="7.904988219961524">
        <ele>2168.3899999999999</ele>
        <time>2013-09-19T09:59:16Z</time>
      </trkpt>
      <trkpt lat="45.90131476521492" lon="7.904951255768538">
        <ele>2169.8299999999999</ele>
        <time>2013-09-19T09:59:22Z</time>
      </trkpt>
      <trkpt lat="45.901339827105403" lon="7.904844805598259">
        <ele>2171.7600000000002</ele>
        <time>2013-09-19T09:59:33Z</time>
      </trkpt>
      <trkpt lat="45.901360446587205" lon="7.904775654897094">
        <ele>2173.1999999999998</ele>
        <time>2013-09-19T09:59:42Z</time>
      </trkpt>
      <trkpt lat="45.901418952271342" lon="7.904799794778228">
        <ele>2175.5999999999999</ele>
        <time>2013-09-19T09:59:55Z</time>
      </trkpt>
      <trkpt lat="45.901423646137118" lon="7.904835753142834">
        <ele>2177.04</ele>
        <time>2013-09-19T09:59:59Z</time>
      </trkpt>
      <trkpt lat="45.901474189013243" lon="7.904921500012279">
        <ele>2178.48</ele>
        <time>2013-09-19T10:00:12Z</time>
      </trkpt>
      <trkpt lat="45.901509644463658" lon="7.90491571649909">
        <ele>2180.4099999999999</ele>
        <time>2013-09-19T10:00:24Z</time>
      </trkpt>
      <trkpt lat="45.90150972828269" lon="7.904826616868377">
        <ele>2182.8099999999999</ele>
        <time>2013-09-19T10:00:40Z</time>
      </trkpt>
      <trkpt lat="45.901560271158814" lon="7.904840782284737">
        <ele>2185.6900000000001</ele>
        <time>2013-09-19T10:00:53Z</time>
      </trkpt>
      <trkpt lat="45.901580387726426" lon="7.904947567731142">
        <ele>2187.6199999999999</ele>
        <time>2013-09-19T10:01:05Z</time>
      </trkpt>
      <trkpt lat="45.901628332212567" lon="7.905009342357516">
        <ele>2189.0599999999999</ele>
        <time>2013-09-19T10:01:20Z</time>
      </trkpt>
      <trkpt lat="45.901661859825253" lon="7.905047312378883">
        <ele>2190.5</ele>
        <time>2013-09-19T10:01:34Z</time>
      </trkpt>
      <trkpt lat="45.901713659986854" lon="7.905101040378213">
        <ele>2192.9000000000001</ele>
        <time>2013-09-19T10:01:47Z</time>
      </trkpt>
      <trkpt lat="45.901754982769489" lon="7.905177231878042">
        <ele>2194.8299999999999</ele>
        <time>2013-09-19T10:02:01Z</time>
      </trkpt>
      <trkpt lat="45.901751043274999" lon="7.905286699533463">
        <ele>2195.3099999999999</ele>
        <time>2013-09-19T10:02:14Z</time>
      </trkpt>
      <trkpt lat="45.901741739362478" lon="7.9054263420403">
        <ele>2196.75</ele>
        <time>2013-09-19T10:02:30Z</time>
      </trkpt>
      <trkpt lat="45.90174182318151" lon="7.905481997877359">
        <ele>2198.1900000000001</ele>
        <time>2013-09-19T10:02:43Z</time>
      </trkpt>
      <trkpt lat="45.901740482077003" lon="7.905519129708409">
        <ele>2198.1900000000001</ele>
        <time>2013-09-19T10:03:06Z</time>
      </trkpt>
      <trkpt lat="45.901784487068653" lon="7.905446039512754">
        <ele>2200.1100000000001</ele>
        <time>2013-09-19T10:03:22Z</time>
      </trkpt>
      <trkpt lat="45.901815164834261" lon="7.905360711738467">
        <ele>2202.04</ele>
        <time>2013-09-19T10:03:36Z</time>
      </trkpt>
      <trkpt lat="45.901835449039936" lon="7.905369428917766">
        <ele>2202.04</ele>
        <time>2013-09-19T10:03:38Z</time>
      </trkpt>
      <trkpt lat="45.901906779035926" lon="7.905479902401567">
        <ele>2204.9200000000001</ele>
        <time>2013-09-19T10:03:52Z</time>
      </trkpt>
      <trkpt lat="45.901957657188177" lon="7.905535222962499">
        <ele>2207.3200000000002</ele>
        <time>2013-09-19T10:04:05Z</time>
      </trkpt>
      <trkpt lat="45.901976516470313" lon="7.905610408633947">
        <ele>2208.29</ele>
        <time>2013-09-19T10:04:11Z</time>
      </trkpt>
      <trkpt lat="45.902071818709373" lon="7.905708812177181">
        <ele>2208.77</ele>
        <time>2013-09-19T10:04:24Z</time>
      </trkpt>
      <trkpt lat="45.902094701305032" lon="7.905858596786857">
        <ele>2210.6900000000001</ele>
        <time>2013-09-19T10:04:38Z</time>
      </trkpt>
      <trkpt lat="45.902146752923727" lon="7.90593889541924">
        <ele>2212.6100000000001</ele>
        <time>2013-09-19T10:04:50Z</time>
      </trkpt>
      <trkpt lat="45.902146082371473" lon="7.906040400266647">
        <ele>2214.5300000000002</ele>
        <time>2013-09-19T10:05:02Z</time>
      </trkpt>
      <trkpt lat="45.902120769023895" lon="7.906155483797193">
        <ele>2216.46</ele>
        <time>2013-09-19T10:05:15Z</time>
      </trkpt>
      <trkpt lat="45.902120852842927" lon="7.906210888177156">
        <ele>2216.46</ele>
        <time>2013-09-19T10:05:21Z</time>
      </trkpt>
      <trkpt lat="45.902173994109035" lon="7.906350865960121">
        <ele>2217.4200000000001</ele>
        <time>2013-09-19T10:05:36Z</time>
      </trkpt>
      <trkpt lat="45.902193188667297" lon="7.906445162370801">
        <ele>2217.9000000000001</ele>
        <time>2013-09-19T10:05:47Z</time>
      </trkpt>
      <trkpt lat="45.902203414589167" lon="7.906511379405856">
        <ele>2219.3400000000001</ele>
        <time>2013-09-19T10:05:55Z</time>
      </trkpt>
      <trkpt lat="45.902192099019885" lon="7.906529232859612">
        <ele>2218.8600000000001</ele>
        <time>2013-09-19T10:05:58Z</time>
      </trkpt>
      <trkpt lat="45.902199894189835" lon="7.906568124890328">
        <ele>2219.3400000000001</ele>
        <time>2013-09-19T10:06:01Z</time>
      </trkpt>
      <trkpt lat="45.902236774563789" lon="7.906655296683312">
        <ele>2221.2600000000002</ele>
        <time>2013-09-19T10:06:14Z</time>
      </trkpt>
      <trkpt lat="45.90224850922823" lon="7.906728219240904">
        <ele>2222.71</ele>
        <time>2013-09-19T10:06:27Z</time>
      </trkpt>
      <trkpt lat="45.902282958850265" lon="7.906763842329383">
        <ele>2224.1500000000001</ele>
        <time>2013-09-19T10:06:40Z</time>
      </trkpt>
      <trkpt lat="45.902291005477309" lon="7.906883116811514">
        <ele>2225.5900000000001</ele>
        <time>2013-09-19T10:06:54Z</time>
      </trkpt>
      <trkpt lat="45.902326460927725" lon="7.907015215605497">
        <ele>2227.5100000000002</ele>
        <time>2013-09-19T10:07:08Z</time>
      </trkpt>
      <trkpt lat="45.902349762618542" lon="7.907145470380783">
        <ele>2228.4699999999998</ele>
        <time>2013-09-19T10:07:22Z</time>
      </trkpt>
      <trkpt lat="45.902354791760445" lon="7.907159132882953">
        <ele>2228.9499999999998</ele>
        <time>2013-09-19T10:07:24Z</time>
      </trkpt>
      <trkpt lat="45.902367196977139" lon="7.907219817861915">
        <ele>2228.9499999999998</ele>
        <time>2013-09-19T10:07:29Z</time>
      </trkpt>
      <trkpt lat="45.902397874742746" lon="7.907380415126681">
        <ele>2230.4000000000001</ele>
        <time>2013-09-19T10:07:44Z</time>
      </trkpt>
      <trkpt lat="45.902406172826886" lon="7.907480327412486">
        <ele>2231.8400000000001</ele>
        <time>2013-09-19T10:07:56Z</time>
      </trkpt>
      <trkpt lat="45.902452189475298" lon="7.907539838925004">
        <ele>2232.3200000000002</ele>
        <time>2013-09-19T10:08:06Z</time>
      </trkpt>
      <trkpt lat="45.90249091386795" lon="7.90770529769361">
        <ele>2233.2800000000002</ele>
        <time>2013-09-19T10:08:19Z</time>
      </trkpt>
      <trkpt lat="45.902491584420204" lon="7.907719714567065">
        <ele>2233.7600000000002</ele>
        <time>2013-09-19T10:08:20Z</time>
      </trkpt>
      <trkpt lat="45.9024762455374" lon="7.907890118658543">
        <ele>2234.7199999999998</ele>
        <time>2013-09-19T10:08:33Z</time>
      </trkpt>
      <trkpt lat="45.902501977980137" lon="7.908063288778067">
        <ele>2236.1599999999999</ele>
        <time>2013-09-19T10:08:47Z</time>
      </trkpt>
      <trkpt lat="45.902509102597833" lon="7.908147778362036">
        <ele>2238.0900000000001</ele>
        <time>2013-09-19T10:09:00Z</time>
      </trkpt>
      <trkpt lat="45.902512120082974" lon="7.908170744776726">
        <ele>2238.5700000000002</ele>
        <time>2013-09-19T10:09:14Z</time>
      </trkpt>
      <trkpt lat="45.902521256357431" lon="7.908178707584739">
        <ele>2238.0900000000001</ele>
        <time>2013-09-19T10:09:24Z</time>
      </trkpt>
      <trkpt lat="45.902536259964108" lon="7.908189352601767">
        <ele>2238.5700000000002</ele>
        <time>2013-09-19T10:09:26Z</time>
      </trkpt>
      <trkpt lat="45.902577247470617" lon="7.908224556595087">
        <ele>2238.0900000000001</ele>
        <time>2013-09-19T10:09:30Z</time>
      </trkpt>
      <trkpt lat="45.902698449790478" lon="7.908438881859183">
        <ele>2238.5700000000002</ele>
        <time>2013-09-19T10:09:47Z</time>
      </trkpt>
      <trkpt lat="45.902750166133046" lon="7.908541727811098">
        <ele>2239.5300000000002</ele>
        <time>2013-09-19T10:09:57Z</time>
      </trkpt>
      <trkpt lat="45.902701886370778" lon="7.908616829663515">
        <ele>2240.0100000000002</ele>
        <time>2013-09-19T10:10:08Z</time>
      </trkpt>
      <trkpt lat="45.902722086757421" lon="7.908724872395396">
        <ele>2240.9699999999998</ele>
        <time>2013-09-19T10:10:21Z</time>
      </trkpt>
      <trkpt lat="45.902775228023529" lon="7.908808272331953">
        <ele>2241.9299999999998</ele>
        <time>2013-09-19T10:10:36Z</time>
      </trkpt>
      <trkpt lat="45.902809258550406" lon="7.90885797701776">
        <ele>2242.4099999999999</ele>
        <time>2013-09-19T10:10:47Z</time>
      </trkpt>
      <trkpt lat="45.902813617140055" lon="7.908972389996052">
        <ele>2241.9299999999998</ele>
        <time>2013-09-19T10:11:01Z</time>
      </trkpt>
      <trkpt lat="45.902812276035547" lon="7.909000469371676">
        <ele>2241.9299999999998</ele>
        <time>2013-09-19T10:11:04Z</time>
      </trkpt>
      <trkpt lat="45.902802050113678" lon="7.909074313938618">
        <ele>2242.4099999999999</ele>
        <time>2013-09-19T10:11:11Z</time>
      </trkpt>
      <trkpt lat="45.902827363461256" lon="7.909171627834439">
        <ele>2242.4099999999999</ele>
        <time>2013-09-19T10:11:22Z</time>
      </trkpt>
      <trkpt lat="45.902871955186129" lon="7.909271456301212">
        <ele>2241.9299999999998</ele>
        <time>2013-09-19T10:11:34Z</time>
      </trkpt>
      <trkpt lat="45.90283633209765" lon="7.909404477104545">
        <ele>2241.9299999999998</ele>
        <time>2013-09-19T10:11:46Z</time>
      </trkpt>
      <trkpt lat="45.902828788384795" lon="7.909534815698862">
        <ele>2241.9299999999998</ele>
        <time>2013-09-19T10:12:01Z</time>
      </trkpt>
      <trkpt lat="45.902831219136715" lon="7.909639673307538">
        <ele>2241.9299999999998</ele>
        <time>2013-09-19T10:12:14Z</time>
      </trkpt>
      <trkpt lat="45.902762990444899" lon="7.909772945567966">
        <ele>2242.4099999999999</ele>
        <time>2013-09-19T10:12:28Z</time>
      </trkpt>
      <trkpt lat="45.902752429246902" lon="7.909797420725226">
        <ele>2242.4099999999999</ele>
        <time>2013-09-19T10:12:50Z</time>
      </trkpt>
      <trkpt lat="45.902752010151744" lon="7.909756768494844">
        <ele>2241.9299999999998</ele>
        <time>2013-09-19T10:13:29Z</time>
      </trkpt>
      <trkpt lat="45.902741029858589" lon="7.909775543957949">
        <ele>2242.8899999999999</ele>
        <time>2013-09-19T10:13:45Z</time>
      </trkpt>
      <trkpt lat="45.902703646570444" lon="7.909953407943249">
        <ele>2243.3699999999999</ele>
        <time>2013-09-19T10:14:09Z</time>
      </trkpt>
      <trkpt lat="45.902711190283298" lon="7.909974195063114">
        <ele>2243.3699999999999</ele>
        <time>2013-09-19T10:14:26Z</time>
      </trkpt>
      <trkpt lat="45.902704317122698" lon="7.910056756809354">
        <ele>2242.4099999999999</ele>
        <time>2013-09-19T10:14:42Z</time>
      </trkpt>
      <trkpt lat="45.902715632691979" lon="7.91003555059433">
        <ele>2242.8899999999999</ele>
        <time>2013-09-19T10:14:56Z</time>
      </trkpt>
      <trkpt lat="45.902737677097321" lon="7.910065306350589">
        <ele>2242.8899999999999</ele>
        <time>2013-09-19T10:15:11Z</time>
      </trkpt>
      <trkpt lat="45.902741197496653" lon="7.910062205046415">
        <ele>2242.8899999999999</ele>
        <time>2013-09-19T10:15:13Z</time>
      </trkpt>
      <trkpt lat="45.902839181944728" lon="7.910077460110188">
        <ele>2245.3000000000002</ele>
        <time>2013-09-19T10:15:30Z</time>
      </trkpt>
      <trkpt lat="45.90284806676209" lon="7.910064719617367">
        <ele>2245.3000000000002</ele>
        <time>2013-09-19T10:15:31Z</time>
      </trkpt>
      <trkpt lat="45.902871955186129" lon="7.909998167306185">
        <ele>2247.2199999999998</ele>
        <time>2013-09-19T10:15:44Z</time>
      </trkpt>
      <trkpt lat="45.902875140309334" lon="7.910003280267119">
        <ele>2249.1399999999999</ele>
        <time>2013-09-19T10:16:02Z</time>
      </trkpt>
      <trkpt lat="45.902899531647563" lon="7.909950474277139">
        <ele>2249.6199999999999</ele>
        <time>2013-09-19T10:16:22Z</time>
      </trkpt>
      <trkpt lat="45.902972118929029" lon="7.909960532560945">
        <ele>2252.9899999999998</ele>
        <time>2013-09-19T10:16:35Z</time>
      </trkpt>
      <trkpt lat="45.902958959341049" lon="7.909993976354599">
        <ele>2253.4699999999998</ele>
        <time>2013-09-19T10:16:51Z</time>
      </trkpt>
      <trkpt lat="45.902995420619845" lon="7.90991242043674">
        <ele>2255.8699999999999</ele>
        <time>2013-09-19T10:17:14Z</time>
      </trkpt>
      <trkpt lat="45.903094494715333" lon="7.909910995513201">
        <ele>2258.75</ele>
        <time>2013-09-19T10:17:28Z</time>
      </trkpt>
      <trkpt lat="45.903078569099307" lon="7.909984085708857">
        <ele>2258.75</ele>
        <time>2013-09-19T10:17:32Z</time>
      </trkpt>
      <trkpt lat="45.903124921023846" lon="7.909955671057105">
        <ele>2258.27</ele>
        <time>2013-09-19T10:17:49Z</time>
      </trkpt>
      <trkpt lat="45.903114024549723" lon="7.909972434863448">
        <ele>2258.75</ele>
        <time>2013-09-19T10:18:18Z</time>
      </trkpt>
      <trkpt lat="45.903111174702644" lon="7.909945864230394">
        <ele>2258.75</ele>
        <time>2013-09-19T10:18:47Z</time>
      </trkpt>
      <trkpt lat="45.903107235208154" lon="7.909952737390995">
        <ele>2258.75</ele>
        <time>2013-09-19T10:19:03Z</time>
      </trkpt>
      <trkpt lat="45.903113940730691" lon="7.909961203113198">
        <ele>2258.75</ele>
        <time>2013-09-19T10:19:32Z</time>
      </trkpt>
      <trkpt lat="45.903118131682277" lon="7.909949468448758">
        <ele>2258.75</ele>
        <time>2013-09-19T10:19:59Z</time>
      </trkpt>
      <trkpt lat="45.90311880223453" lon="7.90994318202138">
        <ele>2257.3099999999999</ele>
        <time>2013-09-19T10:20:01Z</time>
      </trkpt>
      <trkpt lat="45.90311779640615" lon="7.909939913079143">
        <ele>2259.2399999999998</ele>
        <time>2013-09-19T10:20:02Z</time>
      </trkpt>
      <trkpt lat="45.903124334290624" lon="7.909954413771629">
        <ele>2259.2399999999998</ele>
        <time>2013-09-19T10:20:34Z</time>
      </trkpt>
      <trkpt lat="45.903105139732361" lon="7.90996371768415">
        <ele>2259.2399999999998</ele>
        <time>2013-09-19T10:21:04Z</time>
      </trkpt>
      <trkpt lat="45.903144953772426" lon="7.909898338839412">
        <ele>2258.75</ele>
        <time>2013-09-19T10:21:16Z</time>
      </trkpt>
      <trkpt lat="45.903090806677938" lon="7.909882329404354">
        <ele>2258.27</ele>
        <time>2013-09-19T10:21:24Z</time>
      </trkpt>
      <trkpt lat="45.903019309043884" lon="7.909895069897175">
        <ele>2255.3899999999999</ele>
        <time>2013-09-19T10:21:31Z</time>
      </trkpt>
      <trkpt lat="45.90302643366158" lon="7.909828266128898">
        <ele>2253.4699999999998</ele>
        <time>2013-09-19T10:21:38Z</time>
      </trkpt>
      <trkpt lat="45.902935992926359" lon="7.909833798184991">
        <ele>2250.0999999999999</ele>
        <time>2013-09-19T10:21:49Z</time>
      </trkpt>
      <trkpt lat="45.902836751192808" lon="7.909849639981985">
        <ele>2247.2199999999998</ele>
        <time>2013-09-19T10:22:01Z</time>
      </trkpt>
      <trkpt lat="45.902771959081292" lon="7.909865817055106">
        <ele>2245.3000000000002</ele>
        <time>2013-09-19T10:22:09Z</time>
      </trkpt>
      <trkpt lat="45.902759553864598" lon="7.909922813996673">
        <ele>2244.3299999999999</ele>
        <time>2013-09-19T10:22:15Z</time>
      </trkpt>
      <trkpt lat="45.90276500210166" lon="7.909926334396005">
        <ele>2243.8499999999999</ele>
        <time>2013-09-19T10:22:27Z</time>
      </trkpt>
      <trkpt lat="45.902770450338721" lon="7.90990705601871">
        <ele>2243.8499999999999</ele>
        <time>2013-09-19T10:22:53Z</time>
      </trkpt>
      <trkpt lat="45.902775982394814" lon="7.909903367981315">
        <ele>2243.8499999999999</ele>
        <time>2013-09-19T10:23:21Z</time>
      </trkpt>
      <trkpt lat="45.902780927717686" lon="7.909908229485154">
        <ele>2243.8499999999999</ele>
        <time>2013-09-19T10:23:59Z</time>
      </trkpt>
      <trkpt lat="45.902775982394814" lon="7.909910827875137">
        <ele>2243.8499999999999</ele>
        <time>2013-09-19T10:24:30Z</time>
      </trkpt>
      <trkpt lat="45.902784867212176" lon="7.909897333011031">
        <ele>2243.8499999999999</ele>
        <time>2013-09-19T10:25:02Z</time>
      </trkpt>
      <trkpt lat="45.902778496965766" lon="7.909905714914203">
        <ele>2243.3699999999999</ele>
        <time>2013-09-19T10:25:28Z</time>
      </trkpt>
      <trkpt lat="45.902774473652244" lon="7.909912085160613">
        <ele>2243.3699999999999</ele>
        <time>2013-09-19T10:26:00Z</time>
      </trkpt>
      <trkpt lat="45.902774138376117" lon="7.909913426265121">
        <ele>2243.8499999999999</ele>
        <time>2013-09-19T10:26:30Z</time>
      </trkpt>
      <trkpt lat="45.902757039293647" lon="7.909923903644085">
        <ele>2243.3699999999999</ele>
        <time>2013-09-19T10:26:52Z</time>
      </trkpt>
      <trkpt lat="45.902752513065934" lon="7.909911414608359">
        <ele>2242.8899999999999</ele>
        <time>2013-09-19T10:27:24Z</time>
      </trkpt>
      <trkpt lat="45.902747986838222" lon="7.909907810389996">
        <ele>2243.3699999999999</ele>
        <time>2013-09-19T10:27:58Z</time>
      </trkpt>
      <trkpt lat="45.90274446643889" lon="7.909911079332233">
        <ele>2243.3699999999999</ele>
        <time>2013-09-19T10:28:30Z</time>
      </trkpt>
      <trkpt lat="45.902737509459257" lon="7.909921053797007">
        <ele>2243.3699999999999</ele>
        <time>2013-09-19T10:29:05Z</time>
      </trkpt>
      <trkpt lat="45.902755111455917" lon="7.909901440143585">
        <ele>2243.3699999999999</ele>
        <time>2013-09-19T10:29:42Z</time>
      </trkpt>
      <trkpt lat="45.902757626026869" lon="7.909901523962617">
        <ele>2243.3699999999999</ele>
        <time>2013-09-19T10:30:11Z</time>
      </trkpt>
      <trkpt lat="45.902755362913013" lon="7.909897333011031">
        <ele>2242.8899999999999</ele>
        <time>2013-09-19T10:30:44Z</time>
      </trkpt>
      <trkpt lat="45.902744131162763" lon="7.909912504255772">
        <ele>2243.3699999999999</ele>
        <time>2013-09-19T10:31:13Z</time>
      </trkpt>
      <trkpt lat="45.902741197496653" lon="7.909939493983984">
        <ele>2242.8899999999999</ele>
        <time>2013-09-19T10:31:57Z</time>
      </trkpt>
      <trkpt lat="45.902736000716686" lon="7.909941170364618">
        <ele>2242.8899999999999</ele>
        <time>2013-09-19T10:32:31Z</time>
      </trkpt>
      <trkpt lat="45.902731642127037" lon="7.909938404336572">
        <ele>2242.8899999999999</ele>
        <time>2013-09-19T10:33:09Z</time>
      </trkpt>
      <trkpt lat="45.902742790058255" lon="7.909918203949928">
        <ele>2242.8899999999999</ele>
        <time>2013-09-19T10:33:40Z</time>
      </trkpt>
      <trkpt lat="45.902756033465266" lon="7.909934548661113">
        <ele>2242.4099999999999</ele>
        <time>2013-09-19T10:34:10Z</time>
      </trkpt>
      <trkpt lat="45.902744214981794" lon="7.909935051575303">
        <ele>2242.4099999999999</ele>
        <time>2013-09-19T10:34:43Z</time>
      </trkpt>
      <trkpt lat="45.902747735381126" lon="7.909946953877807">
        <ele>2242.4099999999999</ele>
        <time>2013-09-19T10:35:15Z</time>
      </trkpt>
      <trkpt lat="45.902744717895985" lon="7.909916108474135">
        <ele>2242.4099999999999</ele>
        <time>2013-09-19T10:35:45Z</time>
      </trkpt>
      <trkpt lat="45.902758967131376" lon="7.909889705479145">
        <ele>2242.8899999999999</ele>
        <time>2013-09-19T10:36:15Z</time>
      </trkpt>
      <trkpt lat="45.902762906625867" lon="7.909904457628727">
        <ele>2242.8899999999999</ele>
        <time>2013-09-19T10:36:55Z</time>
      </trkpt>
      <trkpt lat="45.902781765908003" lon="7.90989238768816">
        <ele>2242.8899999999999</ele>
        <time>2013-09-19T10:37:22Z</time>
      </trkpt>
      <trkpt lat="45.902776317670941" lon="7.909894734621048">
        <ele>2243.3699999999999</ele>
        <time>2013-09-19T10:37:58Z</time>
      </trkpt>
      <trkpt lat="45.902766259387136" lon="7.909908145666122">
        <ele>2243.8499999999999</ele>
        <time>2013-09-19T10:38:29Z</time>
      </trkpt>
      <trkpt lat="45.902768773958087" lon="7.909906636923552">
        <ele>2243.8499999999999</ele>
        <time>2013-09-19T10:38:54Z</time>
      </trkpt>
      <trkpt lat="45.902761649340391" lon="7.909915186464787">
        <ele>2243.8499999999999</ele>
        <time>2013-09-19T10:39:23Z</time>
      </trkpt>
      <trkpt lat="45.902742790058255" lon="7.909925831481814">
        <ele>2243.8499999999999</ele>
        <time>2013-09-19T10:40:01Z</time>
      </trkpt>
      <trkpt lat="45.902748573571444" lon="7.909924993291497">
        <ele>2244.3299999999999</ele>
        <time>2013-09-19T10:40:36Z</time>
      </trkpt>
      <trkpt lat="45.902756033465266" lon="7.90991879068315">
        <ele>2244.8200000000002</ele>
        <time>2013-09-19T10:41:06Z</time>
      </trkpt>
      <trkpt lat="45.902737090364099" lon="7.909942427650094">
        <ele>2245.3000000000002</ele>
        <time>2013-09-19T10:41:35Z</time>
      </trkpt>
      <trkpt lat="45.902740778401494" lon="7.909928681328893">
        <ele>2245.7800000000002</ele>
        <time>2013-09-19T10:42:05Z</time>
      </trkpt>
      <trkpt lat="45.902756368741393" lon="7.909912001341581">
        <ele>2245.7800000000002</ele>
        <time>2013-09-19T10:42:40Z</time>
      </trkpt>
      <trkpt lat="45.902751758694649" lon="7.909917449578643">
        <ele>2246.2600000000002</ele>
        <time>2013-09-19T10:43:14Z</time>
      </trkpt>
      <trkpt lat="45.902741029858589" lon="7.909916779026389">
        <ele>2246.2600000000002</ele>
        <time>2013-09-19T10:43:45Z</time>
      </trkpt>
      <trkpt lat="45.902756452560425" lon="7.909894566982985">
        <ele>2247.2199999999998</ele>
        <time>2013-09-19T10:44:25Z</time>
      </trkpt>
      <trkpt lat="45.902760056778789" lon="7.909895488992333">
        <ele>2247.2199999999998</ele>
        <time>2013-09-19T10:44:57Z</time>
      </trkpt>
      <trkpt lat="45.902762487530708" lon="7.909893561154604">
        <ele>2247.2199999999998</ele>
        <time>2013-09-19T10:45:15Z</time>
      </trkpt>
      <trkpt lat="45.902787884697318" lon="7.909880736842752">
        <ele>2247.2199999999998</ele>
        <time>2013-09-19T10:45:46Z</time>
      </trkpt>
      <trkpt lat="45.902786878868937" lon="7.909853663295507">
        <ele>2247.2199999999998</ele>
        <time>2013-09-19T10:46:08Z</time>
      </trkpt>
      <trkpt lat="45.902807414531708" lon="7.909847293049097">
        <ele>2247.2199999999998</ele>
        <time>2013-09-19T10:46:41Z</time>
      </trkpt>
      <trkpt lat="45.90281143784523" lon="7.909870846197009">
        <ele>2247.2199999999998</ele>
        <time>2013-09-19T10:47:07Z</time>
      </trkpt>
      <trkpt lat="45.902778916060925" lon="7.909889705479145">
        <ele>2247.6999999999998</ele>
        <time>2013-09-19T10:47:39Z</time>
      </trkpt>
      <trkpt lat="45.90276206843555" lon="7.909886604174972">
        <ele>2247.6999999999998</ele>
        <time>2013-09-19T10:48:15Z</time>
      </trkpt>
      <trkpt lat="45.90276500210166" lon="7.90989582426846">
        <ele>2247.2199999999998</ele>
        <time>2013-09-19T10:48:48Z</time>
      </trkpt>
      <trkpt lat="45.902773048728704" lon="7.909897668287158">
        <ele>2247.6999999999998</ele>
        <time>2013-09-19T10:49:21Z</time>
      </trkpt>
      <trkpt lat="45.902778329327703" lon="7.90988752618432">
        <ele>2247.6999999999998</ele>
        <time>2013-09-19T10:49:47Z</time>
      </trkpt>
      <trkpt lat="45.902767181396484" lon="7.909890627488494">
        <ele>2247.6999999999998</ele>
        <time>2013-09-19T10:50:17Z</time>
      </trkpt>
      <trkpt lat="45.902771539986134" lon="7.909881910309196">
        <ele>2248.1799999999998</ele>
        <time>2013-09-19T10:50:52Z</time>
      </trkpt>
      <trkpt lat="45.90276014059782" lon="7.90988459251821">
        <ele>2248.1799999999998</ele>
        <time>2013-09-19T10:51:27Z</time>
      </trkpt>
      <trkpt lat="45.902775395661592" lon="7.909884676337242">
        <ele>2248.6599999999999</ele>
        <time>2013-09-19T10:52:02Z</time>
      </trkpt>
      <trkpt lat="45.902784196659923" lon="7.909879731014371">
        <ele>2248.6599999999999</ele>
        <time>2013-09-19T10:52:44Z</time>
      </trkpt>
      <trkpt lat="45.902768354862928" lon="7.909879311919212">
        <ele>2248.1799999999998</ele>
        <time>2013-09-19T10:53:24Z</time>
      </trkpt>
      <trkpt lat="45.902762403711677" lon="7.90988752618432">
        <ele>2248.1799999999998</ele>
        <time>2013-09-19T10:53:57Z</time>
      </trkpt>
      <trkpt lat="45.902780257165432" lon="7.909879731014371">
        <ele>2248.1799999999998</ele>
        <time>2013-09-19T10:54:35Z</time>
      </trkpt>
      <trkpt lat="45.902768522500992" lon="7.909882329404354">
        <ele>2248.6599999999999</ele>
        <time>2013-09-19T10:55:11Z</time>
      </trkpt>
      <trkpt lat="45.902759470045567" lon="7.909884257242084">
        <ele>2248.1799999999998</ele>
        <time>2013-09-19T10:55:46Z</time>
      </trkpt>
      <trkpt lat="45.902759470045567" lon="7.909879731014371">
        <ele>2248.1799999999998</ele>
        <time>2013-09-19T10:56:13Z</time>
      </trkpt>
      <trkpt lat="45.902758799493313" lon="7.909882413223386">
        <ele>2247.6999999999998</ele>
        <time>2013-09-19T10:56:47Z</time>
      </trkpt>
      <trkpt lat="45.902770450338721" lon="7.909879144281149">
        <ele>2248.1799999999998</ele>
        <time>2013-09-19T10:57:25Z</time>
      </trkpt>
      <trkpt lat="45.902762822806835" lon="7.909891465678811">
        <ele>2247.6999999999998</ele>
        <time>2013-09-19T10:57:58Z</time>
      </trkpt>
      <trkpt lat="45.902751758694649" lon="7.909898003563285">
        <ele>2248.1799999999998</ele>
        <time>2013-09-19T10:58:35Z</time>
      </trkpt>
      <trkpt lat="45.902753015980124" lon="7.909890711307526">
        <ele>2247.6999999999998</ele>
        <time>2013-09-19T10:59:14Z</time>
      </trkpt>
      <trkpt lat="45.902743125334382" lon="7.909899428486824">
        <ele>2248.1799999999998</ele>
        <time>2013-09-19T10:59:49Z</time>
      </trkpt>
      <trkpt lat="45.90274790301919" lon="7.909896746277809">
        <ele>2248.1799999999998</ele>
        <time>2013-09-19T11:00:31Z</time>
      </trkpt>
      <trkpt lat="45.902749076485634" lon="7.909898841753602">
        <ele>2248.1799999999998</ele>
        <time>2013-09-19T11:01:08Z</time>
      </trkpt>
      <trkpt lat="45.902732228860259" lon="7.909906301647425">
        <ele>2248.6599999999999</ele>
        <time>2013-09-19T11:01:42Z</time>
      </trkpt>
      <trkpt lat="45.902729965746403" lon="7.909904541447759">
        <ele>2248.6599999999999</ele>
        <time>2013-09-19T11:02:21Z</time>
      </trkpt>
      <trkpt lat="45.902726864442229" lon="7.909917952492833">
        <ele>2249.1399999999999</ele>
        <time>2013-09-19T11:03:05Z</time>
      </trkpt>
      <trkpt lat="45.902727786451578" lon="7.909915940836072">
        <ele>2249.6199999999999</ele>
        <time>2013-09-19T11:03:43Z</time>
      </trkpt>
      <trkpt lat="45.902730468660593" lon="7.909928094595671">
        <ele>2249.6199999999999</ele>
        <time>2013-09-19T11:04:20Z</time>
      </trkpt>
      <trkpt lat="45.902728037908673" lon="7.909914264455438">
        <ele>2249.6199999999999</ele>
        <time>2013-09-19T11:04:51Z</time>
      </trkpt>
      <trkpt lat="45.902766343206167" lon="7.909892471507192">
        <ele>2249.6199999999999</ele>
        <time>2013-09-19T11:05:27Z</time>
      </trkpt>
      <trkpt lat="45.902772461995482" lon="7.909883502870798">
        <ele>2250.0999999999999</ele>
        <time>2013-09-19T11:05:52Z</time>
      </trkpt>
      <trkpt lat="45.902777407318354" lon="7.909870510920882">
        <ele>2249.6199999999999</ele>
        <time>2013-09-19T11:06:24Z</time>
      </trkpt>
      <trkpt lat="45.902776988223195" lon="7.909872606396675">
        <ele>2250.0999999999999</ele>
        <time>2013-09-19T11:06:46Z</time>
      </trkpt>
      <trkpt lat="45.902775311842561" lon="7.909878809005022">
        <ele>2249.6199999999999</ele>
        <time>2013-09-19T11:07:19Z</time>
      </trkpt>
      <trkpt lat="45.90279140509665" lon="7.909877886995673">
        <ele>2249.1399999999999</ele>
        <time>2013-09-19T11:07:56Z</time>
      </trkpt>
      <trkpt lat="45.902783023193479" lon="7.909881072118878">
        <ele>2249.1399999999999</ele>
        <time>2013-09-19T11:08:25Z</time>
      </trkpt>
      <trkpt lat="45.902778999879956" lon="7.909873612225056">
        <ele>2249.6199999999999</ele>
        <time>2013-09-19T11:09:02Z</time>
      </trkpt>
      <trkpt lat="45.90277967043221" lon="7.909868499264121">
        <ele>2249.1399999999999</ele>
        <time>2013-09-19T11:09:35Z</time>
      </trkpt>
      <trkpt lat="45.902778916060925" lon="7.909865062683821">
        <ele>2249.1399999999999</ele>
        <time>2013-09-19T11:10:09Z</time>
      </trkpt>
      <trkpt lat="45.902781430631876" lon="7.909870930016041">
        <ele>2249.1399999999999</ele>
        <time>2013-09-19T11:10:43Z</time>
      </trkpt>
      <trkpt lat="45.902777155861259" lon="7.909862715750933">
        <ele>2249.6199999999999</ele>
        <time>2013-09-19T11:11:18Z</time>
      </trkpt>
      <trkpt lat="45.902765253558755" lon="7.909879144281149">
        <ele>2250.0999999999999</ele>
        <time>2013-09-19T11:11:42Z</time>
      </trkpt>
      <trkpt lat="45.902753686532378" lon="7.909881491214037">
        <ele>2250.0999999999999</ele>
        <time>2013-09-19T11:12:09Z</time>
      </trkpt>
      <trkpt lat="45.902775144204497" lon="7.909871265292168">
        <ele>2250.0999999999999</ele>
        <time>2013-09-19T11:12:31Z</time>
      </trkpt>
      <trkpt lat="45.902784029021859" lon="7.909856764599681">
        <ele>2250.0999999999999</ele>
        <time>2013-09-19T11:13:05Z</time>
      </trkpt>
      <trkpt lat="45.902776652947068" lon="7.909874534234405">
        <ele>2249.6199999999999</ele>
        <time>2013-09-19T11:13:38Z</time>
      </trkpt>
      <trkpt lat="45.902772629633546" lon="7.909870259463787">
        <ele>2249.1399999999999</ele>
        <time>2013-09-19T11:14:07Z</time>
      </trkpt>
      <trkpt lat="45.902789896354079" lon="7.90986942127347">
        <ele>2250.0999999999999</ele>
        <time>2013-09-19T11:14:43Z</time>
      </trkpt>
      <trkpt lat="45.90278553776443" lon="7.909856513142586">
        <ele>2249.6199999999999</ele>
        <time>2013-09-19T11:15:13Z</time>
      </trkpt>
      <trkpt lat="45.902785621583462" lon="7.909865230321884">
        <ele>2249.6199999999999</ele>
        <time>2013-09-19T11:15:49Z</time>
      </trkpt>
      <trkpt lat="45.902778664603829" lon="7.909854501485825">
        <ele>2250.0999999999999</ele>
        <time>2013-09-19T11:16:22Z</time>
      </trkpt>
      <trkpt lat="45.902772294357419" lon="7.909867828711867">
        <ele>2250.0999999999999</ele>
        <time>2013-09-19T11:17:04Z</time>
      </trkpt>
      <trkpt lat="45.90277623385191" lon="7.909866236150265">
        <ele>2249.6199999999999</ele>
        <time>2013-09-19T11:17:31Z</time>
      </trkpt>
      <trkpt lat="45.902775898575783" lon="7.909866236150265">
        <ele>2250.0999999999999</ele>
        <time>2013-09-19T11:18:06Z</time>
      </trkpt>
      <trkpt lat="45.902775982394814" lon="7.909866236150265">
        <ele>2250.0999999999999</ele>
        <time>2013-09-19T11:18:43Z</time>
      </trkpt>
      <trkpt lat="45.902777072042227" lon="7.9098747856915">
        <ele>2249.6199999999999</ele>
        <time>2013-09-19T11:19:20Z</time>
      </trkpt>
      <trkpt lat="45.902776652947068" lon="7.909867661073804">
        <ele>2250.0999999999999</ele>
        <time>2013-09-19T11:19:57Z</time>
      </trkpt>
      <trkpt lat="45.902772713452578" lon="7.909858524799347">
        <ele>2249.6199999999999</ele>
        <time>2013-09-19T11:20:32Z</time>
      </trkpt>
      <trkpt lat="45.902777658775449" lon="7.909866739064455">
        <ele>2249.1399999999999</ele>
        <time>2013-09-19T11:21:15Z</time>
      </trkpt>
      <trkpt lat="45.902765588834882" lon="7.909889370203018">
        <ele>2249.6199999999999</ele>
        <time>2013-09-19T11:22:00Z</time>
      </trkpt>
      <trkpt lat="45.90275963768363" lon="7.909882245585322">
        <ele>2249.6199999999999</ele>
        <time>2013-09-19T11:22:34Z</time>
      </trkpt>
      <trkpt lat="45.902781933546066" lon="7.909879647195339">
        <ele>2249.1399999999999</ele>
        <time>2013-09-19T11:23:20Z</time>
      </trkpt>
      <trkpt lat="45.902772797271609" lon="7.909878892824054">
        <ele>2249.1399999999999</ele>
        <time>2013-09-19T11:23:53Z</time>
      </trkpt>
      <trkpt lat="45.902770534157753" lon="7.909886101260781">
        <ele>2249.1399999999999</ele>
        <time>2013-09-19T11:24:32Z</time>
      </trkpt>
      <trkpt lat="45.90277430601418" lon="7.909867912530899">
        <ele>2249.1399999999999</ele>
        <time>2013-09-19T11:25:08Z</time>
      </trkpt>
      <trkpt lat="45.90275913476944" lon="7.909865146502852">
        <ele>2249.1399999999999</ele>
        <time>2013-09-19T11:25:39Z</time>
      </trkpt>
      <trkpt lat="45.902737593278289" lon="7.909883335232735">
        <ele>2249.6199999999999</ele>
        <time>2013-09-19T11:26:15Z</time>
      </trkpt>
      <trkpt lat="45.902768103405833" lon="7.909876294434071">
        <ele>2249.6199999999999</ele>
        <time>2013-09-19T11:26:44Z</time>
      </trkpt>
      <trkpt lat="45.902764834463596" lon="7.909889034926891">
        <ele>2250.0999999999999</ele>
        <time>2013-09-19T11:27:22Z</time>
      </trkpt>
      <trkpt lat="45.902761816978455" lon="7.9098747856915">
        <ele>2250.0999999999999</ele>
        <time>2013-09-19T11:27:56Z</time>
      </trkpt>
      <trkpt lat="45.902731139212847" lon="7.909848047420383">
        <ele>2250.5799999999999</ele>
        <time>2013-09-19T11:28:28Z</time>
      </trkpt>
      <trkpt lat="45.902757793664932" lon="7.909841928631067">
        <ele>2250.0999999999999</ele>
        <time>2013-09-19T11:28:53Z</time>
      </trkpt>
      <trkpt lat="45.902773551642895" lon="7.909859949722886">
        <ele>2250.5799999999999</ele>
        <time>2013-09-19T11:29:30Z</time>
      </trkpt>
      <trkpt lat="45.90276600793004" lon="7.90985525585711">
        <ele>2250.5799999999999</ele>
        <time>2013-09-19T11:30:13Z</time>
      </trkpt>
      <trkpt lat="45.902747232466936" lon="7.909855507314205">
        <ele>2250.5799999999999</ele>
        <time>2013-09-19T11:30:58Z</time>
      </trkpt>
      <trkpt lat="45.902755782008171" lon="7.909867325797677">
        <ele>2250.5799999999999</ele>
        <time>2013-09-19T11:31:35Z</time>
      </trkpt>
      <trkpt lat="45.902766427025199" lon="7.909846119582653">
        <ele>2250.5799999999999</ele>
        <time>2013-09-19T11:32:17Z</time>
      </trkpt>
      <trkpt lat="45.902747651562095" lon="7.909845029935241">
        <ele>2250.5799999999999</ele>
        <time>2013-09-19T11:32:52Z</time>
      </trkpt>
      <trkpt lat="45.902765588834882" lon="7.909857854247093">
        <ele>2250.5799999999999</ele>
        <time>2013-09-19T11:33:12Z</time>
      </trkpt>
      <trkpt lat="45.902743209153414" lon="7.909878892824054">
        <ele>2251.0599999999999</ele>
        <time>2013-09-19T11:33:22Z</time>
      </trkpt>
      <trkpt lat="45.902762236073613" lon="7.909891381859779">
        <ele>2251.0599999999999</ele>
        <time>2013-09-19T11:33:38Z</time>
      </trkpt>
      <trkpt lat="45.902752764523029" lon="7.909891046583653">
        <ele>2251.0599999999999</ele>
        <time>2013-09-19T11:34:05Z</time>
      </trkpt>
      <trkpt lat="45.902743628248572" lon="7.909911582246423">
        <ele>2250.5799999999999</ele>
        <time>2013-09-19T11:34:20Z</time>
      </trkpt>
      <trkpt lat="45.902756536379457" lon="7.909895237535238">
        <ele>2251.0599999999999</ele>
        <time>2013-09-19T11:34:45Z</time>
      </trkpt>
      <trkpt lat="45.902745891362429" lon="7.909869672730565">
        <ele>2250.5799999999999</ele>
        <time>2013-09-19T11:35:04Z</time>
      </trkpt>
      <trkpt lat="45.902702054008842" lon="7.909894231706858">
        <ele>2250.5799999999999</ele>
        <time>2013-09-19T11:35:20Z</time>
      </trkpt>
      <trkpt lat="45.902729965746403" lon="7.909883754327893">
        <ele>2250.5799999999999</ele>
        <time>2013-09-19T11:35:36Z</time>
      </trkpt>
      <trkpt lat="45.90274547226727" lon="7.909892639145255">
        <ele>2250.5799999999999</ele>
        <time>2013-09-19T11:35:53Z</time>
      </trkpt>
      <trkpt lat="45.902721080929041" lon="7.909906217828393">
        <ele>2250.0999999999999</ele>
        <time>2013-09-19T11:36:08Z</time>
      </trkpt>
      <trkpt lat="45.90270834043622" lon="7.909948462620378">
        <ele>2248.6599999999999</ele>
        <time>2013-09-19T11:36:19Z</time>
      </trkpt>
      <trkpt lat="45.902734575793147" lon="7.910061199218035">
        <ele>2248.6599999999999</ele>
        <time>2013-09-19T11:36:30Z</time>
      </trkpt>
      <trkpt lat="45.902756787836552" lon="7.91009514592588">
        <ele>2248.6599999999999</ele>
        <time>2013-09-19T11:36:43Z</time>
      </trkpt>
      <trkpt lat="45.90274790301919" lon="7.910106210038066">
        <ele>2248.6599999999999</ele>
        <time>2013-09-19T11:36:57Z</time>
      </trkpt>
      <trkpt lat="45.902738766744733" lon="7.910079890862107">
        <ele>2249.1399999999999</ele>
        <time>2013-09-19T11:37:15Z</time>
      </trkpt>
      <trkpt lat="45.902751088142395" lon="7.910063965246081">
        <ele>2248.6599999999999</ele>
        <time>2013-09-19T11:37:45Z</time>
      </trkpt>
      <trkpt lat="45.902804313227534" lon="7.910059941932559">
        <ele>2249.1399999999999</ele>
        <time>2013-09-19T11:38:00Z</time>
      </trkpt>
      <trkpt lat="45.902830297127366" lon="7.910071592777968">
        <ele>2248.1799999999998</ele>
        <time>2013-09-19T11:38:04Z</time>
      </trkpt>
      <trkpt lat="45.90295703150332" lon="7.910126326605678">
        <ele>2249.6199999999999</ele>
        <time>2013-09-19T11:38:20Z</time>
      </trkpt>
      <trkpt lat="45.902966754510999" lon="7.910141833126545">
        <ele>2249.6199999999999</ele>
        <time>2013-09-19T11:38:22Z</time>
      </trkpt>
      <trkpt lat="45.903052417561412" lon="7.910260688513517">
        <ele>2250.5799999999999</ele>
        <time>2013-09-19T11:38:39Z</time>
      </trkpt>
      <trkpt lat="45.903096003457904" lon="7.910227328538895">
        <ele>2252.0300000000002</ele>
        <time>2013-09-19T11:38:52Z</time>
      </trkpt>
      <trkpt lat="45.903111845254898" lon="7.910223305225372">
        <ele>2252.9899999999998</ele>
        <time>2013-09-19T11:38:54Z</time>
      </trkpt>
      <trkpt lat="45.9031773917377" lon="7.910231435671449">
        <ele>2255.3899999999999</ele>
        <time>2013-09-19T11:39:07Z</time>
      </trkpt>
      <trkpt lat="45.903205135837197" lon="7.910237386822701">
        <ele>2256.8299999999999</ele>
        <time>2013-09-19T11:39:17Z</time>
      </trkpt>
      <trkpt lat="45.903206979855895" lon="7.910214755684137">
        <ele>2257.79</ele>
        <time>2013-09-19T11:39:34Z</time>
      </trkpt>
      <trkpt lat="45.903279148042202" lon="7.910207295790315">
        <ele>2260.6799999999998</ele>
        <time>2013-09-19T11:39:48Z</time>
      </trkpt>
      <trkpt lat="45.903356596827507" lon="7.910182317718864">
        <ele>2262.5999999999999</ele>
        <time>2013-09-19T11:40:01Z</time>
      </trkpt>
      <trkpt lat="45.903411582112312" lon="7.910128757357597">
        <ele>2265</ele>
        <time>2013-09-19T11:40:14Z</time>
      </trkpt>
      <trkpt lat="45.903498250991106" lon="7.910113334655762">
        <ele>2267.8899999999999</ele>
        <time>2013-09-19T11:40:28Z</time>
      </trkpt>
      <trkpt lat="45.903563546016812" lon="7.910118531435728">
        <ele>2269.3299999999999</ele>
        <time>2013-09-19T11:40:39Z</time>
      </trkpt>
      <trkpt lat="45.903609143570065" lon="7.910118866711855">
        <ele>2271.25</ele>
        <time>2013-09-19T11:40:50Z</time>
      </trkpt>
      <trkpt lat="45.903661781921983" lon="7.910100007429719">
        <ele>2273.1700000000001</ele>
        <time>2013-09-19T11:41:02Z</time>
      </trkpt>
      <trkpt lat="45.903722550719976" lon="7.910111658275127">
        <ele>2274.6199999999999</ele>
        <time>2013-09-19T11:41:15Z</time>
      </trkpt>
      <trkpt lat="45.903764376416802" lon="7.910144347697496">
        <ele>2276.0599999999999</ele>
        <time>2013-09-19T11:41:26Z</time>
      </trkpt>
      <trkpt lat="45.903851296752691" lon="7.910143006592989">
        <ele>2278.46</ele>
        <time>2013-09-19T11:41:42Z</time>
      </trkpt>
      <trkpt lat="45.903883902356029" lon="7.910282481461763">
        <ele>2277.98</ele>
        <time>2013-09-19T11:41:56Z</time>
      </trkpt>
      <trkpt lat="45.903901420533657" lon="7.910382729023695">
        <ele>2276.54</ele>
        <time>2013-09-19T11:42:11Z</time>
      </trkpt>
      <trkpt lat="45.90391768142581" lon="7.910460932180286">
        <ele>2278.46</ele>
        <time>2013-09-19T11:42:26Z</time>
      </trkpt>
      <trkpt lat="45.903905108571053" lon="7.910578781738877">
        <ele>2279.9000000000001</ele>
        <time>2013-09-19T11:42:40Z</time>
      </trkpt>
      <trkpt lat="45.903879376128316" lon="7.910651871934533">
        <ele>2279.9000000000001</ele>
        <time>2013-09-19T11:42:56Z</time>
      </trkpt>
      <trkpt lat="45.903900163248181" lon="7.910717586055398">
        <ele>2280.3800000000001</ele>
        <time>2013-09-19T11:43:09Z</time>
      </trkpt>
      <trkpt lat="45.903845429420471" lon="7.910892013460398">
        <ele>2278.9400000000001</ele>
        <time>2013-09-19T11:43:24Z</time>
      </trkpt>
      <trkpt lat="45.903818607330322" lon="7.910906178876758">
        <ele>2278.9400000000001</ele>
        <time>2013-09-19T11:43:39Z</time>
      </trkpt>
      <trkpt lat="45.903861941769719" lon="7.910896707326174">
        <ele>2278.9400000000001</ele>
        <time>2013-09-19T11:44:08Z</time>
      </trkpt>
      <trkpt lat="45.903847105801105" lon="7.910971892997623">
        <ele>2278.46</ele>
        <time>2013-09-19T11:44:20Z</time>
      </trkpt>
      <trkpt lat="45.903844339773059" lon="7.910975245758891">
        <ele>2278.46</ele>
        <time>2013-09-19T11:44:22Z</time>
      </trkpt>
      <trkpt lat="45.903857247903943" lon="7.911039283499122">
        <ele>2278.9400000000001</ele>
        <time>2013-09-19T11:44:37Z</time>
      </trkpt>
      <trkpt lat="45.903832018375397" lon="7.911107093095779">
        <ele>2278.9400000000001</ele>
        <time>2013-09-19T11:44:51Z</time>
      </trkpt>
      <trkpt lat="45.90376571752131" lon="7.911132741719484">
        <ele>2277.02</ele>
        <time>2013-09-19T11:44:58Z</time>
      </trkpt>
      <trkpt lat="45.903785498812795" lon="7.911190828308463">
        <ele>2277.02</ele>
        <time>2013-09-19T11:45:05Z</time>
      </trkpt>
      <trkpt lat="45.903831264004111" lon="7.911290405318141">
        <ele>2277.98</ele>
        <time>2013-09-19T11:45:17Z</time>
      </trkpt>
      <trkpt lat="45.9038698207587" lon="7.911474388092756">
        <ele>2279.9000000000001</ele>
        <time>2013-09-19T11:45:31Z</time>
      </trkpt>
      <trkpt lat="45.903938803821802" lon="7.911620819941163">
        <ele>2281.3499999999999</ele>
        <time>2013-09-19T11:45:46Z</time>
      </trkpt>
      <trkpt lat="45.904013905674219" lon="7.911749314516783">
        <ele>2283.75</ele>
        <time>2013-09-19T11:45:59Z</time>
      </trkpt>
      <trkpt lat="45.904014660045505" lon="7.911749901250005">
        <ele>2283.75</ele>
        <time>2013-09-19T11:46:00Z</time>
      </trkpt>
      <trkpt lat="45.904026227071881" lon="7.911755936220288">
        <ele>2284.23</ele>
        <time>2013-09-19T11:46:02Z</time>
      </trkpt>
      <trkpt lat="45.904048187658191" lon="7.911845622584224">
        <ele>2283.75</ele>
        <time>2013-09-19T11:46:08Z</time>
      </trkpt>
      <trkpt lat="45.904050869867206" lon="7.911909325048327">
        <ele>2284.23</ele>
        <time>2013-09-19T11:46:13Z</time>
      </trkpt>
      <trkpt lat="45.904049947857857" lon="7.912003956735134">
        <ele>2284.71</ele>
        <time>2013-09-19T11:46:20Z</time>
      </trkpt>
      <trkpt lat="45.90405497699976" lon="7.91205458343029">
        <ele>2284.71</ele>
        <time>2013-09-19T11:46:24Z</time>
      </trkpt>
      <trkpt lat="45.904023041948676" lon="7.912188107147813">
        <ele>2284.71</ele>
        <time>2013-09-19T11:46:37Z</time>
      </trkpt>
      <trkpt lat="45.903989933431149" lon="7.912221467122436">
        <ele>2283.75</ele>
        <time>2013-09-19T11:46:49Z</time>
      </trkpt>
      <trkpt lat="45.903990268707275" lon="7.912252731621265">
        <ele>2283.75</ele>
        <time>2013-09-19T11:47:05Z</time>
      </trkpt>
      <trkpt lat="45.903999153524637" lon="7.912269830703735">
        <ele>2283.27</ele>
        <time>2013-09-19T11:47:08Z</time>
      </trkpt>
      <trkpt lat="45.903999321162701" lon="7.912334958091378">
        <ele>2282.79</ele>
        <time>2013-09-19T11:47:14Z</time>
      </trkpt>
      <trkpt lat="45.903993286192417" lon="7.912447610870004">
        <ele>2281.8299999999999</ele>
        <time>2013-09-19T11:47:28Z</time>
      </trkpt>
      <trkpt lat="45.903940564021468" lon="7.91250217705965">
        <ele>2279.9000000000001</ele>
        <time>2013-09-19T11:47:39Z</time>
      </trkpt>
      <trkpt lat="45.903940815478563" lon="7.912550205364823">
        <ele>2279.9000000000001</ele>
        <time>2013-09-19T11:47:47Z</time>
      </trkpt>
      <trkpt lat="45.90391281992197" lon="7.912611393257976">
        <ele>2278.9400000000001</ele>
        <time>2013-09-19T11:47:53Z</time>
      </trkpt>
      <trkpt lat="45.903887171298265" lon="7.912714574486017">
        <ele>2277.5</ele>
        <time>2013-09-19T11:48:05Z</time>
      </trkpt>
      <trkpt lat="45.903910975903273" lon="7.91284030303359">
        <ele>2278.46</ele>
        <time>2013-09-19T11:48:19Z</time>
      </trkpt>
      <trkpt lat="45.903915837407112" lon="7.912945998832583">
        <ele>2278.46</ele>
        <time>2013-09-19T11:48:35Z</time>
      </trkpt>
      <trkpt lat="45.903921285644174" lon="7.912959242239595">
        <ele>2277.98</ele>
        <time>2013-09-19T11:48:37Z</time>
      </trkpt>
      <trkpt lat="45.903930673375726" lon="7.913020262494683">
        <ele>2278.9400000000001</ele>
        <time>2013-09-19T11:48:43Z</time>
      </trkpt>
      <trkpt lat="45.903888428583741" lon="7.913192845880985">
        <ele>2279.9000000000001</ele>
        <time>2013-09-19T11:48:58Z</time>
      </trkpt>
      <trkpt lat="45.903877951204777" lon="7.913310192525387">
        <ele>2280.8699999999999</ele>
        <time>2013-09-19T11:49:11Z</time>
      </trkpt>
      <trkpt lat="45.903916591778398" lon="7.913398034870625">
        <ele>2282.3099999999999</ele>
        <time>2013-09-19T11:49:26Z</time>
      </trkpt>
      <trkpt lat="45.903947940096259" lon="7.913499539718032">
        <ele>2282.79</ele>
        <time>2013-09-19T11:49:39Z</time>
      </trkpt>
      <trkpt lat="45.90396168641746" lon="7.913574893027544">
        <ele>2283.27</ele>
        <time>2013-09-19T11:49:49Z</time>
      </trkpt>
      <trkpt lat="45.903924638405442" lon="7.913638344034553">
        <ele>2283.27</ele>
        <time>2013-09-19T11:50:02Z</time>
      </trkpt>
      <trkpt lat="45.903939390555024" lon="7.91364312171936">
        <ele>2283.75</ele>
        <time>2013-09-19T11:50:05Z</time>
      </trkpt>
      <trkpt lat="45.903919273987412" lon="7.913761558011174">
        <ele>2284.23</ele>
        <time>2013-09-19T11:50:16Z</time>
      </trkpt>
      <trkpt lat="45.903876861557364" lon="7.913864152505994">
        <ele>2285.1900000000001</ele>
        <time>2013-09-19T11:50:28Z</time>
      </trkpt>
      <trkpt lat="45.903816679492593" lon="7.913937661796808">
        <ele>2286.1500000000001</ele>
        <time>2013-09-19T11:50:40Z</time>
      </trkpt>
      <trkpt lat="45.903787426650524" lon="7.913975296542049">
        <ele>2286.6300000000001</ele>
        <time>2013-09-19T11:50:55Z</time>
      </trkpt>
      <trkpt lat="45.90372808277607" lon="7.914056684821844">
        <ele>2288.0799999999999</ele>
        <time>2013-09-19T11:51:09Z</time>
      </trkpt>
      <trkpt lat="45.903713162988424" lon="7.914131199941039">
        <ele>2289.52</ele>
        <time>2013-09-19T11:51:20Z</time>
      </trkpt>
      <trkpt lat="45.903689274564385" lon="7.914162464439869">
        <ele>2290</ele>
        <time>2013-09-19T11:51:31Z</time>
      </trkpt>
      <trkpt lat="45.903686508536339" lon="7.914246618747711">
        <ele>2290.96</ele>
        <time>2013-09-19T11:51:38Z</time>
      </trkpt>
      <trkpt lat="45.90370805002749" lon="7.914327001199126">
        <ele>2292.4000000000001</ele>
        <time>2013-09-19T11:51:46Z</time>
      </trkpt>
      <trkpt lat="45.903657171875238" lon="7.914447030052543">
        <ele>2292.8800000000001</ele>
        <time>2013-09-19T11:52:00Z</time>
      </trkpt>
      <trkpt lat="45.903651053085923" lon="7.914574854075909">
        <ele>2292.8800000000001</ele>
        <time>2013-09-19T11:52:15Z</time>
      </trkpt>
      <trkpt lat="45.903689945116639" lon="7.91471810080111">
        <ele>2290.48</ele>
        <time>2013-09-19T11:52:35Z</time>
      </trkpt>
      <trkpt lat="45.903728250414133" lon="7.914807619526982">
        <ele>2289.04</ele>
        <time>2013-09-19T11:52:48Z</time>
      </trkpt>
      <trkpt lat="45.903743086382747" lon="7.914824802428484">
        <ele>2288.5599999999999</ele>
        <time>2013-09-19T11:53:00Z</time>
      </trkpt>
      <trkpt lat="45.903793377801776" lon="7.914829244837165">
        <ele>2288.5599999999999</ele>
        <time>2013-09-19T11:53:35Z</time>
      </trkpt>
      <trkpt lat="45.90381165035069" lon="7.914864448830485">
        <ele>2287.5900000000001</ele>
        <time>2013-09-19T11:53:39Z</time>
      </trkpt>
      <trkpt lat="45.90384928509593" lon="7.914977604523301">
        <ele>2288.0799999999999</ele>
        <time>2013-09-19T11:53:50Z</time>
      </trkpt>
      <trkpt lat="45.903818355873227" lon="7.915028482675552">
        <ele>2288.0799999999999</ele>
        <time>2013-09-19T11:53:55Z</time>
      </trkpt>
      <trkpt lat="45.903767058625817" lon="7.915140967816114">
        <ele>2289.52</ele>
        <time>2013-09-19T11:54:09Z</time>
      </trkpt>
      <trkpt lat="45.903699081391096" lon="7.915282621979713">
        <ele>2292.4000000000001</ele>
        <time>2013-09-19T11:54:27Z</time>
      </trkpt>
      <trkpt lat="45.903642503544688" lon="7.915343642234802">
        <ele>2293.8400000000001</ele>
        <time>2013-09-19T11:54:43Z</time>
      </trkpt>
      <trkpt lat="45.903581315651536" lon="7.915401393547654">
        <ele>2296.25</ele>
        <time>2013-09-19T11:54:58Z</time>
      </trkpt>
      <trkpt lat="45.903579136356711" lon="7.915438860654831">
        <ele>2298.1700000000001</ele>
        <time>2013-09-19T11:55:04Z</time>
      </trkpt>
      <trkpt lat="45.903511829674244" lon="7.915574898943305">
        <ele>2299.1300000000001</ele>
        <time>2013-09-19T11:55:18Z</time>
      </trkpt>
      <trkpt lat="45.903480984270573" lon="7.915698196738958">
        <ele>2299.6100000000001</ele>
        <time>2013-09-19T11:55:30Z</time>
      </trkpt>
      <trkpt lat="45.903456173837185" lon="7.915791906416416">
        <ele>2300.0900000000001</ele>
        <time>2013-09-19T11:55:38Z</time>
      </trkpt>
      <trkpt lat="45.903441002592444" lon="7.915956862270832">
        <ele>2300.5700000000002</ele>
        <time>2013-09-19T11:55:53Z</time>
      </trkpt>
      <trkpt lat="45.903418036177754" lon="7.916082926094532">
        <ele>2300.0900000000001</ele>
        <time>2013-09-19T11:56:04Z</time>
      </trkpt>
      <trkpt lat="45.903429938480258" lon="7.916175713762641">
        <ele>2299.6100000000001</ele>
        <time>2013-09-19T11:56:13Z</time>
      </trkpt>
      <trkpt lat="45.90344762429595" lon="7.916211085394025">
        <ele>2299.6100000000001</ele>
        <time>2013-09-19T11:56:16Z</time>
      </trkpt>
      <trkpt lat="45.903468495234847" lon="7.916266405954957">
        <ele>2300.0900000000001</ele>
        <time>2013-09-19T11:56:21Z</time>
      </trkpt>
      <trkpt lat="45.903470003977418" lon="7.916303118690848">
        <ele>2300.0900000000001</ele>
        <time>2013-09-19T11:56:24Z</time>
      </trkpt>
      <trkpt lat="45.903527587652206" lon="7.91642289608717">
        <ele>2300.0900000000001</ele>
        <time>2013-09-19T11:56:36Z</time>
      </trkpt>
      <trkpt lat="45.903560360893607" lon="7.916507218033075">
        <ele>2301.5300000000002</ele>
        <time>2013-09-19T11:56:48Z</time>
      </trkpt>
      <trkpt lat="45.903561534360051" lon="7.916519204154611">
        <ele>2301.5300000000002</ele>
        <time>2013-09-19T11:56:49Z</time>
      </trkpt>
      <trkpt lat="45.903566814959049" lon="7.916603777557612">
        <ele>2302.0100000000002</ele>
        <time>2013-09-19T11:57:00Z</time>
      </trkpt>
      <trkpt lat="45.903576537966728" lon="7.916693044826388">
        <ele>2300.0900000000001</ele>
        <time>2013-09-19T11:57:11Z</time>
      </trkpt>
      <trkpt lat="45.903611155226827" lon="7.916795471683145">
        <ele>2302.0100000000002</ele>
        <time>2013-09-19T11:57:25Z</time>
      </trkpt>
      <trkpt lat="45.903643509373069" lon="7.916862359270454">
        <ele>2302.98</ele>
        <time>2013-09-19T11:57:38Z</time>
      </trkpt>
      <trkpt lat="45.903657088056207" lon="7.916927738115192">
        <ele>2305.3800000000001</ele>
        <time>2013-09-19T11:57:50Z</time>
      </trkpt>
      <trkpt lat="45.903679383918643" lon="7.917098393663764">
        <ele>2306.3400000000001</ele>
        <time>2013-09-19T11:58:05Z</time>
      </trkpt>
      <trkpt lat="45.903707966208458" lon="7.917224792763591">
        <ele>2306.3400000000001</ele>
        <time>2013-09-19T11:58:18Z</time>
      </trkpt>
      <trkpt lat="45.90372322127223" lon="7.917281873524189">
        <ele>2308.2600000000002</ele>
        <time>2013-09-19T11:58:32Z</time>
      </trkpt>
      <trkpt lat="45.903745517134666" lon="7.917388658970594">
        <ele>2309.2199999999998</ele>
        <time>2013-09-19T11:58:43Z</time>
      </trkpt>
      <trkpt lat="45.903742583468556" lon="7.917471220716834">
        <ele>2310.6700000000001</ele>
        <time>2013-09-19T11:58:54Z</time>
      </trkpt>
      <trkpt lat="45.903720036149025" lon="7.917490750551224">
        <ele>2310.1900000000001</ele>
        <time>2013-09-19T11:58:58Z</time>
      </trkpt>
      <trkpt lat="45.903620207682252" lon="7.917534252628684">
        <ele>2309.6999999999998</ele>
        <time>2013-09-19T11:59:09Z</time>
      </trkpt>
      <trkpt lat="45.903497077524662" lon="7.917544227093458">
        <ele>2309.6999999999998</ele>
        <time>2013-09-19T11:59:24Z</time>
      </trkpt>
      <trkpt lat="45.903467489406466" lon="7.917593261227012">
        <ele>2310.1900000000001</ele>
        <time>2013-09-19T11:59:29Z</time>
      </trkpt>
      <trkpt lat="45.903382580727339" lon="7.917689569294453">
        <ele>2310.6700000000001</ele>
        <time>2013-09-19T11:59:43Z</time>
      </trkpt>
      <trkpt lat="45.90332499705255" lon="7.917735753580928">
        <ele>2310.6700000000001</ele>
        <time>2013-09-19T11:59:53Z</time>
      </trkpt>
      <trkpt lat="45.903278728947043" lon="7.917790655046701">
        <ele>2308.7399999999998</ele>
        <time>2013-09-19T12:00:07Z</time>
      </trkpt>
      <trkpt lat="45.903235981240869" lon="7.917815297842026">
        <ele>2309.2199999999998</ele>
        <time>2013-09-19T12:00:19Z</time>
      </trkpt>
      <trkpt lat="45.903160376474261" lon="7.917864918708801">
        <ele>2307.3000000000002</ele>
        <time>2013-09-19T12:00:30Z</time>
      </trkpt>
      <trkpt lat="45.903145624324679" lon="7.91792836971581">
        <ele>2307.3000000000002</ele>
        <time>2013-09-19T12:00:36Z</time>
      </trkpt>
      <trkpt lat="45.903078150004148" lon="7.918046386912465">
        <ele>2307.7800000000002</ele>
        <time>2013-09-19T12:00:49Z</time>
      </trkpt>
      <trkpt lat="45.903021404519677" lon="7.918143281713128">
        <ele>2309.2199999999998</ele>
        <time>2013-09-19T12:01:04Z</time>
      </trkpt>
      <trkpt lat="45.90300690382719" lon="7.918129619210959">
        <ele>2309.2199999999998</ele>
        <time>2013-09-19T12:01:15Z</time>
      </trkpt>
      <trkpt lat="45.902973879128695" lon="7.918218383565545">
        <ele>2310.6700000000001</ele>
        <time>2013-09-19T12:01:29Z</time>
      </trkpt>
      <trkpt lat="45.902935573831201" lon="7.918237578123808">
        <ele>2310.6700000000001</ele>
        <time>2013-09-19T12:01:41Z</time>
      </trkpt>
      <trkpt lat="45.902889641001821" lon="7.918322235345841">
        <ele>2313.0700000000002</ele>
        <time>2013-09-19T12:01:55Z</time>
      </trkpt>
      <trkpt lat="45.902887880802155" lon="7.91842776350677">
        <ele>2313.0700000000002</ele>
        <time>2013-09-19T12:02:05Z</time>
      </trkpt>
      <trkpt lat="45.902861477807164" lon="7.918559527024627">
        <ele>2312.5900000000001</ele>
        <time>2013-09-19T12:02:17Z</time>
      </trkpt>
      <trkpt lat="45.902870194986463" lon="7.918612584471703">
        <ele>2312.1100000000001</ele>
        <time>2013-09-19T12:02:22Z</time>
      </trkpt>
      <trkpt lat="45.90288863517344" lon="7.918751137331128">
        <ele>2312.5900000000001</ele>
        <time>2013-09-19T12:02:35Z</time>
      </trkpt>
      <trkpt lat="45.902931466698647" lon="7.918854989111424">
        <ele>2312.5900000000001</ele>
        <time>2013-09-19T12:02:47Z</time>
      </trkpt>
      <trkpt lat="45.902951080352068" lon="7.919009970501065">
        <ele>2312.1100000000001</ele>
        <time>2013-09-19T12:03:01Z</time>
      </trkpt>
      <trkpt lat="45.902950577437878" lon="7.919068643823266">
        <ele>2311.6300000000001</ele>
        <time>2013-09-19T12:03:06Z</time>
      </trkpt>
      <trkpt lat="45.902951834723353" lon="7.919195797294378">
        <ele>2310.6700000000001</ele>
        <time>2013-09-19T12:03:18Z</time>
      </trkpt>
      <trkpt lat="45.90294923633337" lon="7.919305264949799">
        <ele>2311.1500000000001</ele>
        <time>2013-09-19T12:03:31Z</time>
      </trkpt>
      <trkpt lat="45.902952924370766" lon="7.91938740760088">
        <ele>2312.5900000000001</ele>
        <time>2013-09-19T12:03:40Z</time>
      </trkpt>
      <trkpt lat="45.902916295453906" lon="7.919495031237602">
        <ele>2312.1100000000001</ele>
        <time>2013-09-19T12:03:58Z</time>
      </trkpt>
      <trkpt lat="45.902927862480283" lon="7.91951447725296">
        <ele>2312.1100000000001</ele>
        <time>2013-09-19T12:04:12Z</time>
      </trkpt>
      <trkpt lat="45.90292819775641" lon="7.919650180265307">
        <ele>2311.1500000000001</ele>
        <time>2013-09-19T12:04:27Z</time>
      </trkpt>
      <trkpt lat="45.90291160158813" lon="7.919688737019897">
        <ele>2309.6999999999998</ele>
        <time>2013-09-19T12:04:32Z</time>
      </trkpt>
      <trkpt lat="45.902877151966095" lon="7.919845143333077">
        <ele>2309.2199999999998</ele>
        <time>2013-09-19T12:04:47Z</time>
      </trkpt>
      <trkpt lat="45.902824345976114" lon="7.91989610530436">
        <ele>2309.6999999999998</ele>
        <time>2013-09-19T12:05:00Z</time>
      </trkpt>
      <trkpt lat="45.90275133959949" lon="7.919943546876311">
        <ele>2309.6999999999998</ele>
        <time>2013-09-19T12:05:13Z</time>
      </trkpt>
      <trkpt lat="45.902729630470276" lon="7.919991994276643">
        <ele>2310.1900000000001</ele>
        <time>2013-09-19T12:05:20Z</time>
      </trkpt>
      <trkpt lat="45.902633741497993" lon="7.920068521052599">
        <ele>2311.1500000000001</ele>
        <time>2013-09-19T12:05:34Z</time>
      </trkpt>
      <trkpt lat="45.902595100924373" lon="7.920100539922714">
        <ele>2312.1100000000001</ele>
        <time>2013-09-19T12:05:40Z</time>
      </trkpt>
      <trkpt lat="45.902507342398167" lon="7.920132307335734">
        <ele>2312.1100000000001</ele>
        <time>2013-09-19T12:05:53Z</time>
      </trkpt>
      <trkpt lat="45.902439365163445" lon="7.920223921537399">
        <ele>2314.5100000000002</ele>
        <time>2013-09-19T12:06:07Z</time>
      </trkpt>
      <trkpt lat="45.902426959946752" lon="7.920279577374458">
        <ele>2315.9499999999998</ele>
        <time>2013-09-19T12:06:18Z</time>
      </trkpt>
      <trkpt lat="45.902365436777472" lon="7.920353505760431">
        <ele>2315.9499999999998</ele>
        <time>2013-09-19T12:06:31Z</time>
      </trkpt>
      <trkpt lat="45.902352444827557" lon="7.920431708917022">
        <ele>2317.8800000000001</ele>
        <time>2013-09-19T12:06:43Z</time>
      </trkpt>
      <trkpt lat="45.902339620515704" lon="7.920466577634215">
        <ele>2318.3600000000001</ele>
        <time>2013-09-19T12:06:47Z</time>
      </trkpt>
      <trkpt lat="45.902333837002516" lon="7.920474372804165">
        <ele>2319.3200000000002</ele>
        <time>2013-09-19T12:06:58Z</time>
      </trkpt>
      <trkpt lat="45.902291173115373" lon="7.920560287311673">
        <ele>2319.3200000000002</ele>
        <time>2013-09-19T12:07:16Z</time>
      </trkpt>
      <trkpt lat="45.902240043506026" lon="7.920638406649232">
        <ele>2317.8800000000001</ele>
        <time>2013-09-19T12:07:26Z</time>
      </trkpt>
      <trkpt lat="45.902170641347766" lon="7.920699845999479">
        <ele>2314.9899999999998</ele>
        <time>2013-09-19T12:07:40Z</time>
      </trkpt>
      <trkpt lat="45.902138371020555" lon="7.920749383047223">
        <ele>2314.5100000000002</ele>
        <time>2013-09-19T12:07:53Z</time>
      </trkpt>
      <trkpt lat="45.902094030752778" lon="7.920731361955404">
        <ele>2314.0300000000002</ele>
        <time>2013-09-19T12:08:01Z</time>
      </trkpt>
      <trkpt lat="45.902087492868304" lon="7.920766146853566">
        <ele>2313.5500000000002</ele>
        <time>2013-09-19T12:08:04Z</time>
      </trkpt>
      <trkpt lat="45.90207651257515" lon="7.920830603688955">
        <ele>2314.5100000000002</ele>
        <time>2013-09-19T12:08:10Z</time>
      </trkpt>
      <trkpt lat="45.902081793174148" lon="7.920848540961742">
        <ele>2315.9499999999998</ele>
        <time>2013-09-19T12:08:14Z</time>
      </trkpt>
      <trkpt lat="45.902039129287004" lon="7.920915093272924">
        <ele>2317.8800000000001</ele>
        <time>2013-09-19T12:08:29Z</time>
      </trkpt>
      <trkpt lat="45.902031334117055" lon="7.920976364985108">
        <ele>2318.8400000000001</ele>
        <time>2013-09-19T12:08:44Z</time>
      </trkpt>
      <trkpt lat="45.902025382965803" lon="7.921052388846874">
        <ele>2321.7199999999998</ele>
        <time>2013-09-19T12:08:59Z</time>
      </trkpt>
      <trkpt lat="45.901965117082" lon="7.921109972521663">
        <ele>2322.1999999999998</ele>
        <time>2013-09-19T12:09:12Z</time>
      </trkpt>
      <trkpt lat="45.901932008564472" lon="7.921159509569407">
        <ele>2323.1599999999999</ele>
        <time>2013-09-19T12:09:25Z</time>
      </trkpt>
      <trkpt lat="45.901984311640263" lon="7.921241652220488">
        <ele>2325.5700000000002</ele>
        <time>2013-09-19T12:09:40Z</time>
      </trkpt>
      <trkpt lat="45.901933601126075" lon="7.921217093244195">
        <ele>2326.0500000000002</ele>
        <time>2013-09-19T12:09:53Z</time>
      </trkpt>
      <trkpt lat="45.901954639703035" lon="7.921191863715649">
        <ele>2326.0500000000002</ele>
        <time>2013-09-19T12:10:13Z</time>
      </trkpt>
      <trkpt lat="45.901954052969813" lon="7.92119043879211">
        <ele>2326.5300000000002</ele>
        <time>2013-09-19T12:10:32Z</time>
      </trkpt>
      <trkpt lat="45.901947682723403" lon="7.921175938099623">
        <ele>2327.0100000000002</ele>
        <time>2013-09-19T12:11:10Z</time>
      </trkpt>
      <trkpt lat="45.901945168152452" lon="7.921187086030841">
        <ele>2326.5300000000002</ele>
        <time>2013-09-19T12:11:39Z</time>
      </trkpt>
      <trkpt lat="45.901952125132084" lon="7.921244250610471">
        <ele>2327.0100000000002</ele>
        <time>2013-09-19T12:11:44Z</time>
      </trkpt>
      <trkpt lat="45.901900241151452" lon="7.921347180381417">
        <ele>2327.4899999999998</ele>
        <time>2013-09-19T12:11:56Z</time>
      </trkpt>
      <trkpt lat="45.901785492897034" lon="7.921431669965386">
        <ele>2327.4899999999998</ele>
        <time>2013-09-19T12:12:11Z</time>
      </trkpt>
      <trkpt lat="45.901777194812894" lon="7.921450193971396">
        <ele>2327.4899999999998</ele>
        <time>2013-09-19T12:12:13Z</time>
      </trkpt>
      <trkpt lat="45.901751881465316" lon="7.921485062688589">
        <ele>2327.9699999999998</ele>
        <time>2013-09-19T12:12:21Z</time>
      </trkpt>
      <trkpt lat="45.901744421571493" lon="7.921523619443178">
        <ele>2328.9299999999998</ele>
        <time>2013-09-19T12:12:33Z</time>
      </trkpt>
      <trkpt lat="45.901708211749792" lon="7.921500653028488">
        <ele>2328.4499999999998</ele>
        <time>2013-09-19T12:12:53Z</time>
      </trkpt>
      <trkpt lat="45.90170418843627" lon="7.921522865071893">
        <ele>2327.9699999999998</ele>
        <time>2013-09-19T12:13:10Z</time>
      </trkpt>
      <trkpt lat="45.901698069646955" lon="7.921565528959036">
        <ele>2328.9299999999998</ele>
        <time>2013-09-19T12:13:17Z</time>
      </trkpt>
      <trkpt lat="45.901677533984184" lon="7.921594111248851">
        <ele>2328.9299999999998</ele>
        <time>2013-09-19T12:13:20Z</time>
      </trkpt>
      <trkpt lat="45.901619866490364" lon="7.921637613326311">
        <ele>2328.4499999999998</ele>
        <time>2013-09-19T12:13:26Z</time>
      </trkpt>
      <trkpt lat="45.901510147377849" lon="7.921781362965703">
        <ele>2328.4499999999998</ele>
        <time>2013-09-19T12:13:41Z</time>
      </trkpt>
      <trkpt lat="45.901470081880689" lon="7.921856129541993">
        <ele>2330.3699999999999</ele>
        <time>2013-09-19T12:13:54Z</time>
      </trkpt>
      <trkpt lat="45.901466812938452" lon="7.921865014359355">
        <ele>2330.8499999999999</ele>
        <time>2013-09-19T12:13:55Z</time>
      </trkpt>
      <trkpt lat="45.901432782411575" lon="7.921912875026465">
        <ele>2331.3299999999999</ele>
        <time>2013-09-19T12:14:02Z</time>
      </trkpt>
      <trkpt lat="45.901373354718089" lon="7.921948414295912">
        <ele>2331.3299999999999</ele>
        <time>2013-09-19T12:14:08Z</time>
      </trkpt>
      <trkpt lat="45.901300767436624" lon="7.92202309705317">
        <ele>2330.8499999999999</ele>
        <time>2013-09-19T12:14:17Z</time>
      </trkpt>
      <trkpt lat="45.901279896497726" lon="7.922087972983718">
        <ele>2331.3299999999999</ele>
        <time>2013-09-19T12:14:22Z</time>
      </trkpt>
      <trkpt lat="45.901256343349814" lon="7.922147233039141">
        <ele>2331.8099999999999</ele>
        <time>2013-09-19T12:14:29Z</time>
      </trkpt>
      <trkpt lat="45.901239831000566" lon="7.922279164195061">
        <ele>2331.3299999999999</ele>
        <time>2013-09-19T12:14:38Z</time>
      </trkpt>
      <trkpt lat="45.901218457147479" lon="7.922326605767012">
        <ele>2331.8099999999999</ele>
        <time>2013-09-19T12:14:42Z</time>
      </trkpt>
      <trkpt lat="45.90120236389339" lon="7.922383937984705">
        <ele>2332.3000000000002</ele>
        <time>2013-09-19T12:14:47Z</time>
      </trkpt>
      <trkpt lat="45.901164896786213" lon="7.922416292130947">
        <ele>2331.8099999999999</ele>
        <time>2013-09-19T12:14:52Z</time>
      </trkpt>
      <trkpt lat="45.901162549853325" lon="7.922453675419092">
        <ele>2331.8099999999999</ele>
        <time>2013-09-19T12:14:56Z</time>
      </trkpt>
      <trkpt lat="45.901129525154829" lon="7.922463733702898">
        <ele>2331.8099999999999</ele>
        <time>2013-09-19T12:14:59Z</time>
      </trkpt>
      <trkpt lat="45.901025673374534" lon="7.922552330419421">
        <ele>2330.8499999999999</ele>
        <time>2013-09-19T12:15:12Z</time>
      </trkpt>
      <trkpt lat="45.900901118293405" lon="7.92254688218236">
        <ele>2328.9299999999998</ele>
        <time>2013-09-19T12:15:25Z</time>
      </trkpt>
      <trkpt lat="45.900761308148503" lon="7.92261578142643">
        <ele>2327.4899999999998</ele>
        <time>2013-09-19T12:15:39Z</time>
      </trkpt>
      <trkpt lat="45.90074990876019" lon="7.922654757276177">
        <ele>2327.4899999999998</ele>
        <time>2013-09-19T12:15:42Z</time>
      </trkpt>
      <trkpt lat="45.900739263743162" lon="7.922678897157311">
        <ele>2327.4899999999998</ele>
        <time>2013-09-19T12:15:44Z</time>
      </trkpt>
      <trkpt lat="45.900701796635985" lon="7.922811079770327">
        <ele>2328.4499999999998</ele>
        <time>2013-09-19T12:15:57Z</time>
      </trkpt>
      <trkpt lat="45.900688888505101" lon="7.922845864668489">
        <ele>2328.4499999999998</ele>
        <time>2013-09-19T12:16:00Z</time>
      </trkpt>
      <trkpt lat="45.90055544860661" lon="7.922992883250117">
        <ele>2328.9299999999998</ele>
        <time>2013-09-19T12:16:16Z</time>
      </trkpt>
      <trkpt lat="45.900508007034659" lon="7.923004366457462">
        <ele>2327.9699999999998</ele>
        <time>2013-09-19T12:16:20Z</time>
      </trkpt>
      <trkpt lat="45.900367107242346" lon="7.923122802749276">
        <ele>2326.5300000000002</ele>
        <time>2013-09-19T12:16:34Z</time>
      </trkpt>
      <trkpt lat="45.900333495810628" lon="7.923131603747606">
        <ele>2325.5700000000002</ele>
        <time>2013-09-19T12:16:37Z</time>
      </trkpt>
      <trkpt lat="45.900256717577577" lon="7.923108553513885">
        <ele>2325.0900000000001</ele>
        <time>2013-09-19T12:16:43Z</time>
      </trkpt>
      <trkpt lat="45.900187063962221" lon="7.923142164945602">
        <ele>2324.1199999999999</ele>
        <time>2013-09-19T12:16:51Z</time>
      </trkpt>
      <trkpt lat="45.900108274072409" lon="7.923191115260124">
        <ele>2322.6799999999998</ele>
        <time>2013-09-19T12:16:58Z</time>
      </trkpt>
      <trkpt lat="45.900084720924497" lon="7.923216428607702">
        <ele>2322.6799999999998</ele>
        <time>2013-09-19T12:17:01Z</time>
      </trkpt>
      <trkpt lat="45.899979947134852" lon="7.923279125243425">
        <ele>2321.2399999999998</ele>
        <time>2013-09-19T12:17:13Z</time>
      </trkpt>
      <trkpt lat="45.899932505562901" lon="7.923333859071136">
        <ele>2322.1999999999998</ele>
        <time>2013-09-19T12:17:20Z</time>
      </trkpt>
      <trkpt lat="45.899870311841369" lon="7.923351041972637">
        <ele>2321.7199999999998</ele>
        <time>2013-09-19T12:17:27Z</time>
      </trkpt>
      <trkpt lat="45.899711474776268" lon="7.923399405553937">
        <ele>2320.2800000000002</ele>
        <time>2013-09-19T12:17:42Z</time>
      </trkpt>
      <trkpt lat="45.899663111194968" lon="7.923420444130898">
        <ele>2320.2800000000002</ele>
        <time>2013-09-19T12:17:57Z</time>
      </trkpt>
      <trkpt lat="45.899647772312164" lon="7.92343812994659">
        <ele>2319.8000000000002</ele>
        <time>2013-09-19T12:17:59Z</time>
      </trkpt>
      <trkpt lat="45.899570910260081" lon="7.923504179343581">
        <ele>2318.3600000000001</ele>
        <time>2013-09-19T12:18:08Z</time>
      </trkpt>
      <trkpt lat="45.899467812851071" lon="7.92351633310318">
        <ele>2317.4000000000001</ele>
        <time>2013-09-19T12:18:19Z</time>
      </trkpt>
      <trkpt lat="45.89943160302937" lon="7.923566121608019">
        <ele>2317.8800000000001</ele>
        <time>2013-09-19T12:18:31Z</time>
      </trkpt>
      <trkpt lat="45.89940276928246" lon="7.923606690019369">
        <ele>2316.4299999999998</ele>
        <time>2013-09-19T12:18:49Z</time>
      </trkpt>
      <trkpt lat="45.89935977011919" lon="7.923667291179299">
        <ele>2315.4699999999998</ele>
        <time>2013-09-19T12:18:58Z</time>
      </trkpt>
      <trkpt lat="45.89931333437562" lon="7.923657149076462">
        <ele>2314.0300000000002</ele>
        <time>2013-09-19T12:19:04Z</time>
      </trkpt>
      <trkpt lat="45.899153407663107" lon="7.923661591485143">
        <ele>2311.1500000000001</ele>
        <time>2013-09-19T12:19:19Z</time>
      </trkpt>
      <trkpt lat="45.899106049910188" lon="7.923653041943908">
        <ele>2311.1500000000001</ele>
        <time>2013-09-19T12:19:30Z</time>
      </trkpt>
      <trkpt lat="45.899035893380642" lon="7.923712469637394">
        <ele>2313.5500000000002</ele>
        <time>2013-09-19T12:19:43Z</time>
      </trkpt>
      <trkpt lat="45.89891561307013" lon="7.923747086897492">
        <ele>2310.6700000000001</ele>
        <time>2013-09-19T12:19:56Z</time>
      </trkpt>
      <trkpt lat="45.898911086842418" lon="7.923792600631714">
        <ele>2310.1900000000001</ele>
        <time>2013-09-19T12:20:02Z</time>
      </trkpt>
      <trkpt lat="45.898916283622384" lon="7.923939116299152">
        <ele>2311.6300000000001</ele>
        <time>2013-09-19T12:20:15Z</time>
      </trkpt>
      <trkpt lat="45.898914942517877" lon="7.923961160704494">
        <ele>2312.5900000000001</ele>
        <time>2013-09-19T12:20:20Z</time>
      </trkpt>
      <trkpt lat="45.898915277794003" lon="7.924064928665757">
        <ele>2316.4299999999998</ele>
        <time>2013-09-19T12:20:33Z</time>
      </trkpt>
      <trkpt lat="45.898913014680147" lon="7.924080267548561">
        <ele>2316.9099999999999</ele>
        <time>2013-09-19T12:20:35Z</time>
      </trkpt>
      <trkpt lat="45.898866495117545" lon="7.924133827909827">
        <ele>2318.3600000000001</ele>
        <time>2013-09-19T12:20:47Z</time>
      </trkpt>
      <trkpt lat="45.898859035223722" lon="7.92415495030582">
        <ele>2317.8800000000001</ele>
        <time>2013-09-19T12:20:49Z</time>
      </trkpt>
      <trkpt lat="45.898837661370635" lon="7.924207169562578">
        <ele>2318.3600000000001</ele>
        <time>2013-09-19T12:20:54Z</time>
      </trkpt>
      <trkpt lat="45.898779071867466" lon="7.924290066584945">
        <ele>2316.9099999999999</ele>
        <time>2013-09-19T12:21:05Z</time>
      </trkpt>
      <trkpt lat="45.89877488091588" lon="7.924351757392287">
        <ele>2316.9099999999999</ele>
        <time>2013-09-19T12:21:11Z</time>
      </trkpt>
      <trkpt lat="45.898759374395013" lon="7.924383021891117">
        <ele>2316.4299999999998</ele>
        <time>2013-09-19T12:21:14Z</time>
      </trkpt>
      <trkpt lat="45.898669604212046" lon="7.924465080723167">
        <ele>2314.9899999999998</ele>
        <time>2013-09-19T12:21:26Z</time>
      </trkpt>
      <trkpt lat="45.898547228425741" lon="7.924463739618659">
        <ele>2313.5500000000002</ele>
        <time>2013-09-19T12:21:39Z</time>
      </trkpt>
      <trkpt lat="45.898520741611719" lon="7.924443706870079">
        <ele>2312.1100000000001</ele>
        <time>2013-09-19T12:21:42Z</time>
      </trkpt>
      <trkpt lat="45.898487633094192" lon="7.924426272511482">
        <ele>2310.6700000000001</ele>
        <time>2013-09-19T12:21:47Z</time>
      </trkpt>
      <trkpt lat="45.898454273119569" lon="7.924405736848712">
        <ele>2308.7399999999998</ele>
        <time>2013-09-19T12:22:02Z</time>
      </trkpt>
      <trkpt lat="45.898442957550287" lon="7.924416465684772">
        <ele>2310.1900000000001</ele>
        <time>2013-09-19T12:22:05Z</time>
      </trkpt>
      <trkpt lat="45.898438263684511" lon="7.92441738769412">
        <ele>2309.6999999999998</ele>
        <time>2013-09-19T12:22:06Z</time>
      </trkpt>
      <trkpt lat="45.898388642817736" lon="7.924421578645706">
        <ele>2309.6999999999998</ele>
        <time>2013-09-19T12:22:13Z</time>
      </trkpt>
      <trkpt lat="45.898363413289189" lon="7.924418225884438">
        <ele>2309.2199999999998</ele>
        <time>2013-09-19T12:22:16Z</time>
      </trkpt>
      <trkpt lat="45.898339860141277" lon="7.924432223662734">
        <ele>2308.7399999999998</ele>
        <time>2013-09-19T12:22:19Z</time>
      </trkpt>
      <trkpt lat="45.898219244554639" lon="7.924441946670413">
        <ele>2307.7800000000002</ele>
        <time>2013-09-19T12:22:32Z</time>
      </trkpt>
      <trkpt lat="45.898161912336946" lon="7.92441587895155">
        <ele>2307.3000000000002</ele>
        <time>2013-09-19T12:22:37Z</time>
      </trkpt>
      <trkpt lat="45.898136012256145" lon="7.924391655251384">
        <ele>2307.3000000000002</ele>
        <time>2013-09-19T12:22:39Z</time>
      </trkpt>
      <trkpt lat="45.897978432476521" lon="7.924370868131518">
        <ele>2305.8600000000001</ele>
        <time>2013-09-19T12:22:54Z</time>
      </trkpt>
      <trkpt lat="45.897947754710913" lon="7.924391236156225">
        <ele>2306.3400000000001</ele>
        <time>2013-09-19T12:22:58Z</time>
      </trkpt>
      <trkpt lat="45.897829905152321" lon="7.924373634159565">
        <ele>2304.4200000000001</ele>
        <time>2013-09-19T12:23:10Z</time>
      </trkpt>
      <trkpt lat="45.897696213796735" lon="7.924413783475757">
        <ele>2305.3800000000001</ele>
        <time>2013-09-19T12:23:25Z</time>
      </trkpt>
      <trkpt lat="45.897663859650493" lon="7.924392325803638">
        <ele>2303.46</ele>
        <time>2013-09-19T12:23:41Z</time>
      </trkpt>
      <trkpt lat="45.897554475814104" lon="7.924455776810646">
        <ele>2303.46</ele>
        <time>2013-09-19T12:23:53Z</time>
      </trkpt>
      <trkpt lat="45.89753519743681" lon="7.924508415162563">
        <ele>2303.46</ele>
        <time>2013-09-19T12:23:58Z</time>
      </trkpt>
      <trkpt lat="45.897499322891235" lon="7.924549235031009">
        <ele>2303.46</ele>
        <time>2013-09-19T12:24:04Z</time>
      </trkpt>
      <trkpt lat="45.897489013150334" lon="7.924583768472076">
        <ele>2302.98</ele>
        <time>2013-09-19T12:24:07Z</time>
      </trkpt>
      <trkpt lat="45.897439476102591" lon="7.924620313569903">
        <ele>2302.0100000000002</ele>
        <time>2013-09-19T12:24:18Z</time>
      </trkpt>
      <trkpt lat="45.897429333999753" lon="7.924639172852039">
        <ele>2302.0100000000002</ele>
        <time>2013-09-19T12:24:20Z</time>
      </trkpt>
      <trkpt lat="45.897410977631807" lon="7.924657948315144">
        <ele>2302.0100000000002</ele>
        <time>2013-09-19T12:24:23Z</time>
      </trkpt>
      <trkpt lat="45.897375773638487" lon="7.924666162580252">
        <ele>2301.5300000000002</ele>
        <time>2013-09-19T12:24:27Z</time>
      </trkpt>
      <trkpt lat="45.897306287661195" lon="7.924726512283087">
        <ele>2301.5300000000002</ele>
        <time>2013-09-19T12:24:40Z</time>
      </trkpt>
      <trkpt lat="45.897176032885909" lon="7.924819551408291">
        <ele>2300.0900000000001</ele>
        <time>2013-09-19T12:24:54Z</time>
      </trkpt>
      <trkpt lat="45.897148791700602" lon="7.924822401255369">
        <ele>2299.6100000000001</ele>
        <time>2013-09-19T12:25:03Z</time>
      </trkpt>
      <trkpt lat="45.897097494453192" lon="7.924798345193267">
        <ele>2299.1300000000001</ele>
        <time>2013-09-19T12:25:08Z</time>
      </trkpt>
      <trkpt lat="45.897032283246517" lon="7.924788286909461">
        <ele>2298.1700000000001</ele>
        <time>2013-09-19T12:25:15Z</time>
      </trkpt>
      <trkpt lat="45.896944440901279" lon="7.924828100949526">
        <ele>2295.77</ele>
        <time>2013-09-19T12:25:30Z</time>
      </trkpt>
      <trkpt lat="45.896951062604785" lon="7.924846624955535">
        <ele>2294.8000000000002</ele>
        <time>2013-09-19T12:25:45Z</time>
      </trkpt>
      <trkpt lat="45.896914517506957" lon="7.924897922202945">
        <ele>2293.8400000000001</ele>
        <time>2013-09-19T12:26:03Z</time>
      </trkpt>
      <trkpt lat="45.896824998781085" lon="7.925023818388581">
        <ele>2292.8800000000001</ele>
        <time>2013-09-19T12:26:19Z</time>
      </trkpt>
      <trkpt lat="45.896800188347697" lon="7.925036391243339">
        <ele>2291.4400000000001</ele>
        <time>2013-09-19T12:26:35Z</time>
      </trkpt>
      <trkpt lat="45.896793818101287" lon="7.925017699599266">
        <ele>2291.4400000000001</ele>
        <time>2013-09-19T12:26:40Z</time>
      </trkpt>
      <trkpt lat="45.896737324073911" lon="7.924928516149521">
        <ele>2291.4400000000001</ele>
        <time>2013-09-19T12:26:48Z</time>
      </trkpt>
      <trkpt lat="45.896718967705965" lon="7.924921391531825">
        <ele>2290.48</ele>
        <time>2013-09-19T12:26:50Z</time>
      </trkpt>
      <trkpt lat="45.896708155050874" lon="7.924891384318471">
        <ele>2290.48</ele>
        <time>2013-09-19T12:26:52Z</time>
      </trkpt>
      <trkpt lat="45.896710501983762" lon="7.924797087907791">
        <ele>2290.96</ele>
        <time>2013-09-19T12:27:07Z</time>
      </trkpt>
      <trkpt lat="45.896720308810472" lon="7.924791891127825">
        <ele>2290.96</ele>
        <time>2013-09-19T12:27:22Z</time>
      </trkpt>
      <trkpt lat="45.896704467013478" lon="7.924813348799944">
        <ele>2289.52</ele>
        <time>2013-09-19T12:27:36Z</time>
      </trkpt>
      <trkpt lat="45.89671385474503" lon="7.924825418740511">
        <ele>2289.52</ele>
        <time>2013-09-19T12:28:14Z</time>
      </trkpt>
      <trkpt lat="45.896717961877584" lon="7.924809157848358">
        <ele>2290</ele>
        <time>2013-09-19T12:29:05Z</time>
      </trkpt>
      <trkpt lat="45.896725337952375" lon="7.924813684076071">
        <ele>2289.52</ele>
        <time>2013-09-19T12:29:46Z</time>
      </trkpt>
      <trkpt lat="45.896724835038185" lon="7.924819970503449">
        <ele>2289.04</ele>
        <time>2013-09-19T12:30:19Z</time>
      </trkpt>
      <trkpt lat="45.896723913028836" lon="7.924811085686088">
        <ele>2289.04</ele>
        <time>2013-09-19T12:31:04Z</time>
      </trkpt>
      <trkpt lat="45.896712932735682" lon="7.924806978553534">
        <ele>2288.5599999999999</ele>
        <time>2013-09-19T12:31:33Z</time>
      </trkpt>
      <trkpt lat="45.896728355437517" lon="7.924813767895103">
        <ele>2289.04</ele>
        <time>2013-09-19T12:32:03Z</time>
      </trkpt>
      <trkpt lat="45.896717039868236" lon="7.924807397648692">
        <ele>2289.04</ele>
        <time>2013-09-19T12:32:35Z</time>
      </trkpt>
      <trkpt lat="45.896726930513978" lon="7.924806559458375">
        <ele>2288.5599999999999</ele>
        <time>2013-09-19T12:33:07Z</time>
      </trkpt>
      <trkpt lat="45.896725002676249" lon="7.92481510899961">
        <ele>2289.52</ele>
        <time>2013-09-19T12:33:38Z</time>
      </trkpt>
      <trkpt lat="45.89673531241715" lon="7.924816366285086">
        <ele>2289.04</ele>
        <time>2013-09-19T12:34:14Z</time>
      </trkpt>
      <trkpt lat="45.896722655743361" lon="7.924833968281746">
        <ele>2290</ele>
        <time>2013-09-19T12:34:48Z</time>
      </trkpt>
      <trkpt lat="45.896706646308303" lon="7.924860455095768">
        <ele>2289.52</ele>
        <time>2013-09-19T12:34:51Z</time>
      </trkpt>
      <trkpt lat="45.896683428436518" lon="7.924847882241011">
        <ele>2288.5599999999999</ele>
        <time>2013-09-19T12:35:04Z</time>
      </trkpt>
      <trkpt lat="45.89666934683919" lon="7.924894401803613">
        <ele>2289.04</ele>
        <time>2013-09-19T12:35:32Z</time>
      </trkpt>
      <trkpt lat="45.8967016171664" lon="7.924900520592928">
        <ele>2289.04</ele>
        <time>2013-09-19T12:36:00Z</time>
      </trkpt>
      <trkpt lat="45.896716956049204" lon="7.924905130639672">
        <ele>2289.52</ele>
        <time>2013-09-19T12:36:23Z</time>
      </trkpt>
      <trkpt lat="45.896708155050874" lon="7.924870010465384">
        <ele>2290.96</ele>
        <time>2013-09-19T12:36:34Z</time>
      </trkpt>
      <trkpt lat="45.896711591631174" lon="7.924867998808622">
        <ele>2289.52</ele>
        <time>2013-09-19T12:36:40Z</time>
      </trkpt>
      <trkpt lat="45.896690050140023" lon="7.924848468974233">
        <ele>2290</ele>
        <time>2013-09-19T12:37:03Z</time>
      </trkpt>
      <trkpt lat="45.896709328517318" lon="7.924828436225653">
        <ele>2290.48</ele>
        <time>2013-09-19T12:37:19Z</time>
      </trkpt>
      <trkpt lat="45.896705640479922" lon="7.924837488681078">
        <ele>2290.48</ele>
        <time>2013-09-19T12:37:41Z</time>
      </trkpt>
      <trkpt lat="45.896696336567402" lon="7.924862969666719">
        <ele>2290.48</ele>
        <time>2013-09-19T12:38:02Z</time>
      </trkpt>
      <trkpt lat="45.896705556660891" lon="7.924885852262378">
        <ele>2290.96</ele>
        <time>2013-09-19T12:38:16Z</time>
      </trkpt>
      <trkpt lat="45.896706311032176" lon="7.924887025728822">
        <ele>2290</ele>
        <time>2013-09-19T12:38:32Z</time>
      </trkpt>
      <trkpt lat="45.896728103980422" lon="7.924903873354197">
        <ele>2290</ele>
        <time>2013-09-19T12:38:49Z</time>
      </trkpt>
      <trkpt lat="45.896701281890273" lon="7.924899179488421">
        <ele>2290</ele>
        <time>2013-09-19T12:39:12Z</time>
      </trkpt>
      <trkpt lat="45.896756770089269" lon="7.924968749284744">
        <ele>2290</ele>
        <time>2013-09-19T12:39:25Z</time>
      </trkpt>
      <trkpt lat="45.896749729290605" lon="7.924975790083408">
        <ele>2289.52</ele>
        <time>2013-09-19T12:39:36Z</time>
      </trkpt>
      <trkpt lat="45.896751908585429" lon="7.925017448142171">
        <ele>2289.52</ele>
        <time>2013-09-19T12:39:39Z</time>
      </trkpt>
      <trkpt lat="45.896664233878255" lon="7.925288015976548">
        <ele>2287.1100000000001</ele>
        <time>2013-09-19T12:39:59Z</time>
      </trkpt>
      <trkpt lat="45.896597597748041" lon="7.925415085628629">
        <ele>2284.71</ele>
        <time>2013-09-19T12:40:14Z</time>
      </trkpt>
      <trkpt lat="45.896589551120996" lon="7.925537712872028">
        <ele>2282.79</ele>
        <time>2013-09-19T12:40:28Z</time>
      </trkpt>
      <trkpt lat="45.896600782871246" lon="7.925559170544148">
        <ele>2282.79</ele>
        <time>2013-09-19T12:40:30Z</time>
      </trkpt>
      <trkpt lat="45.896608829498291" lon="7.925585238263011">
        <ele>2282.79</ele>
        <time>2013-09-19T12:40:32Z</time>
      </trkpt>
      <trkpt lat="45.896554933860898" lon="7.925755809992552">
        <ele>2282.3099999999999</ele>
        <time>2013-09-19T12:40:46Z</time>
      </trkpt>
      <trkpt lat="45.896475808694959" lon="7.925808364525437">
        <ele>2279.9000000000001</ele>
        <time>2013-09-19T12:40:58Z</time>
      </trkpt>
      <trkpt lat="45.896428367123008" lon="7.925939206033945">
        <ele>2278.46</ele>
        <time>2013-09-19T12:41:12Z</time>
      </trkpt>
      <trkpt lat="45.896398695185781" lon="7.926097037270665">
        <ele>2276.54</ele>
        <time>2013-09-19T12:41:29Z</time>
      </trkpt>
      <trkpt lat="45.896411519497633" lon="7.926161158829927">
        <ele>2275.5799999999999</ele>
        <time>2013-09-19T12:41:44Z</time>
      </trkpt>
      <trkpt lat="45.896416045725346" lon="7.926229890435934">
        <ele>2274.6199999999999</ele>
        <time>2013-09-19T12:41:50Z</time>
      </trkpt>
      <trkpt lat="45.896406657993793" lon="7.926318570971489">
        <ele>2273.1700000000001</ele>
        <time>2013-09-19T12:41:58Z</time>
      </trkpt>
      <trkpt lat="45.896406825631857" lon="7.926355367526412">
        <ele>2272.6900000000001</ele>
        <time>2013-09-19T12:42:01Z</time>
      </trkpt>
      <trkpt lat="45.896380003541708" lon="7.926506409421563">
        <ele>2270.77</ele>
        <time>2013-09-19T12:42:15Z</time>
      </trkpt>
      <trkpt lat="45.896359467878938" lon="7.926592156291008">
        <ele>2269.8099999999999</ele>
        <time>2013-09-19T12:42:23Z</time>
      </trkpt>
      <trkpt lat="45.896309930831194" lon="7.926693828776479">
        <ele>2268.3699999999999</ele>
        <time>2013-09-19T12:42:37Z</time>
      </trkpt>
      <trkpt lat="45.896242037415504" lon="7.926682764664292">
        <ele>2266.9299999999998</ele>
        <time>2013-09-19T12:42:50Z</time>
      </trkpt>
      <trkpt lat="45.896171797066927" lon="7.926597017794848">
        <ele>2265.48</ele>
        <time>2013-09-19T12:43:02Z</time>
      </trkpt>
      <trkpt lat="45.896175820380449" lon="7.926579331979156">
        <ele>2265.48</ele>
        <time>2013-09-19T12:43:18Z</time>
      </trkpt>
      <trkpt lat="45.89616215787828" lon="7.926548235118389">
        <ele>2265.48</ele>
        <time>2013-09-19T12:43:32Z</time>
      </trkpt>
      <trkpt lat="45.896137934178114" lon="7.926475144922733">
        <ele>2264.04</ele>
        <time>2013-09-19T12:43:51Z</time>
      </trkpt>
      <trkpt lat="45.896131312474608" lon="7.926447400823236">
        <ele>2264.04</ele>
        <time>2013-09-19T12:44:19Z</time>
      </trkpt>
      <trkpt lat="45.896136425435543" lon="7.926466260105372">
        <ele>2264.52</ele>
        <time>2013-09-19T12:44:36Z</time>
      </trkpt>
      <trkpt lat="45.89613189920783" lon="7.926430469378829">
        <ele>2264.04</ele>
        <time>2013-09-19T12:44:53Z</time>
      </trkpt>
      <trkpt lat="45.896097030490637" lon="7.926271297037602">
        <ele>2264.04</ele>
        <time>2013-09-19T12:45:06Z</time>
      </trkpt>
      <trkpt lat="45.896145729348063" lon="7.926250761374831">
        <ele>2264.52</ele>
        <time>2013-09-19T12:45:18Z</time>
      </trkpt>
      <trkpt lat="45.896156374365091" lon="7.926251767203212">
        <ele>2265.96</ele>
        <time>2013-09-19T12:45:32Z</time>
      </trkpt>
      <trkpt lat="45.896128797903657" lon="7.926247324794531">
        <ele>2265</ele>
        <time>2013-09-19T12:45:48Z</time>
      </trkpt>
      <trkpt lat="45.896135251969099" lon="7.926239697262645">
        <ele>2265</ele>
        <time>2013-09-19T12:45:49Z</time>
      </trkpt>
      <trkpt lat="45.896140448749065" lon="7.926208851858974">
        <ele>2265</ele>
        <time>2013-09-19T12:45:59Z</time>
      </trkpt>
      <trkpt lat="45.896144304424524" lon="7.926241708919406">
        <ele>2264.04</ele>
        <time>2013-09-19T12:46:06Z</time>
      </trkpt>
      <trkpt lat="45.896133743226528" lon="7.92627808637917">
        <ele>2264.52</ele>
        <time>2013-09-19T12:46:09Z</time>
      </trkpt>
      <trkpt lat="45.896101137623191" lon="7.926142299547792">
        <ele>2262.1199999999999</ele>
        <time>2013-09-19T12:46:20Z</time>
      </trkpt>
      <trkpt lat="45.896090241149068" lon="7.92610751464963">
        <ele>2261.6399999999999</ele>
        <time>2013-09-19T12:46:22Z</time>
      </trkpt>
      <trkpt lat="45.896086553111672" lon="7.926073148846626">
        <ele>2260.6799999999998</ele>
        <time>2013-09-19T12:46:24Z</time>
      </trkpt>
      <trkpt lat="45.896086636930704" lon="7.926003076136112">
        <ele>2259.7199999999998</ele>
        <time>2013-09-19T12:46:28Z</time>
      </trkpt>
      <trkpt lat="45.896090408787131" lon="7.925951946526766">
        <ele>2259.7199999999998</ele>
        <time>2013-09-19T12:46:31Z</time>
      </trkpt>
      <trkpt lat="45.895949760451913" lon="7.925779530778527">
        <ele>2259.2399999999998</ele>
        <time>2013-09-19T12:46:48Z</time>
      </trkpt>
      <trkpt lat="45.895894775167108" lon="7.925688587129116">
        <ele>2258.27</ele>
        <time>2013-09-19T12:47:04Z</time>
      </trkpt>
      <trkpt lat="45.895902570337057" lon="7.925703674554825">
        <ele>2257.79</ele>
        <time>2013-09-19T12:47:36Z</time>
      </trkpt>
      <trkpt lat="45.895781200379133" lon="7.925632260739803">
        <ele>2255.8699999999999</ele>
        <time>2013-09-19T12:47:49Z</time>
      </trkpt>
      <trkpt lat="45.895704589784145" lon="7.925599571317434">
        <ele>2255.3899999999999</ele>
        <time>2013-09-19T12:47:57Z</time>
      </trkpt>
      <trkpt lat="45.895631751045585" lon="7.925632512196899">
        <ele>2253.9499999999998</ele>
        <time>2013-09-19T12:48:04Z</time>
      </trkpt>
      <trkpt lat="45.895611215382814" lon="7.925626141950488">
        <ele>2252.5100000000002</ele>
        <time>2013-09-19T12:48:08Z</time>
      </trkpt>
      <trkpt lat="45.895481212064624" lon="7.925657406449318">
        <ele>2250.0999999999999</ele>
        <time>2013-09-19T12:48:20Z</time>
      </trkpt>
      <trkpt lat="45.895413151010871" lon="7.925629829987884">
        <ele>2248.1799999999998</ele>
        <time>2013-09-19T12:48:28Z</time>
      </trkpt>
      <trkpt lat="45.89540334418416" lon="7.925558164715767">
        <ele>2247.6999999999998</ele>
        <time>2013-09-19T12:48:33Z</time>
      </trkpt>
      <trkpt lat="45.895431926473975" lon="7.925460012629628">
        <ele>2246.7399999999998</ele>
        <time>2013-09-19T12:48:39Z</time>
      </trkpt>
      <trkpt lat="45.895449696108699" lon="7.925295894965529">
        <ele>2245.3000000000002</ele>
        <time>2013-09-19T12:48:51Z</time>
      </trkpt>
      <trkpt lat="45.895473081618547" lon="7.925199335440993">
        <ele>2244.3299999999999</ele>
        <time>2013-09-19T12:49:03Z</time>
      </trkpt>
      <trkpt lat="45.895443074405193" lon="7.925240406766534">
        <ele>2244.3299999999999</ele>
        <time>2013-09-19T12:49:24Z</time>
      </trkpt>
      <trkpt lat="45.895406361669302" lon="7.925291620194912">
        <ele>2243.3699999999999</ele>
        <time>2013-09-19T12:49:30Z</time>
      </trkpt>
      <trkpt lat="45.895318519324064" lon="7.9253941308707">
        <ele>2241.9299999999998</ele>
        <time>2013-09-19T12:49:44Z</time>
      </trkpt>
      <trkpt lat="45.895223300904036" lon="7.925489349290729">
        <ele>2240.4899999999998</ele>
        <time>2013-09-19T12:49:58Z</time>
      </trkpt>
      <trkpt lat="45.895173428580165" lon="7.925590770319104">
        <ele>2238.0900000000001</ele>
        <time>2013-09-19T12:50:11Z</time>
      </trkpt>
      <trkpt lat="45.895160855725408" lon="7.925604432821274">
        <ele>2238.0900000000001</ele>
        <time>2013-09-19T12:50:13Z</time>
      </trkpt>
      <trkpt lat="45.895107295364141" lon="7.925728652626276">
        <ele>2237.1300000000001</ele>
        <time>2013-09-19T12:50:27Z</time>
      </trkpt>
      <trkpt lat="45.895108468830585" lon="7.925821021199226">
        <ele>2235.1999999999998</ele>
        <time>2013-09-19T12:50:36Z</time>
      </trkpt>
      <trkpt lat="45.8950783777982" lon="7.925989413633943">
        <ele>2232.8000000000002</ele>
        <time>2013-09-19T12:50:51Z</time>
      </trkpt>
      <trkpt lat="45.895117521286011" lon="7.926135761663318">
        <ele>2231.3600000000001</ele>
        <time>2013-09-19T12:51:04Z</time>
      </trkpt>
      <trkpt lat="45.895125567913055" lon="7.926171636208892">
        <ele>2230.8800000000001</ele>
        <time>2013-09-19T12:51:07Z</time>
      </trkpt>
      <trkpt lat="45.895171081647277" lon="7.926327036693692">
        <ele>2228.9499999999998</ele>
        <time>2013-09-19T12:51:22Z</time>
      </trkpt>
      <trkpt lat="45.89521617628634" lon="7.92646081186831">
        <ele>2227.0300000000002</ele>
        <time>2013-09-19T12:51:37Z</time>
      </trkpt>
      <trkpt lat="45.895255822688341" lon="7.926565082743764">
        <ele>2225.1100000000001</ele>
        <time>2013-09-19T12:51:50Z</time>
      </trkpt>
      <trkpt lat="45.895256325602531" lon="7.92662057094276">
        <ele>2224.1500000000001</ele>
        <time>2013-09-19T12:52:05Z</time>
      </trkpt>
      <trkpt lat="45.895257499068975" lon="7.92666994035244">
        <ele>2224.1500000000001</ele>
        <time>2013-09-19T12:52:17Z</time>
      </trkpt>
      <trkpt lat="45.895260851830244" lon="7.926757447421551">
        <ele>2222.71</ele>
        <time>2013-09-19T12:52:29Z</time>
      </trkpt>
      <trkpt lat="45.89526160620153" lon="7.92683070525527">
        <ele>2222.2199999999998</ele>
        <time>2013-09-19T12:52:42Z</time>
      </trkpt>
      <trkpt lat="45.895302593708038" lon="7.926969090476632">
        <ele>2220.3000000000002</ele>
        <time>2013-09-19T12:52:53Z</time>
      </trkpt>
      <trkpt lat="45.895310891792178" lon="7.92707059532404">
        <ele>2218.8600000000001</ele>
        <time>2013-09-19T12:53:04Z</time>
      </trkpt>
      <trkpt lat="45.895309718325734" lon="7.927107475697994">
        <ele>2218.3800000000001</ele>
        <time>2013-09-19T12:53:22Z</time>
      </trkpt>
      <trkpt lat="45.895322961732745" lon="7.927105044946075">
        <ele>2218.3800000000001</ele>
        <time>2013-09-19T12:53:46Z</time>
      </trkpt>
      <trkpt lat="45.895328912883997" lon="7.927125412970781">
        <ele>2217.4200000000001</ele>
        <time>2013-09-19T12:54:03Z</time>
      </trkpt>
      <trkpt lat="45.8953373786062" lon="7.927178470417857">
        <ele>2216.46</ele>
        <time>2013-09-19T12:54:08Z</time>
      </trkpt>
      <trkpt lat="45.895336037501693" lon="7.927318029105663">
        <ele>2213.0900000000001</ele>
        <time>2013-09-19T12:54:22Z</time>
      </trkpt>
      <trkpt lat="45.895324638113379" lon="7.927458928897977">
        <ele>2210.6900000000001</ele>
        <time>2013-09-19T12:54:35Z</time>
      </trkpt>
      <trkpt lat="45.895320866256952" lon="7.927565379068255">
        <ele>2208.29</ele>
        <time>2013-09-19T12:54:47Z</time>
      </trkpt>
      <trkpt lat="45.895309550687671" lon="7.927553476765752">
        <ele>2207.3200000000002</ele>
        <time>2013-09-19T12:54:56Z</time>
      </trkpt>
      <trkpt lat="45.895267557352781" lon="7.927500838413835">
        <ele>2205.8800000000001</ele>
        <time>2013-09-19T12:55:09Z</time>
      </trkpt>
      <trkpt lat="45.89521667920053" lon="7.92738625779748">
        <ele>2203</ele>
        <time>2013-09-19T12:55:22Z</time>
      </trkpt>
      <trkpt lat="45.895132105797529" lon="7.927231779322028">
        <ele>2200.1100000000001</ele>
        <time>2013-09-19T12:55:36Z</time>
      </trkpt>
      <trkpt lat="45.895098075270653" lon="7.927232449874282">
        <ele>2198.1900000000001</ele>
        <time>2013-09-19T12:55:47Z</time>
      </trkpt>
      <trkpt lat="45.89509254321456" lon="7.927375277504325">
        <ele>2194.8299999999999</ele>
        <time>2013-09-19T12:56:00Z</time>
      </trkpt>
      <trkpt lat="45.895084328949451" lon="7.927408469840884">
        <ele>2194.8299999999999</ele>
        <time>2013-09-19T12:56:03Z</time>
      </trkpt>
      <trkpt lat="45.895062787458301" lon="7.927490612491965">
        <ele>2192.9000000000001</ele>
        <time>2013-09-19T12:56:12Z</time>
      </trkpt>
      <trkpt lat="45.895060272887349" lon="7.927626734599471">
        <ele>2190.02</ele>
        <time>2013-09-19T12:56:26Z</time>
      </trkpt>
      <trkpt lat="45.895054573193192" lon="7.927734693512321">
        <ele>2187.6199999999999</ele>
        <time>2013-09-19T12:56:37Z</time>
      </trkpt>
      <trkpt lat="45.894998917356133" lon="7.927718348801136">
        <ele>2185.21</ele>
        <time>2013-09-19T12:56:49Z</time>
      </trkpt>
      <trkpt lat="45.89494938030839" lon="7.927633859217167">
        <ele>2182.8099999999999</ele>
        <time>2013-09-19T12:57:03Z</time>
      </trkpt>
      <trkpt lat="45.894934628158808" lon="7.927553141489625">
        <ele>2180.8899999999999</ele>
        <time>2013-09-19T12:57:13Z</time>
      </trkpt>
      <trkpt lat="45.894871596246958" lon="7.927464628592134">
        <ele>2179.4499999999998</ele>
        <time>2013-09-19T12:57:27Z</time>
      </trkpt>
      <trkpt lat="45.894832871854305" lon="7.927380558103323">
        <ele>2177.52</ele>
        <time>2013-09-19T12:57:40Z</time>
      </trkpt>
      <trkpt lat="45.894826920703053" lon="7.927305875346065">
        <ele>2176.0799999999999</ele>
        <time>2013-09-19T12:57:51Z</time>
      </trkpt>
      <trkpt lat="45.89478962123394" lon="7.927211998030543">
        <ele>2174.6399999999999</ele>
        <time>2013-09-19T12:58:04Z</time>
      </trkpt>
      <trkpt lat="45.894747544080019" lon="7.927102446556091">
        <ele>2172.2399999999998</ele>
        <time>2013-09-19T12:58:24Z</time>
      </trkpt>
      <trkpt lat="45.894727176055312" lon="7.927030110731721">
        <ele>2170.79</ele>
        <time>2013-09-19T12:58:35Z</time>
      </trkpt>
      <trkpt lat="45.894710244610906" lon="7.927087023854256">
        <ele>2169.8299999999999</ele>
        <time>2013-09-19T12:58:48Z</time>
      </trkpt>
      <trkpt lat="45.894692977890372" lon="7.927242843434215">
        <ele>2166.9499999999998</ele>
        <time>2013-09-19T12:59:04Z</time>
      </trkpt>
      <trkpt lat="45.894660456106067" lon="7.927363375201821">
        <ele>2164.5500000000002</ele>
        <time>2013-09-19T12:59:16Z</time>
      </trkpt>
      <trkpt lat="45.894630784168839" lon="7.927494384348393">
        <ele>2161.6599999999999</ele>
        <time>2013-09-19T12:59:31Z</time>
      </trkpt>
      <trkpt lat="45.894608488306403" lon="7.92761399410665">
        <ele>2159.2600000000002</ele>
        <time>2013-09-19T12:59:44Z</time>
      </trkpt>
      <trkpt lat="45.894549395889044" lon="7.927740560844541">
        <ele>2156.3699999999999</ele>
        <time>2013-09-19T13:00:00Z</time>
      </trkpt>
      <trkpt lat="45.894499272108078" lon="7.927863439545035">
        <ele>2153.9699999999998</ele>
        <time>2013-09-19T13:00:15Z</time>
      </trkpt>
      <trkpt lat="45.894504552707076" lon="7.927935943007469">
        <ele>2152.5300000000002</ele>
        <time>2013-09-19T13:00:23Z</time>
      </trkpt>
      <trkpt lat="45.894447891041636" lon="7.927934182807803">
        <ele>2150.6100000000001</ele>
        <time>2013-09-19T13:00:34Z</time>
      </trkpt>
      <trkpt lat="45.894416626542807" lon="7.927822871133685">
        <ele>2148.6799999999998</ele>
        <time>2013-09-19T13:00:45Z</time>
      </trkpt>
      <trkpt lat="45.894415117800236" lon="7.927751122042537">
        <ele>2147.7199999999998</ele>
        <time>2013-09-19T13:00:51Z</time>
      </trkpt>
      <trkpt lat="45.894358372315764" lon="7.927609635517001">
        <ele>2145.3200000000002</ele>
        <time>2013-09-19T13:01:06Z</time>
      </trkpt>
      <trkpt lat="45.894338926300406" lon="7.927480889484286">
        <ele>2143.4000000000001</ele>
        <time>2013-09-19T13:01:18Z</time>
      </trkpt>
      <trkpt lat="45.894320318475366" lon="7.927393717691302">
        <ele>2141.9499999999998</ele>
        <time>2013-09-19T13:01:26Z</time>
      </trkpt>
      <trkpt lat="45.894322330132127" lon="7.927289195358753">
        <ele>2140.9899999999998</ele>
        <time>2013-09-19T13:01:34Z</time>
      </trkpt>
      <trkpt lat="45.894274218007922" lon="7.927133040502667">
        <ele>2139.5500000000002</ele>
        <time>2013-09-19T13:01:48Z</time>
      </trkpt>
      <trkpt lat="45.894234906882048" lon="7.927011670544744">
        <ele>2138.5900000000001</ele>
        <time>2013-09-19T13:02:02Z</time>
      </trkpt>
      <trkpt lat="45.894197607412934" lon="7.926909411326051">
        <ele>2137.1500000000001</ele>
        <time>2013-09-19T13:02:13Z</time>
      </trkpt>
      <trkpt lat="45.894144047051668" lon="7.926845289766789">
        <ele>2135.23</ele>
        <time>2013-09-19T13:02:25Z</time>
      </trkpt>
      <trkpt lat="45.894061988219619" lon="7.926761889830232">
        <ele>2133.3000000000002</ele>
        <time>2013-09-19T13:02:37Z</time>
      </trkpt>
      <trkpt lat="45.893992250785232" lon="7.926713610067964">
        <ele>2132.3400000000001</ele>
        <time>2013-09-19T13:02:46Z</time>
      </trkpt>
      <trkpt lat="45.893901893869042" lon="7.926653595641255">
        <ele>2130.9000000000001</ele>
        <time>2013-09-19T13:02:59Z</time>
      </trkpt>
      <trkpt lat="45.893815979361534" lon="7.926577823236585">
        <ele>2128.02</ele>
        <time>2013-09-19T13:03:13Z</time>
      </trkpt>
      <trkpt lat="45.893729394301772" lon="7.926524095237255">
        <ele>2126.0900000000001</ele>
        <time>2013-09-19T13:03:28Z</time>
      </trkpt>
      <trkpt lat="45.893680946901441" lon="7.926413035020232">
        <ele>2123.21</ele>
        <time>2013-09-19T13:03:39Z</time>
      </trkpt>
      <trkpt lat="45.893647754564881" lon="7.926381770521402">
        <ele>2122.73</ele>
        <time>2013-09-19T13:03:43Z</time>
      </trkpt>
      <trkpt lat="45.893608024343848" lon="7.926391661167145">
        <ele>2121.29</ele>
        <time>2013-09-19T13:03:55Z</time>
      </trkpt>
      <trkpt lat="45.893642138689756" lon="7.926517641171813">
        <ele>2119.3600000000001</ele>
        <time>2013-09-19T13:04:08Z</time>
      </trkpt>
      <trkpt lat="45.893646162003279" lon="7.926654350012541">
        <ele>2117.9200000000001</ele>
        <time>2013-09-19T13:04:22Z</time>
      </trkpt>
      <trkpt lat="45.893644904717803" lon="7.926643872633576">
        <ele>2117.9200000000001</ele>
        <time>2013-09-19T13:04:38Z</time>
      </trkpt>
      <trkpt lat="45.893652951344848" lon="7.926644207909703">
        <ele>2117.4400000000001</ele>
        <time>2013-09-19T13:04:58Z</time>
      </trkpt>
      <trkpt lat="45.89366183616221" lon="7.926673125475645">
        <ele>2117.4400000000001</ele>
        <time>2013-09-19T13:05:11Z</time>
      </trkpt>
      <trkpt lat="45.893653705716133" lon="7.926699779927731">
        <ele>2116.96</ele>
        <time>2013-09-19T13:05:23Z</time>
      </trkpt>
      <trkpt lat="45.893641132861376" lon="7.926689889281988">
        <ele>2116.96</ele>
        <time>2013-09-19T13:05:47Z</time>
      </trkpt>
      <trkpt lat="45.893655214458704" lon="7.926710173487663">
        <ele>2116.96</ele>
        <time>2013-09-19T13:06:00Z</time>
      </trkpt>
      <trkpt lat="45.893637863919139" lon="7.92670707218349">
        <ele>2116.48</ele>
        <time>2013-09-19T13:06:19Z</time>
      </trkpt>
      <trkpt lat="45.893679102882743" lon="7.926828525960445">
        <ele>2115.04</ele>
        <time>2013-09-19T13:06:41Z</time>
      </trkpt>
      <trkpt lat="45.893665859475732" lon="7.926871776580811">
        <ele>2113.5999999999999</ele>
        <time>2013-09-19T13:06:53Z</time>
      </trkpt>
      <trkpt lat="45.8936623390764" lon="7.926859790459275">
        <ele>2114.0799999999999</ele>
        <time>2013-09-19T13:07:08Z</time>
      </trkpt>
      <trkpt lat="45.893589751794934" lon="7.926809750497341">
        <ele>2112.6300000000001</ele>
        <time>2013-09-19T13:07:30Z</time>
      </trkpt>
      <trkpt lat="45.893540550023317" lon="7.926735654473305">
        <ele>2112.1500000000001</ele>
        <time>2013-09-19T13:07:40Z</time>
      </trkpt>
      <trkpt lat="45.893484726548195" lon="7.926618307828903">
        <ele>2110.23</ele>
        <time>2013-09-19T13:07:55Z</time>
      </trkpt>
      <trkpt lat="45.893417252227664" lon="7.926513198763132">
        <ele>2109.27</ele>
        <time>2013-09-19T13:08:10Z</time>
      </trkpt>
      <trkpt lat="45.893414989113808" lon="7.926394930109382">
        <ele>2108.79</ele>
        <time>2013-09-19T13:08:22Z</time>
      </trkpt>
      <trkpt lat="45.893345419317484" lon="7.926320750266314">
        <ele>2107.3499999999999</ele>
        <time>2013-09-19T13:08:35Z</time>
      </trkpt>
      <trkpt lat="45.893348101526499" lon="7.926331479102373">
        <ele>2107.3499999999999</ele>
        <time>2013-09-19T13:08:51Z</time>
      </trkpt>
      <trkpt lat="45.893321111798286" lon="7.926240116357803">
        <ele>2106.3899999999999</ele>
        <time>2013-09-19T13:09:07Z</time>
      </trkpt>
      <trkpt lat="45.893285153433681" lon="7.926381267607212">
        <ele>2105.4200000000001</ele>
        <time>2013-09-19T13:09:20Z</time>
      </trkpt>
      <trkpt lat="45.893251122906804" lon="7.92659324593842">
        <ele>2101.5799999999999</ele>
        <time>2013-09-19T13:09:37Z</time>
      </trkpt>
      <trkpt lat="45.893260510638356" lon="7.926641777157784">
        <ele>2101.0999999999999</ele>
        <time>2013-09-19T13:09:41Z</time>
      </trkpt>
      <trkpt lat="45.893310382962227" lon="7.926847049966455">
        <ele>2098.21</ele>
        <time>2013-09-19T13:09:58Z</time>
      </trkpt>
      <trkpt lat="45.893277525901794" lon="7.926958529278636">
        <ele>2096.29</ele>
        <time>2013-09-19T13:10:15Z</time>
      </trkpt>
      <trkpt lat="45.893268389627337" lon="7.927056262269616">
        <ele>2094.8499999999999</ele>
        <time>2013-09-19T13:10:30Z</time>
      </trkpt>
      <trkpt lat="45.893328487873077" lon="7.92718400247395">
        <ele>2092.9299999999998</ele>
        <time>2013-09-19T13:10:45Z</time>
      </trkpt>
      <trkpt lat="45.893220528960228" lon="7.927101356908679">
        <ele>2090.52</ele>
        <time>2013-09-19T13:11:01Z</time>
      </trkpt>
      <trkpt lat="45.893182223662734" lon="7.927060620859265">
        <ele>2089.5599999999999</ele>
        <time>2013-09-19T13:11:07Z</time>
      </trkpt>
      <trkpt lat="45.893116677179933" lon="7.926874961704016">
        <ele>2086.1999999999998</ele>
        <time>2013-09-19T13:11:23Z</time>
      </trkpt>
      <trkpt lat="45.893032941967249" lon="7.926777312532067">
        <ele>2084.7600000000002</ele>
        <time>2013-09-19T13:11:38Z</time>
      </trkpt>
      <trkpt lat="45.892996983602643" lon="7.926729284226894">
        <ele>2083.79</ele>
        <time>2013-09-19T13:11:44Z</time>
      </trkpt>
      <trkpt lat="45.892982566729188" lon="7.926713274791837">
        <ele>2083.3099999999999</ele>
        <time>2013-09-19T13:11:46Z</time>
      </trkpt>
      <trkpt lat="45.892945015802979" lon="7.926654685288668">
        <ele>2082.3499999999999</ele>
        <time>2013-09-19T13:11:53Z</time>
      </trkpt>
      <trkpt lat="45.892930431291461" lon="7.926637250930071">
        <ele>2081.3899999999999</ele>
        <time>2013-09-19T13:11:55Z</time>
      </trkpt>
      <trkpt lat="45.892877876758575" lon="7.926458297297359">
        <ele>2079.9499999999998</ele>
        <time>2013-09-19T13:12:11Z</time>
      </trkpt>
      <trkpt lat="45.892865136265755" lon="7.926336005330086">
        <ele>2078.9899999999998</ele>
        <time>2013-09-19T13:12:22Z</time>
      </trkpt>
      <trkpt lat="45.892879636958241" lon="7.926272638142109">
        <ele>2078.0300000000002</ele>
        <time>2013-09-19T13:12:26Z</time>
      </trkpt>
      <trkpt lat="45.892890281975269" lon="7.926199799403548">
        <ele>2077.0700000000002</ele>
        <time>2013-09-19T13:12:32Z</time>
      </trkpt>
      <trkpt lat="45.892883576452732" lon="7.926006093621254">
        <ele>2074.1799999999998</ele>
        <time>2013-09-19T13:12:47Z</time>
      </trkpt>
      <trkpt lat="45.892853401601315" lon="7.926040207967162">
        <ele>2073.6999999999998</ele>
        <time>2013-09-19T13:12:59Z</time>
      </trkpt>
      <trkpt lat="45.892794393002987" lon="7.926205331459642">
        <ele>2070.3400000000001</ele>
        <time>2013-09-19T13:13:13Z</time>
      </trkpt>
      <trkpt lat="45.892687188461423" lon="7.926327791064978">
        <ele>2067.9299999999998</ele>
        <time>2013-09-19T13:13:30Z</time>
      </trkpt>
      <trkpt lat="45.892657348886132" lon="7.926364503800869">
        <ele>2066.9699999999998</ele>
        <time>2013-09-19T13:13:36Z</time>
      </trkpt>
      <trkpt lat="45.892618792131543" lon="7.926476066932082">
        <ele>2064.5700000000002</ele>
        <time>2013-09-19T13:13:50Z</time>
      </trkpt>
      <trkpt lat="45.892621641978621" lon="7.926632473245263">
        <ele>2061.1999999999998</ele>
        <time>2013-09-19T13:14:06Z</time>
      </trkpt>
      <trkpt lat="45.892621390521526" lon="7.926699863746762">
        <ele>2059.7600000000002</ele>
        <time>2013-09-19T13:14:15Z</time>
      </trkpt>
      <trkpt lat="45.892610158771276" lon="7.926829447969794">
        <ele>2057.3600000000001</ele>
        <time>2013-09-19T13:14:28Z</time>
      </trkpt>
      <trkpt lat="45.892615774646401" lon="7.926970096305013">
        <ele>2054.96</ele>
        <time>2013-09-19T13:14:41Z</time>
      </trkpt>
      <trkpt lat="45.892620300874114" lon="7.927082497626543">
        <ele>2053.5100000000002</ele>
        <time>2013-09-19T13:14:56Z</time>
      </trkpt>
      <trkpt lat="45.892603453248739" lon="7.927219877019525">
        <ele>2051.5900000000001</ele>
        <time>2013-09-19T13:15:10Z</time>
      </trkpt>
      <trkpt lat="45.892579397186637" lon="7.927332362160087">
        <ele>2049.6700000000001</ele>
        <time>2013-09-19T13:15:24Z</time>
      </trkpt>
      <trkpt lat="45.892534805461764" lon="7.927411235868931">
        <ele>2047.75</ele>
        <time>2013-09-19T13:15:36Z</time>
      </trkpt>
      <trkpt lat="45.892469258978963" lon="7.927494887262583">
        <ele>2045.3399999999999</ele>
        <time>2013-09-19T13:15:51Z</time>
      </trkpt>
      <trkpt lat="45.892429780215025" lon="7.927540484815836">
        <ele>2044.3800000000001</ele>
        <time>2013-09-19T13:16:02Z</time>
      </trkpt>
      <trkpt lat="45.892371106892824" lon="7.927595051005483">
        <ele>2042.46</ele>
        <time>2013-09-19T13:16:14Z</time>
      </trkpt>
      <trkpt lat="45.892363311722875" lon="7.927694376558065">
        <ele>2039.5699999999999</ele>
        <time>2013-09-19T13:16:28Z</time>
      </trkpt>
      <trkpt lat="45.892373453825712" lon="7.927763359621167">
        <ele>2038.1300000000001</ele>
        <time>2013-09-19T13:16:41Z</time>
      </trkpt>
      <trkpt lat="45.892346045002341" lon="7.927775345742703">
        <ele>2036.6900000000001</ele>
        <time>2013-09-19T13:16:50Z</time>
      </trkpt>
      <trkpt lat="45.892293239012361" lon="7.927669063210487">
        <ele>2035.25</ele>
        <time>2013-09-19T13:17:06Z</time>
      </trkpt>
      <trkpt lat="45.892274295911193" lon="7.927629919722676">
        <ele>2034.77</ele>
        <time>2013-09-19T13:17:15Z</time>
      </trkpt>
      <trkpt lat="45.892254095524549" lon="7.927488936111331">
        <ele>2031.8800000000001</ele>
        <time>2013-09-19T13:17:26Z</time>
      </trkpt>
      <trkpt lat="45.892260046675801" lon="7.927424143999815">
        <ele>2030.4400000000001</ele>
        <time>2013-09-19T13:17:30Z</time>
      </trkpt>
      <trkpt lat="45.892261806875467" lon="7.927378127351403">
        <ele>2030.4400000000001</ele>
        <time>2013-09-19T13:17:46Z</time>
      </trkpt>
      <trkpt lat="45.892258454114199" lon="7.927381731569767">
        <ele>2030.4400000000001</ele>
        <time>2013-09-19T13:18:01Z</time>
      </trkpt>
      <trkpt lat="45.892256274819374" lon="7.927397824823856">
        <ele>2030.4400000000001</ele>
        <time>2013-09-19T13:18:25Z</time>
      </trkpt>
      <trkpt lat="45.892253173515201" lon="7.927394974976778">
        <ele>2029.96</ele>
        <time>2013-09-19T13:18:45Z</time>
      </trkpt>
      <trkpt lat="45.892212521284819" lon="7.927286764606834">
        <ele>2028.52</ele>
        <time>2013-09-19T13:18:59Z</time>
      </trkpt>
      <trkpt lat="45.89216960594058" lon="7.927198251709342">
        <ele>2026.5999999999999</ele>
        <time>2013-09-19T13:19:14Z</time>
      </trkpt>
      <trkpt lat="45.89213247410953" lon="7.92713220231235">
        <ele>2025.1500000000001</ele>
        <time>2013-09-19T13:19:23Z</time>
      </trkpt>
      <trkpt lat="45.892092743888497" lon="7.927003037184477">
        <ele>2024.1900000000001</ele>
        <time>2013-09-19T13:19:35Z</time>
      </trkpt>
      <trkpt lat="45.892050080001354" lon="7.926938747987151">
        <ele>2021.79</ele>
        <time>2013-09-19T13:19:50Z</time>
      </trkpt>
      <trkpt lat="45.891975900158286" lon="7.926800614222884">
        <ele>2019.3900000000001</ele>
        <time>2013-09-19T13:20:06Z</time>
      </trkpt>
      <trkpt lat="45.891931811347604" lon="7.926697768270969">
        <ele>2017.9400000000001</ele>
        <time>2013-09-19T13:20:20Z</time>
      </trkpt>
      <trkpt lat="45.891854027286172" lon="7.926608836278319">
        <ele>2015.54</ele>
        <time>2013-09-19T13:20:34Z</time>
      </trkpt>
      <trkpt lat="45.891806920990348" lon="7.926488472148776">
        <ele>2013.1400000000001</ele>
        <time>2013-09-19T13:20:47Z</time>
      </trkpt>
      <trkpt lat="45.891791665926576" lon="7.926564328372479">
        <ele>2011.7</ele>
        <time>2013-09-19T13:21:00Z</time>
      </trkpt>
      <trkpt lat="45.891777919605374" lon="7.926724757999182">
        <ele>2009.29</ele>
        <time>2013-09-19T13:21:15Z</time>
      </trkpt>
      <trkpt lat="45.891748163849115" lon="7.926851073279977">
        <ele>2007.3699999999999</ele>
        <time>2013-09-19T13:21:28Z</time>
      </trkpt>
      <trkpt lat="45.891742715612054" lon="7.926867166534066">
        <ele>2006.4100000000001</ele>
        <time>2013-09-19T13:21:30Z</time>
      </trkpt>
      <trkpt lat="45.891721928492188" lon="7.926971018314362">
        <ele>2004.97</ele>
        <time>2013-09-19T13:21:40Z</time>
      </trkpt>
      <trkpt lat="45.891646072268486" lon="7.927119042724371">
        <ele>2001.5999999999999</ele>
        <time>2013-09-19T13:21:57Z</time>
      </trkpt>
      <trkpt lat="45.891641546040773" lon="7.927283747121692">
        <ele>2000.1600000000001</ele>
        <time>2013-09-19T13:22:12Z</time>
      </trkpt>
      <trkpt lat="45.891653699800372" lon="7.92742045596242">
        <ele>1997.28</ele>
        <time>2013-09-19T13:22:25Z</time>
      </trkpt>
      <trkpt lat="45.89165261015296" lon="7.927548950538039">
        <ele>1994.3900000000001</ele>
        <time>2013-09-19T13:22:38Z</time>
      </trkpt>
      <trkpt lat="45.891647916287184" lon="7.927700662985444">
        <ele>1991.99</ele>
        <time>2013-09-19T13:22:53Z</time>
      </trkpt>
      <trkpt lat="45.891595529392362" lon="7.92765892110765">
        <ele>1989.0999999999999</ele>
        <time>2013-09-19T13:23:07Z</time>
      </trkpt>
      <trkpt lat="45.891562588512897" lon="7.927691023796797">
        <ele>1988.1400000000001</ele>
        <time>2013-09-19T13:23:18Z</time>
      </trkpt>
      <trkpt lat="45.891530150547624" lon="7.927653891965747">
        <ele>1986.22</ele>
        <time>2013-09-19T13:23:29Z</time>
      </trkpt>
      <trkpt lat="45.891497293487191" lon="7.927739638835192">
        <ele>1983.8199999999999</ele>
        <time>2013-09-19T13:23:40Z</time>
      </trkpt>
      <trkpt lat="45.891449516639113" lon="7.927734525874257">
        <ele>1981.4100000000001</ele>
        <time>2013-09-19T13:23:52Z</time>
      </trkpt>
      <trkpt lat="45.891412552446127" lon="7.92780744843185">
        <ele>1978.53</ele>
        <time>2013-09-19T13:24:05Z</time>
      </trkpt>
      <trkpt lat="45.891333008185029" lon="7.927719354629517">
        <ele>1976.6099999999999</ele>
        <time>2013-09-19T13:24:17Z</time>
      </trkpt>
      <trkpt lat="45.891302665695548" lon="7.927654478698969">
        <ele>1974.2</ele>
        <time>2013-09-19T13:24:25Z</time>
      </trkpt>
      <trkpt lat="45.891293613240123" lon="7.927634445950389">
        <ele>1973.72</ele>
        <time>2013-09-19T13:24:27Z</time>
      </trkpt>
      <trkpt lat="45.89127198792994" lon="7.927574599161744">
        <ele>1971.8</ele>
        <time>2013-09-19T13:24:34Z</time>
      </trkpt>
      <trkpt lat="45.891235526651144" lon="7.927634613588452">
        <ele>1971.3199999999999</ele>
        <time>2013-09-19T13:24:41Z</time>
      </trkpt>
      <trkpt lat="45.891161262989044" lon="7.927751624956727">
        <ele>1967.96</ele>
        <time>2013-09-19T13:24:55Z</time>
      </trkpt>
      <trkpt lat="45.891110133379698" lon="7.927708793431521">
        <ele>1965.0699999999999</ele>
        <time>2013-09-19T13:25:08Z</time>
      </trkpt>
      <trkpt lat="45.89105456136167" lon="7.927771406248212">
        <ele>1961.71</ele>
        <time>2013-09-19T13:25:22Z</time>
      </trkpt>
      <trkpt lat="45.890988847240806" lon="7.927625309675932">
        <ele>1959.3</ele>
        <time>2013-09-19T13:25:37Z</time>
      </trkpt>
      <trkpt lat="45.890955738723278" lon="7.927583148702979">
        <ele>1957.3800000000001</ele>
        <time>2013-09-19T13:25:47Z</time>
      </trkpt>
      <trkpt lat="45.890949033200741" lon="7.927534617483616">
        <ele>1956.4200000000001</ele>
        <time>2013-09-19T13:25:52Z</time>
      </trkpt>
      <trkpt lat="45.890926821157336" lon="7.927584070712328">
        <ele>1955.9400000000001</ele>
        <time>2013-09-19T13:25:56Z</time>
      </trkpt>
      <trkpt lat="45.890912404283881" lon="7.927626818418503">
        <ele>1955.46</ele>
        <time>2013-09-19T13:26:00Z</time>
      </trkpt>
      <trkpt lat="45.890916343778372" lon="7.927801078185439">
        <ele>1952.5699999999999</ele>
        <time>2013-09-19T13:26:15Z</time>
      </trkpt>
      <trkpt lat="45.890943417325616" lon="7.927939631044865">
        <ele>1949.21</ele>
        <time>2013-09-19T13:26:29Z</time>
      </trkpt>
      <trkpt lat="45.890903268009424" lon="7.927953880280256">
        <ele>1948.25</ele>
        <time>2013-09-19T13:26:40Z</time>
      </trkpt>
      <trkpt lat="45.890891449525952" lon="7.927944827824831">
        <ele>1948.25</ele>
        <time>2013-09-19T13:26:56Z</time>
      </trkpt>
      <trkpt lat="45.890882480889559" lon="7.927957568317652">
        <ele>1947.77</ele>
        <time>2013-09-19T13:27:14Z</time>
      </trkpt>
      <trkpt lat="45.890896981582046" lon="7.927979612722993">
        <ele>1948.25</ele>
        <time>2013-09-19T13:27:32Z</time>
      </trkpt>
      <trkpt lat="45.890874769538641" lon="7.927925884723663">
        <ele>1947.29</ele>
        <time>2013-09-19T13:27:45Z</time>
      </trkpt>
      <trkpt lat="45.890781562775373" lon="7.927802670747042">
        <ele>1943.9200000000001</ele>
        <time>2013-09-19T13:27:57Z</time>
      </trkpt>
      <trkpt lat="45.890640411525965" lon="7.927662273868918">
        <ele>1941.52</ele>
        <time>2013-09-19T13:28:11Z</time>
      </trkpt>
      <trkpt lat="45.890619875863194" lon="7.927639978006482">
        <ele>1942</ele>
        <time>2013-09-19T13:28:13Z</time>
      </trkpt>
      <trkpt lat="45.890678046271205" lon="7.927502179518342">
        <ele>1939.5999999999999</ele>
        <time>2013-09-19T13:28:24Z</time>
      </trkpt>
      <trkpt lat="45.890693385154009" lon="7.927441745996475">
        <ele>1938.6400000000001</ele>
        <time>2013-09-19T13:28:29Z</time>
      </trkpt>
      <trkpt lat="45.890694055706263" lon="7.92740385979414">
        <ele>1938.1600000000001</ele>
        <time>2013-09-19T13:28:32Z</time>
      </trkpt>
      <trkpt lat="45.890694390982389" lon="7.927357088774443">
        <ele>1937.1900000000001</ele>
        <time>2013-09-19T13:28:36Z</time>
      </trkpt>
      <trkpt lat="45.890631694346666" lon="7.927168160676956">
        <ele>1935.75</ele>
        <time>2013-09-19T13:28:51Z</time>
      </trkpt>
      <trkpt lat="45.890570087358356" lon="7.926989877596498">
        <ele>1932.8699999999999</ele>
        <time>2013-09-19T13:29:06Z</time>
      </trkpt>
      <trkpt lat="45.89054636657238" lon="7.926935898140073">
        <ele>1931.9100000000001</ele>
        <time>2013-09-19T13:29:10Z</time>
      </trkpt>
      <trkpt lat="45.890506468713284" lon="7.926784101873636">
        <ele>1930.95</ele>
        <time>2013-09-19T13:29:20Z</time>
      </trkpt>
      <trkpt lat="45.8905297704041" lon="7.926594754680991">
        <ele>1929.02</ele>
        <time>2013-09-19T13:29:32Z</time>
      </trkpt>
      <trkpt lat="45.890558185055852" lon="7.926346231251955">
        <ele>1927.0999999999999</ele>
        <time>2013-09-19T13:29:49Z</time>
      </trkpt>
      <trkpt lat="45.890636472031474" lon="7.926162667572498">
        <ele>1925.1800000000001</ele>
        <time>2013-09-19T13:30:06Z</time>
      </trkpt>
      <trkpt lat="45.890684919431806" lon="7.925989665091038">
        <ele>1923.25</ele>
        <time>2013-09-19T13:30:18Z</time>
      </trkpt>
      <trkpt lat="45.890742503106594" lon="7.925820350646973">
        <ele>1921.3299999999999</ele>
        <time>2013-09-19T13:30:31Z</time>
      </trkpt>
      <trkpt lat="45.890760021284223" lon="7.925744326785207">
        <ele>1920.8499999999999</ele>
        <time>2013-09-19T13:30:36Z</time>
      </trkpt>
      <trkpt lat="45.890770582482219" lon="7.925549196079373">
        <ele>1917.97</ele>
        <time>2013-09-19T13:30:51Z</time>
      </trkpt>
      <trkpt lat="45.890802852809429" lon="7.925323555245996">
        <ele>1916.04</ele>
        <time>2013-09-19T13:31:06Z</time>
      </trkpt>
      <trkpt lat="45.89082783088088" lon="7.925194222480059">
        <ele>1915.0799999999999</ele>
        <time>2013-09-19T13:31:16Z</time>
      </trkpt>
      <trkpt lat="45.8908527251333" lon="7.925082659348846">
        <ele>1914.5999999999999</ele>
        <time>2013-09-19T13:31:24Z</time>
      </trkpt>
      <trkpt lat="45.890914751216769" lon="7.924896916374564">
        <ele>1913.1600000000001</ele>
        <time>2013-09-19T13:31:38Z</time>
      </trkpt>
      <trkpt lat="45.890961019322276" lon="7.924779150635004">
        <ele>1912.2</ele>
        <time>2013-09-19T13:31:46Z</time>
      </trkpt>
      <trkpt lat="45.891051460057497" lon="7.924596928060055">
        <ele>1910.28</ele>
        <time>2013-09-19T13:32:00Z</time>
      </trkpt>
      <trkpt lat="45.891074761748314" lon="7.924542361870408">
        <ele>1910.76</ele>
        <time>2013-09-19T13:32:04Z</time>
      </trkpt>
      <trkpt lat="45.891158161684871" lon="7.924318816512823">
        <ele>1909.3199999999999</ele>
        <time>2013-09-19T13:32:21Z</time>
      </trkpt>
      <trkpt lat="45.891204681247473" lon="7.924095103517175">
        <ele>1907.3900000000001</ele>
        <time>2013-09-19T13:32:38Z</time>
      </trkpt>
      <trkpt lat="45.891210716217756" lon="7.924032658338547">
        <ele>1906.9100000000001</ele>
        <time>2013-09-19T13:32:42Z</time>
      </trkpt>
      <trkpt lat="45.891210632398725" lon="7.923825792968273">
        <ele>1904.03</ele>
        <time>2013-09-19T13:32:58Z</time>
      </trkpt>
      <trkpt lat="45.891216164454818" lon="7.92380073107779">
        <ele>1903.55</ele>
        <time>2013-09-19T13:33:00Z</time>
      </trkpt>
      <trkpt lat="45.891217170283198" lon="7.923595709726214">
        <ele>1901.1400000000001</ele>
        <time>2013-09-19T13:33:14Z</time>
      </trkpt>
      <trkpt lat="45.891232341527939" lon="7.923408625647426">
        <ele>1899.22</ele>
        <time>2013-09-19T13:33:28Z</time>
      </trkpt>
      <trkpt lat="45.891291433945298" lon="7.923229169100523">
        <ele>1897.78</ele>
        <time>2013-09-19T13:33:42Z</time>
      </trkpt>
      <trkpt lat="45.891322446987033" lon="7.923072343692184">
        <ele>1895.8599999999999</ele>
        <time>2013-09-19T13:33:53Z</time>
      </trkpt>
      <trkpt lat="45.89136335067451" lon="7.922903867438436">
        <ele>1893.9300000000001</ele>
        <time>2013-09-19T13:34:06Z</time>
      </trkpt>
      <trkpt lat="45.891324291005731" lon="7.922899508848786">
        <ele>1891.53</ele>
        <time>2013-09-19T13:34:21Z</time>
      </trkpt>
      <trkpt lat="45.89124072343111" lon="7.923028003424406">
        <ele>1888.1700000000001</ele>
        <time>2013-09-19T13:34:36Z</time>
      </trkpt>
      <trkpt lat="45.891150869429111" lon="7.92315524071455">
        <ele>1884.8</ele>
        <time>2013-09-19T13:34:50Z</time>
      </trkpt>
      <trkpt lat="45.891142319887877" lon="7.923163454979658">
        <ele>1884.8</ele>
        <time>2013-09-19T13:34:51Z</time>
      </trkpt>
      <trkpt lat="45.891037797555327" lon="7.923296308144927">
        <ele>1882.4000000000001</ele>
        <time>2013-09-19T13:35:07Z</time>
      </trkpt>
      <trkpt lat="45.890956744551659" lon="7.923418432474136">
        <ele>1879.03</ele>
        <time>2013-09-19T13:35:20Z</time>
      </trkpt>
      <trkpt lat="45.890887761488557" lon="7.923571653664112">
        <ele>1876.1500000000001</ele>
        <time>2013-09-19T13:35:34Z</time>
      </trkpt>
      <trkpt lat="45.890822215005755" lon="7.92374012991786">
        <ele>1873.27</ele>
        <time>2013-09-19T13:35:49Z</time>
      </trkpt>
      <trkpt lat="45.89072716422379" lon="7.923904918134213">
        <ele>1870.3800000000001</ele>
        <time>2013-09-19T13:36:05Z</time>
      </trkpt>
      <trkpt lat="45.890655918046832" lon="7.924035508185625">
        <ele>1867.98</ele>
        <time>2013-09-19T13:36:17Z</time>
      </trkpt>
      <trkpt lat="45.890573523938656" lon="7.924120919778943">
        <ele>1866.54</ele>
        <time>2013-09-19T13:36:27Z</time>
      </trkpt>
      <trkpt lat="45.890532620251179" lon="7.924308087676764">
        <ele>1863.6500000000001</ele>
        <time>2013-09-19T13:36:43Z</time>
      </trkpt>
      <trkpt lat="45.890396581962705" lon="7.924449155107141">
        <ele>1861.25</ele>
        <time>2013-09-19T13:37:01Z</time>
      </trkpt>
      <trkpt lat="45.890330281108618" lon="7.924567423760891">
        <ele>1859.3299999999999</ele>
        <time>2013-09-19T13:37:13Z</time>
      </trkpt>
      <trkpt lat="45.890215532854199" lon="7.924699522554874">
        <ele>1856.4400000000001</ele>
        <time>2013-09-19T13:37:30Z</time>
      </trkpt>
      <trkpt lat="45.890125427395105" lon="7.924817455932498">
        <ele>1854.04</ele>
        <time>2013-09-19T13:37:44Z</time>
      </trkpt>
      <trkpt lat="45.890092235058546" lon="7.924840589985251">
        <ele>1853.0799999999999</ele>
        <time>2013-09-19T13:37:48Z</time>
      </trkpt>
      <trkpt lat="45.89006993919611" lon="7.924812007695437">
        <ele>1852.5999999999999</ele>
        <time>2013-09-19T13:37:52Z</time>
      </trkpt>
      <trkpt lat="45.890073291957378" lon="7.924586366862059">
        <ele>1849.23</ele>
        <time>2013-09-19T13:38:09Z</time>
      </trkpt>
      <trkpt lat="45.890083517879248" lon="7.924464074894786">
        <ele>1847.79</ele>
        <time>2013-09-19T13:38:17Z</time>
      </trkpt>
      <trkpt lat="45.89009827002883" lon="7.924410849809647">
        <ele>1847.79</ele>
        <time>2013-09-19T13:38:21Z</time>
      </trkpt>
      <trkpt lat="45.890119224786758" lon="7.924352763220668">
        <ele>1847.3099999999999</ele>
        <time>2013-09-19T13:38:25Z</time>
      </trkpt>
      <trkpt lat="45.890180245041847" lon="7.92416182346642">
        <ele>1844.9100000000001</ele>
        <time>2013-09-19T13:38:40Z</time>
      </trkpt>
      <trkpt lat="45.890204636380076" lon="7.924020420759916">
        <ele>1842.98</ele>
        <time>2013-09-19T13:38:53Z</time>
      </trkpt>
      <trkpt lat="45.890203295275569" lon="7.923819590359926">
        <ele>1840.5799999999999</ele>
        <time>2013-09-19T13:39:09Z</time>
      </trkpt>
      <trkpt lat="45.890226932242513" lon="7.92374792508781">
        <ele>1840.0999999999999</ele>
        <time>2013-09-19T13:39:14Z</time>
      </trkpt>
      <trkpt lat="45.890269344672561" lon="7.923591267317534">
        <ele>1837.22</ele>
        <time>2013-09-19T13:39:31Z</time>
      </trkpt>
      <trkpt lat="45.890219639986753" lon="7.923641726374626">
        <ele>1836.26</ele>
        <time>2013-09-19T13:39:39Z</time>
      </trkpt>
      <trkpt lat="45.890118721872568" lon="7.923763012513518">
        <ele>1834.3299999999999</ele>
        <time>2013-09-19T13:39:55Z</time>
      </trkpt>
      <trkpt lat="45.890030628070235" lon="7.923832749947906">
        <ele>1831.45</ele>
        <time>2013-09-19T13:40:07Z</time>
      </trkpt>
      <trkpt lat="45.889920825138688" lon="7.923843562602997">
        <ele>1829.53</ele>
        <time>2013-09-19T13:40:19Z</time>
      </trkpt>
      <trkpt lat="45.889785625040531" lon="7.923997789621353">
        <ele>1827.1199999999999</ele>
        <time>2013-09-19T13:40:37Z</time>
      </trkpt>
      <trkpt lat="45.889705829322338" lon="7.924085715785623">
        <ele>1823.76</ele>
        <time>2013-09-19T13:40:49Z</time>
      </trkpt>
      <trkpt lat="45.889664003625512" lon="7.924078004434705">
        <ele>1823.28</ele>
        <time>2013-09-19T13:40:53Z</time>
      </trkpt>
      <trkpt lat="45.889612874016166" lon="7.924078088253737">
        <ele>1822.8</ele>
        <time>2013-09-19T13:40:58Z</time>
      </trkpt>
      <trkpt lat="45.889567527920008" lon="7.924287803471088">
        <ele>1819.4300000000001</ele>
        <time>2013-09-19T13:41:15Z</time>
      </trkpt>
      <trkpt lat="45.889470130205154" lon="7.924401545897126">
        <ele>1816.55</ele>
        <time>2013-09-19T13:41:30Z</time>
      </trkpt>
      <trkpt lat="45.889411624521017" lon="7.924348991364241">
        <ele>1814.6300000000001</ele>
        <time>2013-09-19T13:41:37Z</time>
      </trkpt>
      <trkpt lat="45.889300899580121" lon="7.924139276146889">
        <ele>1812.22</ele>
        <time>2013-09-19T13:41:54Z</time>
      </trkpt>
      <trkpt lat="45.889311879873276" lon="7.923945151269436">
        <ele>1810.78</ele>
        <time>2013-09-19T13:42:08Z</time>
      </trkpt>
      <trkpt lat="45.889384802430868" lon="7.92377969250083">
        <ele>1808.8599999999999</ele>
        <time>2013-09-19T13:42:22Z</time>
      </trkpt>
      <trkpt lat="45.88945671916008" lon="7.923631584271789">
        <ele>1805.97</ele>
        <time>2013-09-19T13:42:35Z</time>
      </trkpt>
      <trkpt lat="45.889459233731031" lon="7.92361649684608">
        <ele>1805.97</ele>
        <time>2013-09-19T13:42:36Z</time>
      </trkpt>
      <trkpt lat="45.889482786878943" lon="7.92351046577096">
        <ele>1804.53</ele>
        <time>2013-09-19T13:42:44Z</time>
      </trkpt>
      <trkpt lat="45.889507345855236" lon="7.923342743888497">
        <ele>1802.1300000000001</ele>
        <time>2013-09-19T13:42:57Z</time>
      </trkpt>
      <trkpt lat="45.889473566785455" lon="7.923153480514884">
        <ele>1799.24</ele>
        <time>2013-09-19T13:43:14Z</time>
      </trkpt>
      <trkpt lat="45.889415312558413" lon="7.923098914325237">
        <ele>1797.3199999999999</ele>
        <time>2013-09-19T13:43:21Z</time>
      </trkpt>
      <trkpt lat="45.889384634792805" lon="7.923053149133921">
        <ele>1796.8399999999999</ele>
        <time>2013-09-19T13:43:26Z</time>
      </trkpt>
      <trkpt lat="45.889383377507329" lon="7.922991123050451">
        <ele>1796.8399999999999</ele>
        <time>2013-09-19T13:43:30Z</time>
      </trkpt>
      <trkpt lat="45.889413384720683" lon="7.922922391444445">
        <ele>1796.3599999999999</ele>
        <time>2013-09-19T13:43:35Z</time>
      </trkpt>
      <trkpt lat="45.889448672533035" lon="7.922881236299872">
        <ele>1795.8800000000001</ele>
        <time>2013-09-19T13:43:40Z</time>
      </trkpt>
      <trkpt lat="45.889521008357406" lon="7.92268518358469">
        <ele>1795.4000000000001</ele>
        <time>2013-09-19T13:43:55Z</time>
      </trkpt>
      <trkpt lat="45.889524193480611" lon="7.922669928520918">
        <ele>1795.4000000000001</ele>
        <time>2013-09-19T13:43:56Z</time>
      </trkpt>
      <trkpt lat="45.889553865417838" lon="7.92256155051291">
        <ele>1794.9200000000001</ele>
        <time>2013-09-19T13:44:07Z</time>
      </trkpt>
      <trkpt lat="45.889512123540044" lon="7.92257965542376">
        <ele>1792.52</ele>
        <time>2013-09-19T13:44:20Z</time>
      </trkpt>
      <trkpt lat="45.889423862099648" lon="7.922708820551634">
        <ele>1790.1099999999999</ele>
        <time>2013-09-19T13:44:35Z</time>
      </trkpt>
      <trkpt lat="45.889351023361087" lon="7.922815019264817">
        <ele>1788.1900000000001</ele>
        <time>2013-09-19T13:44:49Z</time>
      </trkpt>
      <trkpt lat="45.889222361147404" lon="7.922991123050451">
        <ele>1785.3099999999999</ele>
        <time>2013-09-19T13:45:08Z</time>
      </trkpt>
      <trkpt lat="45.889133764430881" lon="7.923160437494516">
        <ele>1783.3800000000001</ele>
        <time>2013-09-19T13:45:25Z</time>
      </trkpt>
      <trkpt lat="45.88904676027596" lon="7.923319023102522">
        <ele>1780.5</ele>
        <time>2013-09-19T13:45:42Z</time>
      </trkpt>
      <trkpt lat="45.888959001749754" lon="7.923446344211698">
        <ele>1777.1300000000001</ele>
        <time>2013-09-19T13:45:57Z</time>
      </trkpt>
      <trkpt lat="45.888866716995835" lon="7.923601996153593">
        <ele>1775.6900000000001</ele>
        <time>2013-09-19T13:46:13Z</time>
      </trkpt>
      <trkpt lat="45.888836961239576" lon="7.923627309501171">
        <ele>1774.25</ele>
        <time>2013-09-19T13:46:16Z</time>
      </trkpt>
      <trkpt lat="45.888760183006525" lon="7.923773573711515">
        <ele>1772.3299999999999</ele>
        <time>2013-09-19T13:46:31Z</time>
      </trkpt>
      <trkpt lat="45.888724308460951" lon="7.923955041915178">
        <ele>1769.4400000000001</ele>
        <time>2013-09-19T13:46:46Z</time>
      </trkpt>
      <trkpt lat="45.88866027072072" lon="7.924111699685454">
        <ele>1767.04</ele>
        <time>2013-09-19T13:47:00Z</time>
      </trkpt>
      <trkpt lat="45.88860310614109" lon="7.924281433224678">
        <ele>1764.6400000000001</ele>
        <time>2013-09-19T13:47:14Z</time>
      </trkpt>
      <trkpt lat="45.888579301536083" lon="7.924382351338863">
        <ele>1763.2</ele>
        <time>2013-09-19T13:47:22Z</time>
      </trkpt>
      <trkpt lat="45.88850830681622" lon="7.924571866169572">
        <ele>1760.79</ele>
        <time>2013-09-19T13:47:36Z</time>
      </trkpt>
      <trkpt lat="45.888425577431917" lon="7.924739168956876">
        <ele>1758.3900000000001</ele>
        <time>2013-09-19T13:47:50Z</time>
      </trkpt>
      <trkpt lat="45.888340082019567" lon="7.92495190165937">
        <ele>1757.9100000000001</ele>
        <time>2013-09-19T13:48:06Z</time>
      </trkpt>
      <trkpt lat="45.888266656547785" lon="7.925120377913117">
        <ele>1755.99</ele>
        <time>2013-09-19T13:48:21Z</time>
      </trkpt>
      <trkpt lat="45.88821167126298" lon="7.925300253555179">
        <ele>1753.5799999999999</ele>
        <time>2013-09-19T13:48:36Z</time>
      </trkpt>
      <trkpt lat="45.888155261054635" lon="7.925497060641646">
        <ele>1750.7</ele>
        <time>2013-09-19T13:48:52Z</time>
      </trkpt>
      <trkpt lat="45.888126594945788" lon="7.925611976534128">
        <ele>1748.78</ele>
        <time>2013-09-19T13:49:02Z</time>
      </trkpt>
      <trkpt lat="45.888049229979515" lon="7.925779446959496">
        <ele>1746.8499999999999</ele>
        <time>2013-09-19T13:49:17Z</time>
      </trkpt>
      <trkpt lat="45.888022743165493" lon="7.925824290141463">
        <ele>1745.8900000000001</ele>
        <time>2013-09-19T13:49:22Z</time>
      </trkpt>
      <trkpt lat="45.887963818386197" lon="7.925739213824272">
        <ele>1743.49</ele>
        <time>2013-09-19T13:49:32Z</time>
      </trkpt>
      <trkpt lat="45.887958621606231" lon="7.92560032568872">
        <ele>1742.53</ele>
        <time>2013-09-19T13:49:41Z</time>
      </trkpt>
      <trkpt lat="45.887930877506733" lon="7.925374936312437">
        <ele>1739.6400000000001</ele>
        <time>2013-09-19T13:49:58Z</time>
      </trkpt>
      <trkpt lat="45.887908078730106" lon="7.925206711515784">
        <ele>1736.76</ele>
        <time>2013-09-19T13:50:12Z</time>
      </trkpt>
      <trkpt lat="45.887956693768501" lon="7.92504963465035">
        <ele>1734.8399999999999</ele>
        <time>2013-09-19T13:50:24Z</time>
      </trkpt>
      <trkpt lat="45.887964237481356" lon="7.925017783418298">
        <ele>1734.8399999999999</ele>
        <time>2013-09-19T13:50:26Z</time>
      </trkpt>
      <trkpt lat="45.88800354860723" lon="7.9247828386724">
        <ele>1732.4300000000001</ele>
        <time>2013-09-19T13:50:41Z</time>
      </trkpt>
      <trkpt lat="45.888007991015911" lon="7.924749813973904">
        <ele>1732.4300000000001</ele>
        <time>2013-09-19T13:50:43Z</time>
      </trkpt>
      <trkpt lat="45.888017797842622" lon="7.924716202542186">
        <ele>1731.95</ele>
        <time>2013-09-19T13:50:45Z</time>
      </trkpt>
      <trkpt lat="45.888044033199549" lon="7.924532387405634">
        <ele>1730.03</ele>
        <time>2013-09-19T13:50:58Z</time>
      </trkpt>
      <trkpt lat="45.888038752600551" lon="7.924338346347213">
        <ele>1727.1500000000001</ele>
        <time>2013-09-19T13:51:13Z</time>
      </trkpt>
      <trkpt lat="45.888032549992204" lon="7.924274979159236">
        <ele>1726.1800000000001</ele>
        <time>2013-09-19T13:51:18Z</time>
      </trkpt>
      <trkpt lat="45.8880206476897" lon="7.92410172522068">
        <ele>1725.22</ele>
        <time>2013-09-19T13:51:31Z</time>
      </trkpt>
      <trkpt lat="45.887980414554477" lon="7.923861583694816">
        <ele>1724.74</ele>
        <time>2013-09-19T13:51:46Z</time>
      </trkpt>
      <trkpt lat="45.88791998103261" lon="7.923902655020356">
        <ele>1721.8599999999999</ele>
        <time>2013-09-19T13:51:57Z</time>
      </trkpt>
      <trkpt lat="45.88789751753211" lon="7.924075154587627">
        <ele>1719.46</ele>
        <time>2013-09-19T13:52:10Z</time>
      </trkpt>
      <trkpt lat="45.887896176427603" lon="7.924138186499476">
        <ele>1718.49</ele>
        <time>2013-09-19T13:52:14Z</time>
      </trkpt>
      <trkpt lat="45.887880669906735" lon="7.924358965829015">
        <ele>1716.5699999999999</ele>
        <time>2013-09-19T13:52:29Z</time>
      </trkpt>
      <trkpt lat="45.887830881401896" lon="7.924514450132847">
        <ele>1714.6500000000001</ele>
        <time>2013-09-19T13:52:42Z</time>
      </trkpt>
      <trkpt lat="45.887809842824936" lon="7.924566501751542">
        <ele>1713.21</ele>
        <time>2013-09-19T13:52:46Z</time>
      </trkpt>
      <trkpt lat="45.887753935530782" lon="7.924809576943517">
        <ele>1710.8</ele>
        <time>2013-09-19T13:53:02Z</time>
      </trkpt>
      <trkpt lat="45.887693082913756" lon="7.924941591918469">
        <ele>1708.4000000000001</ele>
        <time>2013-09-19T13:53:14Z</time>
      </trkpt>
      <trkpt lat="45.887611275538802" lon="7.925120461732149">
        <ele>1706</ele>
        <time>2013-09-19T13:53:28Z</time>
      </trkpt>
      <trkpt lat="45.887599876150489" lon="7.92515566572547">
        <ele>1705.52</ele>
        <time>2013-09-19T13:53:31Z</time>
      </trkpt>
      <trkpt lat="45.887560732662678" lon="7.925286339595914">
        <ele>1704.0699999999999</ele>
        <time>2013-09-19T13:53:40Z</time>
      </trkpt>
      <trkpt lat="45.887466268613935" lon="7.925522793084383">
        <ele>1699.75</ele>
        <time>2013-09-19T13:53:57Z</time>
      </trkpt>
      <trkpt lat="45.887363171204925" lon="7.925742818042636">
        <ele>1696.8599999999999</ele>
        <time>2013-09-19T13:54:14Z</time>
      </trkpt>
      <trkpt lat="45.887345485389233" lon="7.925852704793215">
        <ele>1695.4200000000001</ele>
        <time>2013-09-19T13:54:21Z</time>
      </trkpt>
      <trkpt lat="45.88732679374516" lon="7.925965609028935">
        <ele>1693.5</ele>
        <time>2013-09-19T13:54:29Z</time>
      </trkpt>
      <trkpt lat="45.887251440435648" lon="7.925966447219253">
        <ele>1692.0599999999999</ele>
        <time>2013-09-19T13:54:38Z</time>
      </trkpt>
      <trkpt lat="45.887233586981893" lon="7.925901655107737">
        <ele>1690.6199999999999</ele>
        <time>2013-09-19T13:54:43Z</time>
      </trkpt>
      <trkpt lat="45.887224785983562" lon="7.925841556861997">
        <ele>1690.1400000000001</ele>
        <time>2013-09-19T13:54:47Z</time>
      </trkpt>
      <trkpt lat="45.88722663000226" lon="7.925764191895723">
        <ele>1688.6900000000001</ele>
        <time>2013-09-19T13:54:52Z</time>
      </trkpt>
      <trkpt lat="45.887193270027637" lon="7.925652209669352">
        <ele>1686.77</ele>
        <time>2013-09-19T13:55:08Z</time>
      </trkpt>
      <trkpt lat="45.887187821790576" lon="7.925659334287047">
        <ele>1686.29</ele>
        <time>2013-09-19T13:55:09Z</time>
      </trkpt>
      <trkpt lat="45.887093357741833" lon="7.925845077261329">
        <ele>1683.8900000000001</ele>
        <time>2013-09-19T13:55:26Z</time>
      </trkpt>
      <trkpt lat="45.886995624750853" lon="7.925981786102057">
        <ele>1681.48</ele>
        <time>2013-09-19T13:55:41Z</time>
      </trkpt>
      <trkpt lat="45.886987242847681" lon="7.925989581272006">
        <ele>1681.48</ele>
        <time>2013-09-19T13:55:42Z</time>
      </trkpt>
      <trkpt lat="45.886842822656035" lon="7.926020175218582">
        <ele>1678.1199999999999</ele>
        <time>2013-09-19T13:55:57Z</time>
      </trkpt>
      <trkpt lat="45.886820359155536" lon="7.926099970936775">
        <ele>1677.1600000000001</ele>
        <time>2013-09-19T13:56:09Z</time>
      </trkpt>
      <trkpt lat="45.886824550107121" lon="7.92610022239387">
        <ele>1676.6800000000001</ele>
        <time>2013-09-19T13:56:11Z</time>
      </trkpt>
      <trkpt lat="45.88682983070612" lon="7.926148418337107">
        <ele>1676.6800000000001</ele>
        <time>2013-09-19T13:56:15Z</time>
      </trkpt>
      <trkpt lat="45.886890264227986" lon="7.926214886829257">
        <ele>1675.72</ele>
        <time>2013-09-19T13:56:24Z</time>
      </trkpt>
      <trkpt lat="45.886957738548517" lon="7.926400797441602">
        <ele>1672.3499999999999</ele>
        <time>2013-09-19T13:56:39Z</time>
      </trkpt>
      <trkpt lat="45.887004844844341" lon="7.926527196541429">
        <ele>1670.9100000000001</ele>
        <time>2013-09-19T13:56:49Z</time>
      </trkpt>
      <trkpt lat="45.887008532881737" lon="7.926536919549108">
        <ele>1670.4300000000001</ele>
        <time>2013-09-19T13:56:50Z</time>
      </trkpt>
      <trkpt lat="45.887030325829983" lon="7.926636999472976">
        <ele>1669.47</ele>
        <time>2013-09-19T13:56:57Z</time>
      </trkpt>
      <trkpt lat="45.88698036968708" lon="7.926876973360777">
        <ele>1666.5799999999999</ele>
        <time>2013-09-19T13:57:14Z</time>
      </trkpt>
      <trkpt lat="45.886944327503443" lon="7.927071517333388">
        <ele>1664.1800000000001</ele>
        <time>2013-09-19T13:57:28Z</time>
      </trkpt>
      <trkpt lat="45.886860005557537" lon="7.927272850647569">
        <ele>1661.78</ele>
        <time>2013-09-19T13:57:43Z</time>
      </trkpt>
      <trkpt lat="45.886735282838345" lon="7.927402853965759">
        <ele>1658.4100000000001</ele>
        <time>2013-09-19T13:57:58Z</time>
      </trkpt>
      <trkpt lat="45.886607877910137" lon="7.927451469004154">
        <ele>1656.01</ele>
        <time>2013-09-19T13:58:13Z</time>
      </trkpt>
      <trkpt lat="45.886606201529503" lon="7.927489103749394">
        <ele>1656.01</ele>
        <time>2013-09-19T13:58:16Z</time>
      </trkpt>
      <trkpt lat="45.886590359732509" lon="7.927563702687621">
        <ele>1654.5699999999999</ele>
        <time>2013-09-19T13:58:29Z</time>
      </trkpt>
      <trkpt lat="45.886581307277083" lon="7.927605863660574">
        <ele>1654.0899999999999</ele>
        <time>2013-09-19T13:58:38Z</time>
      </trkpt>
      <trkpt lat="45.886577116325498" lon="7.927821613848209">
        <ele>1652.1600000000001</ele>
        <time>2013-09-19T13:58:52Z</time>
      </trkpt>
      <trkpt lat="45.886441161856055" lon="7.927942983806133">
        <ele>1648.8</ele>
        <time>2013-09-19T13:59:08Z</time>
      </trkpt>
      <trkpt lat="45.886428840458393" lon="7.928035855293274">
        <ele>1646.8800000000001</ele>
        <time>2013-09-19T13:59:20Z</time>
      </trkpt>
      <trkpt lat="45.886390283703804" lon="7.928130654618144">
        <ele>1645.4300000000001</ele>
        <time>2013-09-19T13:59:32Z</time>
      </trkpt>
      <trkpt lat="45.88634611107409" lon="7.928278427571058">
        <ele>1643.03</ele>
        <time>2013-09-19T13:59:44Z</time>
      </trkpt>
      <trkpt lat="45.886263297870755" lon="7.928428379818797">
        <ele>1640.6300000000001</ele>
        <time>2013-09-19T14:00:00Z</time>
      </trkpt>
      <trkpt lat="45.886258101090789" lon="7.928435169160366">
        <ele>1641.1099999999999</ele>
        <time>2013-09-19T14:00:01Z</time>
      </trkpt>
      <trkpt lat="45.88620881550014" lon="7.928428212180734">
        <ele>1639.1900000000001</ele>
        <time>2013-09-19T14:00:14Z</time>
      </trkpt>
      <trkpt lat="45.886204037815332" lon="7.928390745073557">
        <ele>1638.7</ele>
        <time>2013-09-19T14:00:17Z</time>
      </trkpt>
      <trkpt lat="45.886193811893463" lon="7.928343219682574">
        <ele>1637.74</ele>
        <time>2013-09-19T14:00:23Z</time>
      </trkpt>
      <trkpt lat="45.886169755831361" lon="7.928232494741678">
        <ele>1636.78</ele>
        <time>2013-09-19T14:00:32Z</time>
      </trkpt>
      <trkpt lat="45.886150561273098" lon="7.928186813369393">
        <ele>1636.3</ele>
        <time>2013-09-19T14:00:36Z</time>
      </trkpt>
      <trkpt lat="45.886148801073432" lon="7.927933344617486">
        <ele>1635.8199999999999</ele>
        <time>2013-09-19T14:00:54Z</time>
      </trkpt>
      <trkpt lat="45.886145615950227" lon="7.927750200033188">
        <ele>1634.8599999999999</ele>
        <time>2013-09-19T14:01:06Z</time>
      </trkpt>
      <trkpt lat="45.886136060580611" lon="7.927711978554726">
        <ele>1634.8599999999999</ele>
        <time>2013-09-19T14:01:10Z</time>
      </trkpt>
      <trkpt lat="45.886104544624686" lon="7.927668811753392">
        <ele>1633.9000000000001</ele>
        <time>2013-09-19T14:01:15Z</time>
      </trkpt>
      <trkpt lat="45.886102616786957" lon="7.927647856995463">
        <ele>1633.4200000000001</ele>
        <time>2013-09-19T14:01:17Z</time>
      </trkpt>
      <trkpt lat="45.886057941243052" lon="7.927618771791458">
        <ele>1631.49</ele>
        <time>2013-09-19T14:01:27Z</time>
      </trkpt>
      <trkpt lat="45.885935062542558" lon="7.927503017708659">
        <ele>1628.1300000000001</ele>
        <time>2013-09-19T14:01:41Z</time>
      </trkpt>
      <trkpt lat="45.885908659547567" lon="7.927463538944721">
        <ele>1627.1700000000001</ele>
        <time>2013-09-19T14:01:47Z</time>
      </trkpt>
      <trkpt lat="45.88586482219398" lon="7.927378881722689">
        <ele>1625.73</ele>
        <time>2013-09-19T14:02:03Z</time>
      </trkpt>
      <trkpt lat="45.885847136378288" lon="7.927319118753076">
        <ele>1624.28</ele>
        <time>2013-09-19T14:02:19Z</time>
      </trkpt>
      <trkpt lat="45.885806484147906" lon="7.927310485392809">
        <ele>1623.8</ele>
        <time>2013-09-19T14:02:28Z</time>
      </trkpt>
      <trkpt lat="45.885782176628709" lon="7.927312748506665">
        <ele>1622.8399999999999</ele>
        <time>2013-09-19T14:02:35Z</time>
      </trkpt>
      <trkpt lat="45.885757869109511" lon="7.92732322588563">
        <ele>1622.3599999999999</ele>
        <time>2013-09-19T14:02:38Z</time>
      </trkpt>
      <trkpt lat="45.885734148323536" lon="7.927319789305329">
        <ele>1621.8800000000001</ele>
        <time>2013-09-19T14:02:40Z</time>
      </trkpt>
      <trkpt lat="45.885667847469449" lon="7.92729590088129">
        <ele>1621.4000000000001</ele>
        <time>2013-09-19T14:02:47Z</time>
      </trkpt>
      <trkpt lat="45.885538347065449" lon="7.927195485681295">
        <ele>1619</ele>
        <time>2013-09-19T14:03:02Z</time>
      </trkpt>
      <trkpt lat="45.885519990697503" lon="7.927207471802831">
        <ele>1618.52</ele>
        <time>2013-09-19T14:03:05Z</time>
      </trkpt>
      <trkpt lat="45.88547682389617" lon="7.927255248650909">
        <ele>1617.5599999999999</ele>
        <time>2013-09-19T14:03:12Z</time>
      </trkpt>
      <trkpt lat="45.885402727872133" lon="7.927390113472939">
        <ele>1615.1500000000001</ele>
        <time>2013-09-19T14:03:25Z</time>
      </trkpt>
      <trkpt lat="45.885366769507527" lon="7.927394891157746">
        <ele>1614.6700000000001</ele>
        <time>2013-09-19T14:03:28Z</time>
      </trkpt>
      <trkpt lat="45.885350843891501" lon="7.927342252805829">
        <ele>1614.6700000000001</ele>
        <time>2013-09-19T14:03:40Z</time>
      </trkpt>
      <trkpt lat="45.88533659465611" lon="7.927372427657247">
        <ele>1614.1900000000001</ele>
        <time>2013-09-19T14:04:12Z</time>
      </trkpt>
      <trkpt lat="45.885339779779315" lon="7.92730713263154">
        <ele>1614.1900000000001</ele>
        <time>2013-09-19T14:04:41Z</time>
      </trkpt>
      <trkpt lat="45.885340869426727" lon="7.927336720749736">
        <ele>1613.71</ele>
        <time>2013-09-19T14:05:05Z</time>
      </trkpt>
      <trkpt lat="45.885345814749599" lon="7.927362956106663">
        <ele>1613.71</ele>
        <time>2013-09-19T14:05:30Z</time>
      </trkpt>
      <trkpt lat="45.885330224409699" lon="7.927371086552739">
        <ele>1614.1900000000001</ele>
        <time>2013-09-19T14:06:02Z</time>
      </trkpt>
      <trkpt lat="45.885332738980651" lon="7.927318783476949">
        <ele>1613.23</ele>
        <time>2013-09-19T14:06:25Z</time>
      </trkpt>
      <trkpt lat="45.885339779779315" lon="7.927337475121021">
        <ele>1583.9100000000001</ele>
        <time>2013-09-19T14:07:17Z</time>
      </trkpt>
      <trkpt lat="45.885322596877813" lon="7.92733496055007">
        <ele>1583.9100000000001</ele>
        <time>2013-09-19T14:07:24Z</time>
      </trkpt>
      <trkpt lat="45.88531899265945" lon="7.927356418222189">
        <ele>1584.3900000000001</ele>
        <time>2013-09-19T14:07:40Z</time>
      </trkpt>
      <trkpt lat="45.885316981002688" lon="7.927348539233208">
        <ele>1584.8699999999999</ele>
        <time>2013-09-19T14:08:02Z</time>
      </trkpt>
      <trkpt lat="45.885333158075809" lon="7.927348287776113">
        <ele>1585.3499999999999</ele>
        <time>2013-09-19T14:08:23Z</time>
      </trkpt>
      <trkpt lat="45.885338690131903" lon="7.927359603345394">
        <ele>1585.8299999999999</ele>
        <time>2013-09-19T14:08:43Z</time>
      </trkpt>
      <trkpt lat="45.885301809757948" lon="7.927374942228198">
        <ele>1585.8299999999999</ele>
        <time>2013-09-19T14:09:07Z</time>
      </trkpt>
      <trkpt lat="45.885286722332239" lon="7.927367985248566">
        <ele>1585.8299999999999</ele>
        <time>2013-09-19T14:09:28Z</time>
      </trkpt>
      <trkpt lat="45.88529166765511" lon="7.927337475121021">
        <ele>1586.79</ele>
        <time>2013-09-19T14:09:54Z</time>
      </trkpt>
      <trkpt lat="45.88528286665678" lon="7.927300427109003">
        <ele>1586.79</ele>
        <time>2013-09-19T14:10:17Z</time>
      </trkpt>
      <trkpt lat="45.885271215811372" lon="7.927321633324027">
        <ele>1587.75</ele>
        <time>2013-09-19T14:10:45Z</time>
      </trkpt>
      <trkpt lat="45.885290745645761" lon="7.927368320524693">
        <ele>1587.75</ele>
        <time>2013-09-19T14:11:23Z</time>
      </trkpt>
      <trkpt lat="45.885284459218383" lon="7.927386676892638">
        <ele>1588.24</ele>
        <time>2013-09-19T14:11:41Z</time>
      </trkpt>
      <trkpt lat="45.885298792272806" lon="7.927354322746396">
        <ele>1588.24</ele>
        <time>2013-09-19T14:11:55Z</time>
      </trkpt>
      <trkpt lat="45.885283118113875" lon="7.927395226433873">
        <ele>1589.2</ele>
        <time>2013-09-19T14:12:19Z</time>
      </trkpt>
      <trkpt lat="45.885288733989" lon="7.927370918914676">
        <ele>1589.6800000000001</ele>
        <time>2013-09-19T14:12:53Z</time>
      </trkpt>
      <trkpt lat="45.885270377621055" lon="7.927377037703991">
        <ele>1590.1600000000001</ele>
        <time>2013-09-19T14:13:18Z</time>
      </trkpt>
      <trkpt lat="45.885318741202354" lon="7.927369410172105">
        <ele>1591.1199999999999</ele>
        <time>2013-09-19T14:13:36Z</time>
      </trkpt>
      <trkpt lat="45.885316142812371" lon="7.927343593910337">
        <ele>1591.1199999999999</ele>
        <time>2013-09-19T14:13:50Z</time>
      </trkpt>
      <trkpt lat="45.885333744809031" lon="7.927320208400488">
        <ele>1591.5999999999999</ele>
        <time>2013-09-19T14:14:08Z</time>
      </trkpt>
      <trkpt lat="45.885347155854106" lon="7.927167573943734">
        <ele>1589.6800000000001</ele>
        <time>2013-09-19T14:14:23Z</time>
      </trkpt>
      <trkpt lat="45.885283034294844" lon="7.927136225625873">
        <ele>1586.79</ele>
        <time>2013-09-19T14:14:36Z</time>
      </trkpt>
      <trkpt lat="45.88524472899735" lon="7.927132621407509">
        <ele>1584.8699999999999</ele>
        <time>2013-09-19T14:14:42Z</time>
      </trkpt>
      <trkpt lat="45.885226875543594" lon="7.927037235349417">
        <ele>1582.95</ele>
        <time>2013-09-19T14:14:53Z</time>
      </trkpt>
      <trkpt lat="45.885198209434748" lon="7.927021225914359">
        <ele>1582.47</ele>
        <time>2013-09-19T14:15:00Z</time>
      </trkpt>
      <trkpt lat="45.885120676830411" lon="7.926963558420539">
        <ele>1578.6199999999999</ele>
        <time>2013-09-19T14:15:14Z</time>
      </trkpt>
      <trkpt lat="45.885068122297525" lon="7.926917877048254">
        <ele>1577.1800000000001</ele>
        <time>2013-09-19T14:15:26Z</time>
      </trkpt>
      <trkpt lat="45.885072564706206" lon="7.926846044138074">
        <ele>1573.8199999999999</ele>
        <time>2013-09-19T14:15:34Z</time>
      </trkpt>
      <trkpt lat="45.885055549442768" lon="7.926840595901012">
        <ele>1573.8199999999999</ele>
        <time>2013-09-19T14:15:36Z</time>
      </trkpt>
      <trkpt lat="45.884982207790017" lon="7.926874123513699">
        <ele>1572.3699999999999</ele>
        <time>2013-09-19T14:15:48Z</time>
      </trkpt>
      <trkpt lat="45.8848846424371" lon="7.927027763798833">
        <ele>1571.4100000000001</ele>
        <time>2013-09-19T14:16:04Z</time>
      </trkpt>
      <trkpt lat="45.884868297725916" lon="7.927061878144741">
        <ele>1571.4100000000001</ele>
        <time>2013-09-19T14:16:35Z</time>
      </trkpt>
      <trkpt lat="45.884873494505882" lon="7.927053831517696">
        <ele>1571.8900000000001</ele>
        <time>2013-09-19T14:16:51Z</time>
      </trkpt>
      <trkpt lat="45.88480937294662" lon="7.92706330306828">
        <ele>1571.4100000000001</ele>
        <time>2013-09-19T14:17:16Z</time>
      </trkpt>
      <trkpt lat="45.884795458987355" lon="7.927069673314691">
        <ele>1571.8900000000001</ele>
        <time>2013-09-19T14:17:17Z</time>
      </trkpt>
      <trkpt lat="45.884688757359982" lon="7.927062716335058">
        <ele>1574.3</ele>
        <time>2013-09-19T14:17:33Z</time>
      </trkpt>
      <trkpt lat="45.884669730439782" lon="7.927096830680966">
        <ele>1574.3</ele>
        <time>2013-09-19T14:17:56Z</time>
      </trkpt>
      <trkpt lat="45.884665874764323" lon="7.92709750123322">
        <ele>1574.78</ele>
        <time>2013-09-19T14:18:00Z</time>
      </trkpt>
      <trkpt lat="45.884578200057149" lon="7.927223313599825">
        <ele>1577.1800000000001</ele>
        <time>2013-09-19T14:18:15Z</time>
      </trkpt>
      <trkpt lat="45.884500835090876" lon="7.927222475409508">
        <ele>1578.1400000000001</ele>
        <time>2013-09-19T14:18:24Z</time>
      </trkpt>
      <trkpt lat="45.884423051029444" lon="7.927227253094316">
        <ele>1579.0999999999999</ele>
        <time>2013-09-19T14:18:31Z</time>
      </trkpt>
      <trkpt lat="45.884362701326609" lon="7.927273940294981">
        <ele>1578.1400000000001</ele>
        <time>2013-09-19T14:18:47Z</time>
      </trkpt>
      <trkpt lat="45.884358761832118" lon="7.927283411845565">
        <ele>1578.1400000000001</ele>
        <time>2013-09-19T14:18:48Z</time>
      </trkpt>
      <trkpt lat="45.884216772392392" lon="7.927351808175445">
        <ele>1577.6600000000001</ele>
        <time>2013-09-19T14:19:03Z</time>
      </trkpt>
      <trkpt lat="45.884219454601407" lon="7.927372679114342">
        <ele>1578.6199999999999</ele>
        <time>2013-09-19T14:19:22Z</time>
      </trkpt>
      <trkpt lat="45.884213587269187" lon="7.927390113472939">
        <ele>1578.6199999999999</ele>
        <time>2013-09-19T14:19:30Z</time>
      </trkpt>
      <trkpt lat="45.884167402982712" lon="7.927417187020183">
        <ele>1578.1400000000001</ele>
        <time>2013-09-19T14:19:44Z</time>
      </trkpt>
      <trkpt lat="45.884179892018437" lon="7.927423976361752">
        <ele>1578.1400000000001</ele>
        <time>2013-09-19T14:19:46Z</time>
      </trkpt>
      <trkpt lat="45.884186513721943" lon="7.927546268329024">
        <ele>1578.1400000000001</ele>
        <time>2013-09-19T14:19:59Z</time>
      </trkpt>
      <trkpt lat="45.884141502901912" lon="7.927649030461907">
        <ele>1577.6600000000001</ele>
        <time>2013-09-19T14:20:06Z</time>
      </trkpt>
      <trkpt lat="45.884065898135304" lon="7.927760342136025">
        <ele>1577.1800000000001</ele>
        <time>2013-09-19T14:20:21Z</time>
      </trkpt>
      <trkpt lat="45.884053409099579" lon="7.927738549187779">
        <ele>1577.6600000000001</ele>
        <time>2013-09-19T14:20:49Z</time>
      </trkpt>
      <trkpt lat="45.884046787396073" lon="7.927782889455557">
        <ele>1577.1800000000001</ele>
        <time>2013-09-19T14:21:13Z</time>
      </trkpt>
      <trkpt lat="45.884049804881215" lon="7.927761264145374">
        <ele>1577.6600000000001</ele>
        <time>2013-09-19T14:21:32Z</time>
      </trkpt>
      <trkpt lat="45.884034801274538" lon="7.927825385704637">
        <ele>1577.1800000000001</ele>
        <time>2013-09-19T14:21:58Z</time>
      </trkpt>
      <trkpt lat="45.884025665000081" lon="7.927848184481263">
        <ele>1577.6600000000001</ele>
        <time>2013-09-19T14:22:03Z</time>
      </trkpt>
      <trkpt lat="45.884056845679879" lon="7.927871067076922">
        <ele>1578.1400000000001</ele>
        <time>2013-09-19T14:22:16Z</time>
      </trkpt>
      <trkpt lat="45.884058270603418" lon="7.927915742620826">
        <ele>1578.6199999999999</ele>
        <time>2013-09-19T14:22:20Z</time>
      </trkpt>
      <trkpt lat="45.883983168751001" lon="7.927950108423829">
        <ele>1576.7</ele>
        <time>2013-09-19T14:22:27Z</time>
      </trkpt>
      <trkpt lat="45.883932039141655" lon="7.928035352379084">
        <ele>1576.7</ele>
        <time>2013-09-19T14:22:35Z</time>
      </trkpt>
      <trkpt lat="45.883919885382056" lon="7.928089750930667">
        <ele>1576.22</ele>
        <time>2013-09-19T14:22:50Z</time>
      </trkpt>
      <trkpt lat="45.883932709693909" lon="7.928085727617145">
        <ele>1576.7</ele>
        <time>2013-09-19T14:23:02Z</time>
      </trkpt>
      <trkpt lat="45.883940504863858" lon="7.928066197782755">
        <ele>1577.6600000000001</ele>
        <time>2013-09-19T14:23:22Z</time>
      </trkpt>
      <trkpt lat="45.883948970586061" lon="7.92811288498342">
        <ele>1577.6600000000001</ele>
        <time>2013-09-19T14:23:44Z</time>
      </trkpt>
      <trkpt lat="45.883940840139985" lon="7.928120596334338">
        <ele>1577.6600000000001</ele>
        <time>2013-09-19T14:24:01Z</time>
      </trkpt>
      <trkpt lat="45.883924830704927" lon="7.92813585139811">
        <ele>1577.1800000000001</ele>
        <time>2013-09-19T14:24:27Z</time>
      </trkpt>
      <trkpt lat="45.883920807391405" lon="7.928095953539014">
        <ele>1577.6600000000001</ele>
        <time>2013-09-19T14:24:58Z</time>
      </trkpt>
      <trkpt lat="45.88389121927321" lon="7.92798682115972">
        <ele>1577.6600000000001</ele>
        <time>2013-09-19T14:25:32Z</time>
      </trkpt>
      <trkpt lat="45.88393572717905" lon="7.928122440353036">
        <ele>1578.1400000000001</ele>
        <time>2013-09-19T14:25:57Z</time>
      </trkpt>
      <trkpt lat="45.88392985984683" lon="7.928125793114305">
        <ele>1578.1400000000001</ele>
        <time>2013-09-19T14:26:21Z</time>
      </trkpt>
      <trkpt lat="45.8839176222682" lon="7.928150855004787">
        <ele>1577.6600000000001</ele>
        <time>2013-09-19T14:26:38Z</time>
      </trkpt>
      <trkpt lat="45.883795581758022" lon="7.928374148905277">
        <ele>1578.1400000000001</ele>
        <time>2013-09-19T14:26:59Z</time>
      </trkpt>
      <trkpt lat="45.883763814345002" lon="7.928441371768713">
        <ele>1576.7</ele>
        <time>2013-09-19T14:27:16Z</time>
      </trkpt>
      <trkpt lat="45.883736489340663" lon="7.928499206900597">
        <ele>1577.6600000000001</ele>
        <time>2013-09-19T14:27:30Z</time>
      </trkpt>
      <trkpt lat="45.883710673078895" lon="7.928515383973718">
        <ele>1576.7</ele>
        <time>2013-09-19T14:27:44Z</time>
      </trkpt>
      <trkpt lat="45.883712349459529" lon="7.92849887162447">
        <ele>1576.7</ele>
        <time>2013-09-19T14:27:58Z</time>
      </trkpt>
      <trkpt lat="45.883710086345673" lon="7.928480682894588">
        <ele>1576.7</ele>
        <time>2013-09-19T14:28:17Z</time>
      </trkpt>
      <trkpt lat="45.883707320317626" lon="7.928474564105272">
        <ele>1576.7</ele>
        <time>2013-09-19T14:28:29Z</time>
      </trkpt>
      <trkpt lat="45.883715283125639" lon="7.928504822775722">
        <ele>1576.7</ele>
        <time>2013-09-19T14:28:51Z</time>
      </trkpt>
      <trkpt lat="45.883706901222467" lon="7.928584031760693">
        <ele>1576.22</ele>
        <time>2013-09-19T14:28:57Z</time>
      </trkpt>
      <trkpt lat="45.883714780211449" lon="7.928635329008102">
        <ele>1576.22</ele>
        <time>2013-09-19T14:29:00Z</time>
      </trkpt>
      <trkpt lat="45.883709164336324" lon="7.928816210478544">
        <ele>1575.26</ele>
        <time>2013-09-19T14:29:12Z</time>
      </trkpt>
      <trkpt lat="45.883722491562366" lon="7.928990805521607">
        <ele>1573.3299999999999</ele>
        <time>2013-09-19T14:29:24Z</time>
      </trkpt>
      <trkpt lat="45.883701788261533" lon="7.929093400016427">
        <ele>1571.4100000000001</ele>
        <time>2013-09-19T14:29:38Z</time>
      </trkpt>
      <trkpt lat="45.883695753291249" lon="7.929120557382703">
        <ele>1571.4100000000001</ele>
        <time>2013-09-19T14:29:40Z</time>
      </trkpt>
      <trkpt lat="45.883702207356691" lon="7.92924402281642">
        <ele>1569.97</ele>
        <time>2013-09-19T14:29:56Z</time>
      </trkpt>
      <trkpt lat="45.883719474077225" lon="7.929337983950973">
        <ele>1569.01</ele>
        <time>2013-09-19T14:30:06Z</time>
      </trkpt>
      <trkpt lat="45.883775716647506" lon="7.929446697235107">
        <ele>1567.5699999999999</ele>
        <time>2013-09-19T14:30:18Z</time>
      </trkpt>
      <trkpt lat="45.883786529302597" lon="7.929468993097544">
        <ele>1567.5699999999999</ele>
        <time>2013-09-19T14:30:20Z</time>
      </trkpt>
      <trkpt lat="45.883806813508272" lon="7.929492462426424">
        <ele>1567.0899999999999</ele>
        <time>2013-09-19T14:30:27Z</time>
      </trkpt>
      <trkpt lat="45.883832965046167" lon="7.929513333365321">
        <ele>1566.6099999999999</ele>
        <time>2013-09-19T14:30:30Z</time>
      </trkpt>
      <trkpt lat="45.883874958381057" lon="7.929585333913565">
        <ele>1565.1600000000001</ele>
        <time>2013-09-19T14:30:40Z</time>
      </trkpt>
      <trkpt lat="45.883903875946999" lon="7.9297233838588">
        <ele>1562.28</ele>
        <time>2013-09-19T14:30:53Z</time>
      </trkpt>
      <trkpt lat="45.883895410224795" lon="7.929821955040097">
        <ele>1560.8399999999999</ele>
        <time>2013-09-19T14:31:05Z</time>
      </trkpt>
      <trkpt lat="45.883914437144995" lon="7.929891608655453">
        <ele>1559.4000000000001</ele>
        <time>2013-09-19T14:31:13Z</time>
      </trkpt>
      <trkpt lat="45.883969338610768" lon="7.930006189271808">
        <ele>1557.47</ele>
        <time>2013-09-19T14:31:26Z</time>
      </trkpt>
      <trkpt lat="45.883951485157013" lon="7.930098390206695">
        <ele>1554.5899999999999</ele>
        <time>2013-09-19T14:31:39Z</time>
      </trkpt>
      <trkpt lat="45.883882585912943" lon="7.930095540359616">
        <ele>1553.6300000000001</ele>
        <time>2013-09-19T14:31:50Z</time>
      </trkpt>
      <trkpt lat="45.883867498487234" lon="7.930154213681817">
        <ele>1551.71</ele>
        <time>2013-09-19T14:32:01Z</time>
      </trkpt>
      <trkpt lat="45.883868169039488" lon="7.930207271128893">
        <ele>1549.78</ele>
        <time>2013-09-19T14:32:15Z</time>
      </trkpt>
      <trkpt lat="45.883786529302597" lon="7.930213389918208">
        <ele>1546.4200000000001</ele>
        <time>2013-09-19T14:32:29Z</time>
      </trkpt>
      <trkpt lat="45.88372609578073" lon="7.930188747122884">
        <ele>1543.05</ele>
        <time>2013-09-19T14:32:43Z</time>
      </trkpt>
      <trkpt lat="45.883714528754354" lon="7.930265944451094">
        <ele>1540.1700000000001</ele>
        <time>2013-09-19T14:32:57Z</time>
      </trkpt>
      <trkpt lat="45.88369625620544" lon="7.930312044918537">
        <ele>1536.8</ele>
        <time>2013-09-19T14:33:09Z</time>
      </trkpt>
      <trkpt lat="45.883752163499594" lon="7.930342387408018">
        <ele>1535.8399999999999</ele>
        <time>2013-09-19T14:33:21Z</time>
      </trkpt>
      <trkpt lat="45.883763479068875" lon="7.930423524230719">
        <ele>1532.48</ele>
        <time>2013-09-19T14:33:34Z</time>
      </trkpt>
      <trkpt lat="45.883740596473217" lon="7.930493513122201">
        <ele>1530.0799999999999</ele>
        <time>2013-09-19T14:33:46Z</time>
      </trkpt>
      <trkpt lat="45.883696088567376" lon="7.930475240573287">
        <ele>1528.6300000000001</ele>
        <time>2013-09-19T14:33:52Z</time>
      </trkpt>
      <trkpt lat="45.883668093010783" lon="7.930506505072117">
        <ele>1526.23</ele>
        <time>2013-09-19T14:34:05Z</time>
      </trkpt>
      <trkpt lat="45.883584609255195" lon="7.930497704073787">
        <ele>1523.3499999999999</ele>
        <time>2013-09-19T14:34:16Z</time>
      </trkpt>
      <trkpt lat="45.88353406637907" lon="7.930523939430714">
        <ele>1520.46</ele>
        <time>2013-09-19T14:34:28Z</time>
      </trkpt>
      <trkpt lat="45.883593996986747" lon="7.930591413751245">
        <ele>1518.54</ele>
        <time>2013-09-19T14:34:37Z</time>
      </trkpt>
      <trkpt lat="45.883647054433823" lon="7.930673724040389">
        <ele>1516.6199999999999</ele>
        <time>2013-09-19T14:34:48Z</time>
      </trkpt>
      <trkpt lat="45.883594080805779" lon="7.930685207247734">
        <ele>1514.21</ele>
        <time>2013-09-19T14:34:59Z</time>
      </trkpt>
      <trkpt lat="45.883554937317967" lon="7.930643800646067">
        <ele>1513.25</ele>
        <time>2013-09-19T14:35:06Z</time>
      </trkpt>
      <trkpt lat="45.883528534322977" lon="7.930682441219688">
        <ele>1511.3299999999999</ele>
        <time>2013-09-19T14:35:17Z</time>
      </trkpt>
      <trkpt lat="45.883545130491257" lon="7.930735247209668">
        <ele>1509.4100000000001</ele>
        <time>2013-09-19T14:35:29Z</time>
      </trkpt>
      <trkpt lat="45.88354429230094" lon="7.93074119836092">
        <ele>1508.45</ele>
        <time>2013-09-19T14:35:31Z</time>
      </trkpt>
      <trkpt lat="45.883497521281242" lon="7.930766427889466">
        <ele>1507</ele>
        <time>2013-09-19T14:35:41Z</time>
      </trkpt>
      <trkpt lat="45.883547561243176" lon="7.930847145617008">
        <ele>1504.1199999999999</ele>
        <time>2013-09-19T14:35:55Z</time>
      </trkpt>
      <trkpt lat="45.883488720282912" lon="7.930870112031698">
        <ele>1501.72</ele>
        <time>2013-09-19T14:36:07Z</time>
      </trkpt>
      <trkpt lat="45.883460640907288" lon="7.930938173085451">
        <ele>1498.8299999999999</ele>
        <time>2013-09-19T14:36:20Z</time>
      </trkpt>
      <trkpt lat="45.883449073880911" lon="7.93099869042635">
        <ele>1495.47</ele>
        <time>2013-09-19T14:36:29Z</time>
      </trkpt>
      <trkpt lat="45.88343976996839" lon="7.931066835299134">
        <ele>1493.0599999999999</ele>
        <time>2013-09-19T14:36:41Z</time>
      </trkpt>
      <trkpt lat="45.883413953706622" lon="7.931153085082769">
        <ele>1490.1800000000001</ele>
        <time>2013-09-19T14:36:55Z</time>
      </trkpt>
      <trkpt lat="45.883446140214801" lon="7.931200694292784">
        <ele>1487.3</ele>
        <time>2013-09-19T14:37:06Z</time>
      </trkpt>
      <trkpt lat="45.883408840745687" lon="7.93121661990881">
        <ele>1484.8900000000001</ele>
        <time>2013-09-19T14:37:16Z</time>
      </trkpt>
      <trkpt lat="45.88342116214335" lon="7.931286776438355">
        <ele>1482.97</ele>
        <time>2013-09-19T14:37:26Z</time>
      </trkpt>
      <trkpt lat="45.883320076391101" lon="7.931289123371244">
        <ele>1480.5699999999999</ele>
        <time>2013-09-19T14:37:35Z</time>
      </trkpt>
      <trkpt lat="45.883181355893612" lon="7.931320806965232">
        <ele>1477.6800000000001</ele>
        <time>2013-09-19T14:37:49Z</time>
      </trkpt>
      <trkpt lat="45.883168028667569" lon="7.931359615176916">
        <ele>1476.72</ele>
        <time>2013-09-19T14:37:59Z</time>
      </trkpt>
      <trkpt lat="45.88311530649662" lon="7.931392807513475">
        <ele>1473.3599999999999</ele>
        <time>2013-09-19T14:38:09Z</time>
      </trkpt>
      <trkpt lat="45.883031403645873" lon="7.93142281472683">
        <ele>1471.4400000000001</ele>
        <time>2013-09-19T14:38:25Z</time>
      </trkpt>
      <trkpt lat="45.883039617910981" lon="7.931433627381921">
        <ele>1470.95</ele>
        <time>2013-09-19T14:38:26Z</time>
      </trkpt>
      <trkpt lat="45.882946662604809" lon="7.931460198014975">
        <ele>1468.55</ele>
        <time>2013-09-19T14:38:37Z</time>
      </trkpt>
      <trkpt lat="45.882852282375097" lon="7.93146874755621">
        <ele>1465.1900000000001</ele>
        <time>2013-09-19T14:38:50Z</time>
      </trkpt>
      <trkpt lat="45.882758991792798" lon="7.931493641808629">
        <ele>1462.78</ele>
        <time>2013-09-19T14:39:02Z</time>
      </trkpt>
      <trkpt lat="45.88274197652936" lon="7.931490959599614">
        <ele>1461.8199999999999</ele>
        <time>2013-09-19T14:39:04Z</time>
      </trkpt>
      <trkpt lat="45.882688835263252" lon="7.931482577696443">
        <ele>1460.3800000000001</ele>
        <time>2013-09-19T14:39:14Z</time>
      </trkpt>
      <trkpt lat="45.882667042315006" lon="7.931493138894439">
        <ele>1459.4200000000001</ele>
        <time>2013-09-19T14:39:17Z</time>
      </trkpt>
      <trkpt lat="45.882714819163084" lon="7.93159481137991">
        <ele>1456.53</ele>
        <time>2013-09-19T14:39:30Z</time>
      </trkpt>
      <trkpt lat="45.882721776142716" lon="7.931612832471728">
        <ele>1456.53</ele>
        <time>2013-09-19T14:39:32Z</time>
      </trkpt>
      <trkpt lat="45.882731834426522" lon="7.931647785007954">
        <ele>1455.5699999999999</ele>
        <time>2013-09-19T14:39:36Z</time>
      </trkpt>
      <trkpt lat="45.882740383967757" lon="7.931665722280741">
        <ele>1455.0899999999999</ele>
        <time>2013-09-19T14:39:39Z</time>
      </trkpt>
      <trkpt lat="45.88275614194572" lon="7.931732693687081">
        <ele>1452.6900000000001</ele>
        <time>2013-09-19T14:39:50Z</time>
      </trkpt>
      <trkpt lat="45.882763601839542" lon="7.931809388101101">
        <ele>1449.8099999999999</ele>
        <time>2013-09-19T14:40:01Z</time>
      </trkpt>
      <trkpt lat="45.882683051750064" lon="7.931806035339832">
        <ele>1448.3599999999999</ele>
        <time>2013-09-19T14:40:11Z</time>
      </trkpt>
      <trkpt lat="45.882604932412505" lon="7.931788433343172">
        <ele>1445.48</ele>
        <time>2013-09-19T14:40:23Z</time>
      </trkpt>
      <trkpt lat="45.882566375657916" lon="7.931814417243004">
        <ele>1444.52</ele>
        <time>2013-09-19T14:40:29Z</time>
      </trkpt>
      <trkpt lat="45.882453303784132" lon="7.931801844388247">
        <ele>1441.6300000000001</ele>
        <time>2013-09-19T14:40:43Z</time>
      </trkpt>
      <trkpt lat="45.882402844727039" lon="7.931811986491084">
        <ele>1439.71</ele>
        <time>2013-09-19T14:40:55Z</time>
      </trkpt>
      <trkpt lat="45.882461182773113" lon="7.931873090565205">
        <ele>1437.79</ele>
        <time>2013-09-19T14:41:06Z</time>
      </trkpt>
      <trkpt lat="45.88246688246727" lon="7.93187577277422">
        <ele>1437.3099999999999</ele>
        <time>2013-09-19T14:41:19Z</time>
      </trkpt>
      <trkpt lat="45.882323551923037" lon="7.931827576830983">
        <ele>1435.3900000000001</ele>
        <time>2013-09-19T14:41:32Z</time>
      </trkpt>
      <trkpt lat="45.882231518626213" lon="7.931725736707449">
        <ele>1432.02</ele>
        <time>2013-09-19T14:41:45Z</time>
      </trkpt>
      <trkpt lat="45.882115764543414" lon="7.931626411154866">
        <ele>1430.5799999999999</ele>
        <time>2013-09-19T14:41:57Z</time>
      </trkpt>
      <trkpt lat="45.882029850035906" lon="7.931643761694431">
        <ele>1428.6600000000001</ele>
        <time>2013-09-19T14:42:10Z</time>
      </trkpt>
      <trkpt lat="45.881978133693337" lon="7.931664464995265">
        <ele>1426.73</ele>
        <time>2013-09-19T14:42:21Z</time>
      </trkpt>
      <trkpt lat="45.881927004083991" lon="7.931707631796598">
        <ele>1425.29</ele>
        <time>2013-09-19T14:42:30Z</time>
      </trkpt>
      <trkpt lat="45.881888028234243" lon="7.931717019528151">
        <ele>1425.29</ele>
        <time>2013-09-19T14:42:34Z</time>
      </trkpt>
      <trkpt lat="45.8818125911057" lon="7.931756833568215">
        <ele>1423.8499999999999</ele>
        <time>2013-09-19T14:42:46Z</time>
      </trkpt>
      <trkpt lat="45.881790462881327" lon="7.931758426129818">
        <ele>1423.8499999999999</ele>
        <time>2013-09-19T14:42:50Z</time>
      </trkpt>
      <trkpt lat="45.881762132048607" lon="7.931787511333823">
        <ele>1423.3699999999999</ele>
        <time>2013-09-19T14:42:54Z</time>
      </trkpt>
      <trkpt lat="45.881752325221896" lon="7.931795306503773">
        <ele>1422.4100000000001</ele>
        <time>2013-09-19T14:43:06Z</time>
      </trkpt>
      <trkpt lat="45.88173539377749" lon="7.93183034285903">
        <ele>1421.9300000000001</ele>
        <time>2013-09-19T14:43:12Z</time>
      </trkpt>
      <trkpt lat="45.881650568917394" lon="7.931874934583902">
        <ele>1421.9300000000001</ele>
        <time>2013-09-19T14:43:22Z</time>
      </trkpt>
      <trkpt lat="45.881592063233256" lon="7.9320062790066">
        <ele>1421.9300000000001</ele>
        <time>2013-09-19T14:43:36Z</time>
      </trkpt>
      <trkpt lat="45.881553925573826" lon="7.93200577609241">
        <ele>1421.9300000000001</ele>
        <time>2013-09-19T14:43:51Z</time>
      </trkpt>
      <trkpt lat="45.881551494821906" lon="7.932084901258349">
        <ele>1420.97</ele>
        <time>2013-09-19T14:44:02Z</time>
      </trkpt>
      <trkpt lat="45.881580663844943" lon="7.93217483907938">
        <ele>1420.49</ele>
        <time>2013-09-19T14:44:14Z</time>
      </trkpt>
      <trkpt lat="45.881613688543439" lon="7.932186909019947">
        <ele>1420.49</ele>
        <time>2013-09-19T14:44:29Z</time>
      </trkpt>
      <trkpt lat="45.881623663008213" lon="7.932152878493071">
        <ele>1420.49</ele>
        <time>2013-09-19T14:44:45Z</time>
      </trkpt>
      <trkpt lat="45.881612515076995" lon="7.932149358093739">
        <ele>1420.49</ele>
        <time>2013-09-19T14:44:59Z</time>
      </trkpt>
      <trkpt lat="45.881536994129419" lon="7.932118009775877">
        <ele>1420.49</ele>
        <time>2013-09-19T14:45:18Z</time>
      </trkpt>
      <trkpt lat="45.881511010229588" lon="7.932165116071701">
        <ele>1421.9300000000001</ele>
        <time>2013-09-19T14:45:41Z</time>
      </trkpt>
      <trkpt lat="45.88145149871707" lon="7.932246839627624">
        <ele>1420</ele>
        <time>2013-09-19T14:45:55Z</time>
      </trkpt>
      <trkpt lat="45.881388299167156" lon="7.932363683357835">
        <ele>1419.52</ele>
        <time>2013-09-19T14:46:10Z</time>
      </trkpt>
      <trkpt lat="45.881366338580847" lon="7.932391176000238">
        <ele>1419.04</ele>
        <time>2013-09-19T14:46:13Z</time>
      </trkpt>
      <trkpt lat="45.881314957514405" lon="7.932534255087376">
        <ele>1419.52</ele>
        <time>2013-09-19T14:46:25Z</time>
      </trkpt>
      <trkpt lat="45.881252847611904" lon="7.932721171528101">
        <ele>1419.04</ele>
        <time>2013-09-19T14:46:40Z</time>
      </trkpt>
      <trkpt lat="45.881197191774845" lon="7.932834243401885">
        <ele>1418.5599999999999</ele>
        <time>2013-09-19T14:46:51Z</time>
      </trkpt>
      <trkpt lat="45.881178751587868" lon="7.932869866490364">
        <ele>1418.0799999999999</ele>
        <time>2013-09-19T14:46:55Z</time>
      </trkpt>
      <trkpt lat="45.881134746596217" lon="7.932871542870998">
        <ele>1418.5599999999999</ele>
        <time>2013-09-19T14:46:59Z</time>
      </trkpt>
      <trkpt lat="45.881126532331109" lon="7.932906914502382">
        <ele>1418.0799999999999</ele>
        <time>2013-09-19T14:47:02Z</time>
      </trkpt>
      <trkpt lat="45.881130052730441" lon="7.93295125477016">
        <ele>1418.0799999999999</ele>
        <time>2013-09-19T14:47:05Z</time>
      </trkpt>
      <trkpt lat="45.881128963083029" lon="7.932977490127087">
        <ele>1418.0799999999999</ele>
        <time>2013-09-19T14:47:07Z</time>
      </trkpt>
      <trkpt lat="45.881098201498389" lon="7.933042449876666">
        <ele>1417.5999999999999</ele>
        <time>2013-09-19T14:47:21Z</time>
      </trkpt>
      <trkpt lat="45.881085293367505" lon="7.933071702718735">
        <ele>1417.1199999999999</ele>
        <time>2013-09-19T14:47:25Z</time>
      </trkpt>
      <trkpt lat="45.881033996120095" lon="7.933118725195527">
        <ele>1416.6400000000001</ele>
        <time>2013-09-19T14:47:31Z</time>
      </trkpt>
      <trkpt lat="45.881012538447976" lon="7.933170860633254">
        <ele>1415.6800000000001</ele>
        <time>2013-09-19T14:47:35Z</time>
      </trkpt>
      <trkpt lat="45.880919834598899" lon="7.933175722137094">
        <ele>1414.72</ele>
        <time>2013-09-19T14:47:42Z</time>
      </trkpt>
      <trkpt lat="45.880898796021938" lon="7.933215033262968">
        <ele>1415.2</ele>
        <time>2013-09-19T14:47:45Z</time>
      </trkpt>
      <trkpt lat="45.880823442712426" lon="7.933330535888672">
        <ele>1414.24</ele>
        <time>2013-09-19T14:47:57Z</time>
      </trkpt>
      <trkpt lat="45.880761416628957" lon="7.933372193947434">
        <ele>1414.24</ele>
        <time>2013-09-19T14:48:03Z</time>
      </trkpt>
      <trkpt lat="45.880740629509091" lon="7.933389125391841">
        <ele>1414.72</ele>
        <time>2013-09-19T14:48:06Z</time>
      </trkpt>
      <trkpt lat="45.880687823519111" lon="7.93350487947464">
        <ele>1414.24</ele>
        <time>2013-09-19T14:48:16Z</time>
      </trkpt>
      <trkpt lat="45.880685141310096" lon="7.93361627496779">
        <ele>1414.24</ele>
        <time>2013-09-19T14:48:23Z</time>
      </trkpt>
      <trkpt lat="45.880672987550497" lon="7.933631194755435">
        <ele>1414.72</ele>
        <time>2013-09-19T14:48:24Z</time>
      </trkpt>
      <trkpt lat="45.880628731101751" lon="7.933634631335735">
        <ele>1414.72</ele>
        <time>2013-09-19T14:48:28Z</time>
      </trkpt>
      <trkpt lat="45.880590258166194" lon="7.933682156726718">
        <ele>1414.72</ele>
        <time>2013-09-19T14:48:33Z</time>
      </trkpt>
      <trkpt lat="45.880479197949171" lon="7.933765472844243">
        <ele>1413.28</ele>
        <time>2013-09-19T14:48:44Z</time>
      </trkpt>
      <trkpt lat="45.880466289818287" lon="7.933781482279301">
        <ele>1413.28</ele>
        <time>2013-09-19T14:48:46Z</time>
      </trkpt>
      <trkpt lat="45.880442317575216" lon="7.933813249692321">
        <ele>1411.3499999999999</ele>
        <time>2013-09-19T14:48:59Z</time>
      </trkpt>
      <trkpt lat="45.880437456071377" lon="7.933815261349082">
        <ele>1411.8299999999999</ele>
        <time>2013-09-19T14:49:15Z</time>
      </trkpt>
      <trkpt lat="45.880335029214621" lon="7.933855410665274">
        <ele>1411.3499999999999</ele>
        <time>2013-09-19T14:49:24Z</time>
      </trkpt>
      <trkpt lat="45.880234446376562" lon="7.933865888044238">
        <ele>1410.8699999999999</ele>
        <time>2013-09-19T14:49:35Z</time>
      </trkpt>
      <trkpt lat="45.880186501890421" lon="7.933839065954089">
        <ele>1412.79</ele>
        <time>2013-09-19T14:49:42Z</time>
      </trkpt>
      <trkpt lat="45.880137132480741" lon="7.933810818940401">
        <ele>1412.79</ele>
        <time>2013-09-19T14:49:47Z</time>
      </trkpt>
      <trkpt lat="45.880112322047353" lon="7.933785757049918">
        <ele>1412.3099999999999</ele>
        <time>2013-09-19T14:49:51Z</time>
      </trkpt>
      <trkpt lat="45.880055660381913" lon="7.933781482279301">
        <ele>1411.3499999999999</ele>
        <time>2013-09-19T14:49:57Z</time>
      </trkpt>
      <trkpt lat="45.879954406991601" lon="7.93383814394474">
        <ele>1408.95</ele>
        <time>2013-09-19T14:50:09Z</time>
      </trkpt>
      <trkpt lat="45.879942672327161" lon="7.933839485049248">
        <ele>1408.95</ele>
        <time>2013-09-19T14:50:10Z</time>
      </trkpt>
      <trkpt lat="45.879856422543526" lon="7.933880304917693">
        <ele>1407.99</ele>
        <time>2013-09-19T14:50:23Z</time>
      </trkpt>
      <trkpt lat="45.879811746999621" lon="7.933926237747073">
        <ele>1407.99</ele>
        <time>2013-09-19T14:50:29Z</time>
      </trkpt>
      <trkpt lat="45.879781069234014" lon="7.933947276324034">
        <ele>1407.99</ele>
        <time>2013-09-19T14:50:33Z</time>
      </trkpt>
      <trkpt lat="45.879728430882096" lon="7.933976277709007">
        <ele>1407.51</ele>
        <time>2013-09-19T14:50:38Z</time>
      </trkpt>
      <trkpt lat="45.879685766994953" lon="7.934010643512011">
        <ele>1407.51</ele>
        <time>2013-09-19T14:50:42Z</time>
      </trkpt>
      <trkpt lat="45.879589458927512" lon="7.934046937152743">
        <ele>1407.03</ele>
        <time>2013-09-19T14:50:50Z</time>
      </trkpt>
      <trkpt lat="45.879516452550888" lon="7.934038890525699">
        <ele>1408.47</ele>
        <time>2013-09-19T14:50:57Z</time>
      </trkpt>
      <trkpt lat="45.879479823634028" lon="7.934048697352409">
        <ele>1408.95</ele>
        <time>2013-09-19T14:51:01Z</time>
      </trkpt>
      <trkpt lat="45.879427436739206" lon="7.934112902730703">
        <ele>1406.0699999999999</ele>
        <time>2013-09-19T14:51:10Z</time>
      </trkpt>
      <trkpt lat="45.879264995455742" lon="7.934249611571431">
        <ele>1404.1400000000001</ele>
        <time>2013-09-19T14:51:24Z</time>
      </trkpt>
      <trkpt lat="45.879249656572938" lon="7.934262603521347">
        <ele>1404.1400000000001</ele>
        <time>2013-09-19T14:51:26Z</time>
      </trkpt>
      <trkpt lat="45.879229204729199" lon="7.934281462803483">
        <ele>1403.6600000000001</ele>
        <time>2013-09-19T14:51:29Z</time>
      </trkpt>
      <trkpt lat="45.879151755943894" lon="7.934344243258238">
        <ele>1403.6600000000001</ele>
        <time>2013-09-19T14:51:40Z</time>
      </trkpt>
      <trkpt lat="45.87907774373889" lon="7.934383722022176">
        <ele>1403.1800000000001</ele>
        <time>2013-09-19T14:51:51Z</time>
      </trkpt>
      <trkpt lat="45.879073133692145" lon="7.934397216886282">
        <ele>1403.1800000000001</ele>
        <time>2013-09-19T14:52:04Z</time>
      </trkpt>
      <trkpt lat="45.879018064588308" lon="7.934478102251887">
        <ele>1402.22</ele>
        <time>2013-09-19T14:52:10Z</time>
      </trkpt>
      <trkpt lat="45.878906920552254" lon="7.934506516903639">
        <ele>1400.3</ele>
        <time>2013-09-19T14:52:23Z</time>
      </trkpt>
      <trkpt lat="45.878797704353929" lon="7.934505846351385">
        <ele>1399.8199999999999</ele>
        <time>2013-09-19T14:52:35Z</time>
      </trkpt>
      <trkpt lat="45.878682201728225" lon="7.934569884091616">
        <ele>1400.3</ele>
        <time>2013-09-19T14:52:48Z</time>
      </trkpt>
      <trkpt lat="45.878657475113869" lon="7.934588575735688">
        <ele>1399.8199999999999</ele>
        <time>2013-09-19T14:52:50Z</time>
      </trkpt>
      <trkpt lat="45.878580110147595" lon="7.934600142762065">
        <ele>1399.3399999999999</ele>
        <time>2013-09-19T14:52:54Z</time>
      </trkpt>
      <trkpt lat="45.878358576446772" lon="7.934648673981428">
        <ele>1398.3699999999999</ele>
        <time>2013-09-19T14:53:14Z</time>
      </trkpt>
      <trkpt lat="45.878201751038432" lon="7.934781778603792">
        <ele>1397.4100000000001</ele>
        <time>2013-09-19T14:53:31Z</time>
      </trkpt>
      <trkpt lat="45.878145173192024" lon="7.934843301773071">
        <ele>1395.49</ele>
        <time>2013-09-19T14:53:37Z</time>
      </trkpt>
      <trkpt lat="45.877990275621414" lon="7.934950506314635">
        <ele>1394.53</ele>
        <time>2013-09-19T14:53:52Z</time>
      </trkpt>
      <trkpt lat="45.877892291173339" lon="7.934929467737675">
        <ele>1393.5699999999999</ele>
        <time>2013-09-19T14:53:59Z</time>
      </trkpt>
      <trkpt lat="45.877831522375345" lon="7.934883534908295">
        <ele>1393.0899999999999</ele>
        <time>2013-09-19T14:54:11Z</time>
      </trkpt>
      <trkpt lat="45.877872426062822" lon="7.934903902933002">
        <ele>1393.5699999999999</ele>
        <time>2013-09-19T14:54:26Z</time>
      </trkpt>
      <trkpt lat="45.877646533772349" lon="7.934914296492934">
        <ele>1391.1700000000001</ele>
        <time>2013-09-19T14:54:44Z</time>
      </trkpt>
      <trkpt lat="45.877437070012093" lon="7.934944722801447">
        <ele>1388.76</ele>
        <time>2013-09-19T14:55:04Z</time>
      </trkpt>
      <trkpt lat="45.877337493002415" lon="7.93494681827724">
        <ele>1387.8</ele>
        <time>2013-09-19T14:55:12Z</time>
      </trkpt>
      <trkpt lat="45.877174632623792" lon="7.934985207393765">
        <ele>1385.8800000000001</ele>
        <time>2013-09-19T14:55:26Z</time>
      </trkpt>
      <trkpt lat="45.87704211473465" lon="7.935002138838172">
        <ele>1384.9200000000001</ele>
        <time>2013-09-19T14:55:42Z</time>
      </trkpt>
      <trkpt lat="45.877068853005767" lon="7.934960229322314">
        <ele>1384.4400000000001</ele>
        <time>2013-09-19T14:55:53Z</time>
      </trkpt>
      <trkpt lat="45.877110259607434" lon="7.934953523799777">
        <ele>1384.9200000000001</ele>
        <time>2013-09-19T14:56:18Z</time>
      </trkpt>
      <trkpt lat="45.877143871039152" lon="7.934980681166053">
        <ele>1384.9200000000001</ele>
        <time>2013-09-19T14:56:47Z</time>
      </trkpt>
      <trkpt lat="45.877149067819118" lon="7.9349903203547">
        <ele>1384.9200000000001</ele>
        <time>2013-09-19T14:56:49Z</time>
      </trkpt>
      <trkpt lat="45.876846816390753" lon="7.934989901259542">
        <ele>1383.47</ele>
        <time>2013-09-19T14:57:07Z</time>
      </trkpt>
      <trkpt lat="45.87667909450829" lon="7.93500985018909">
        <ele>1381.0699999999999</ele>
        <time>2013-09-19T14:57:21Z</time>
      </trkpt>
      <trkpt lat="45.876483712345362" lon="7.935044215992093">
        <ele>1379.1500000000001</ele>
        <time>2013-09-19T14:57:36Z</time>
      </trkpt>
      <trkpt lat="45.87631456553936" lon="7.935089897364378">
        <ele>1376.75</ele>
        <time>2013-09-19T14:57:50Z</time>
      </trkpt>
      <trkpt lat="45.876252539455891" lon="7.935122502967715">
        <ele>1376.75</ele>
        <time>2013-09-19T14:57:55Z</time>
      </trkpt>
      <trkpt lat="45.876118345186114" lon="7.935235742479563">
        <ele>1374.3399999999999</ele>
        <time>2013-09-19T14:58:07Z</time>
      </trkpt>
      <trkpt lat="45.87605363689363" lon="7.935339258983731">
        <ele>1373.3800000000001</ele>
        <time>2013-09-19T14:58:14Z</time>
      </trkpt>
      <trkpt lat="45.876000327989459" lon="7.935364739969373">
        <ele>1372.4200000000001</ele>
        <time>2013-09-19T14:58:18Z</time>
      </trkpt>
      <trkpt lat="45.875747445970774" lon="7.935437494888902">
        <ele>1369.54</ele>
        <time>2013-09-19T14:58:35Z</time>
      </trkpt>
      <trkpt lat="45.875535048544407" lon="7.935527097433806">
        <ele>1366.6500000000001</ele>
        <time>2013-09-19T14:58:51Z</time>
      </trkpt>
      <trkpt lat="45.875360704958439" lon="7.935582837089896">
        <ele>1363.29</ele>
        <time>2013-09-19T14:59:04Z</time>
      </trkpt>
      <trkpt lat="45.87532508186996" lon="7.935598762705922">
        <ele>1363.29</ele>
        <time>2013-09-19T14:59:07Z</time>
      </trkpt>
      <trkpt lat="45.875125508755445" lon="7.935666991397739">
        <ele>1359.9200000000001</ele>
        <time>2013-09-19T14:59:22Z</time>
      </trkpt>
      <trkpt lat="45.874959714710712" lon="7.935695238411427">
        <ele>1357.52</ele>
        <time>2013-09-19T14:59:35Z</time>
      </trkpt>
      <trkpt lat="45.874783610925078" lon="7.935764053836465">
        <ele>1354.1500000000001</ele>
        <time>2013-09-19T14:59:48Z</time>
      </trkpt>
      <trkpt lat="45.874723764136434" lon="7.935775956138969">
        <ele>1353.6700000000001</ele>
        <time>2013-09-19T14:59:52Z</time>
      </trkpt>
      <trkpt lat="45.874477755278349" lon="7.935802023857832">
        <ele>1349.8299999999999</ele>
        <time>2013-09-19T15:00:08Z</time>
      </trkpt>
      <trkpt lat="45.874294610694051" lon="7.935847118496895">
        <ele>1346.9400000000001</ele>
        <time>2013-09-19T15:00:21Z</time>
      </trkpt>
      <trkpt lat="45.874098222702742" lon="7.935946276411414">
        <ele>1344.0599999999999</ele>
        <time>2013-09-19T15:00:36Z</time>
      </trkpt>
      <trkpt lat="45.874082800000906" lon="7.935953317210078">
        <ele>1343.5799999999999</ele>
        <time>2013-09-19T15:00:37Z</time>
      </trkpt>
      <trkpt lat="45.874019181355834" lon="7.935977540910244">
        <ele>1342.6199999999999</ele>
        <time>2013-09-19T15:00:42Z</time>
      </trkpt>
      <trkpt lat="45.873825559392571" lon="7.936174180358648">
        <ele>1339.73</ele>
        <time>2013-09-19T15:00:58Z</time>
      </trkpt>
      <trkpt lat="45.873627830296755" lon="7.936256155371666">
        <ele>1337.3299999999999</ele>
        <time>2013-09-19T15:01:12Z</time>
      </trkpt>
      <trkpt lat="45.873404536396265" lon="7.936302339658141">
        <ele>1334.9300000000001</ele>
        <time>2013-09-19T15:01:29Z</time>
      </trkpt>
      <trkpt lat="45.873392801731825" lon="7.936306279152632">
        <ele>1334.9300000000001</ele>
        <time>2013-09-19T15:01:30Z</time>
      </trkpt>
      <trkpt lat="45.87330361828208" lon="7.936317846179009">
        <ele>1333.97</ele>
        <time>2013-09-19T15:01:37Z</time>
      </trkpt>
      <trkpt lat="45.873098345473409" lon="7.936365455389023">
        <ele>1332.52</ele>
        <time>2013-09-19T15:01:53Z</time>
      </trkpt>
      <trkpt lat="45.872862143442035" lon="7.936413399875164">
        <ele>1331.5599999999999</ele>
        <time>2013-09-19T15:02:10Z</time>
      </trkpt>
      <trkpt lat="45.872705485671759" lon="7.936482550576329">
        <ele>1330.1199999999999</ele>
        <time>2013-09-19T15:02:22Z</time>
      </trkpt>
      <trkpt lat="45.872505744919181" lon="7.936608530580998">
        <ele>1329.1600000000001</ele>
        <time>2013-09-19T15:02:38Z</time>
      </trkpt>
      <trkpt lat="45.872439695522189" lon="7.936639543622732">
        <ele>1328.6800000000001</ele>
        <time>2013-09-19T15:02:43Z</time>
      </trkpt>
      <trkpt lat="45.872242553159595" lon="7.93678262270987">
        <ele>1326.76</ele>
        <time>2013-09-19T15:02:59Z</time>
      </trkpt>
      <trkpt lat="45.872114561498165" lon="7.936877924948931">
        <ele>1325.3099999999999</ele>
        <time>2013-09-19T15:03:09Z</time>
      </trkpt>
      <trkpt lat="45.871933680027723" lon="7.937009101733565">
        <ele>1323.3900000000001</ele>
        <time>2013-09-19T15:03:24Z</time>
      </trkpt>
      <trkpt lat="45.871820272877812" lon="7.937067691236734">
        <ele>1321.47</ele>
        <time>2013-09-19T15:03:33Z</time>
      </trkpt>
      <trkpt lat="45.871640061959624" lon="7.937230467796326">
        <ele>1319.55</ele>
        <time>2013-09-19T15:03:48Z</time>
      </trkpt>
      <trkpt lat="45.871476195752621" lon="7.937281848862767">
        <ele>1319.0699999999999</ele>
        <time>2013-09-19T15:04:01Z</time>
      </trkpt>
      <trkpt lat="45.871316185221076" lon="7.937273550778627">
        <ele>1318.5899999999999</ele>
        <time>2013-09-19T15:04:15Z</time>
      </trkpt>
      <trkpt lat="45.871135387569666" lon="7.937265923246741">
        <ele>1317.1400000000001</ele>
        <time>2013-09-19T15:04:29Z</time>
      </trkpt>
      <trkpt lat="45.871070260182023" lon="7.937269527465105">
        <ele>1317.1400000000001</ele>
        <time>2013-09-19T15:04:34Z</time>
      </trkpt>
      <trkpt lat="45.871035978198051" lon="7.937264665961266">
        <ele>1316.6600000000001</ele>
        <time>2013-09-19T15:04:37Z</time>
      </trkpt>
      <trkpt lat="45.870988117530942" lon="7.937270533293486">
        <ele>1316.1800000000001</ele>
        <time>2013-09-19T15:04:41Z</time>
      </trkpt>
      <trkpt lat="45.870798854157329" lon="7.937302803620696">
        <ele>1315.22</ele>
        <time>2013-09-19T15:04:57Z</time>
      </trkpt>
      <trkpt lat="45.870623085647821" lon="7.937356783077121">
        <ele>1313.78</ele>
        <time>2013-09-19T15:05:11Z</time>
      </trkpt>
      <trkpt lat="45.870463158935308" lon="7.937402715906501">
        <ele>1311.3800000000001</ele>
        <time>2013-09-19T15:05:25Z</time>
      </trkpt>
      <trkpt lat="45.870410520583391" lon="7.937416881322861">
        <ele>1309.9300000000001</ele>
        <time>2013-09-19T15:05:30Z</time>
      </trkpt>
      <trkpt lat="45.870336089283228" lon="7.937442865222693">
        <ele>1308.97</ele>
        <time>2013-09-19T15:05:37Z</time>
      </trkpt>
      <trkpt lat="45.870195440948009" lon="7.937481757253408">
        <ele>1306.0899999999999</ele>
        <time>2013-09-19T15:05:51Z</time>
      </trkpt>
      <trkpt lat="45.870054708793759" lon="7.937505394220352">
        <ele>1304.6500000000001</ele>
        <time>2013-09-19T15:06:02Z</time>
      </trkpt>
      <trkpt lat="45.870036687701941" lon="7.937507908791304">
        <ele>1303.6900000000001</ele>
        <time>2013-09-19T15:06:03Z</time>
      </trkpt>
      <trkpt lat="45.870006429031491" lon="7.937485110014677">
        <ele>1303.6900000000001</ele>
        <time>2013-09-19T15:06:17Z</time>
      </trkpt>
      <trkpt lat="45.870018415153027" lon="7.937474716454744">
        <ele>1303.6900000000001</ele>
        <time>2013-09-19T15:06:34Z</time>
      </trkpt>
      <trkpt lat="45.870006177574396" lon="7.937487289309502">
        <ele>1303.2</ele>
        <time>2013-09-19T15:06:46Z</time>
      </trkpt>
      <trkpt lat="45.869843736290932" lon="7.937515703961253">
        <ele>1301.76</ele>
        <time>2013-09-19T15:06:58Z</time>
      </trkpt>
      <trkpt lat="45.869734100997448" lon="7.937485529109836">
        <ele>1300.3199999999999</ele>
        <time>2013-09-19T15:07:07Z</time>
      </trkpt>
      <trkpt lat="45.86961641907692" lon="7.937442949041724">
        <ele>1298.8800000000001</ele>
        <time>2013-09-19T15:07:17Z</time>
      </trkpt>
      <trkpt lat="45.869565792381763" lon="7.937438087537885">
        <ele>1298.4000000000001</ele>
        <time>2013-09-19T15:07:21Z</time>
      </trkpt>
      <trkpt lat="45.869493624195457" lon="7.937429035082459">
        <ele>1297.4400000000001</ele>
        <time>2013-09-19T15:07:27Z</time>
      </trkpt>
      <trkpt lat="45.869342414662242" lon="7.937387209385634">
        <ele>1295.99</ele>
        <time>2013-09-19T15:07:39Z</time>
      </trkpt>
      <trkpt lat="45.8691649697721" lon="7.937303222715855">
        <ele>1294.0699999999999</ele>
        <time>2013-09-19T15:07:54Z</time>
      </trkpt>
      <trkpt lat="45.8691062964499" lon="7.937287632375956">
        <ele>1293.5899999999999</ele>
        <time>2013-09-19T15:07:59Z</time>
      </trkpt>
      <trkpt lat="45.868907142430544" lon="7.937213620170951">
        <ele>1292.6300000000001</ele>
        <time>2013-09-19T15:08:16Z</time>
      </trkpt>
      <trkpt lat="45.868755094707012" lon="7.937332391738892">
        <ele>1291.6700000000001</ele>
        <time>2013-09-19T15:08:29Z</time>
      </trkpt>
      <trkpt lat="45.868543535470963" lon="7.937578484416008">
        <ele>1289.27</ele>
        <time>2013-09-19T15:08:49Z</time>
      </trkpt>
      <trkpt lat="45.868372628465295" lon="7.937694154679775">
        <ele>1287.8199999999999</ele>
        <time>2013-09-19T15:09:04Z</time>
      </trkpt>
      <trkpt lat="45.868199458345771" lon="7.937790211290121">
        <ele>1286.3800000000001</ele>
        <time>2013-09-19T15:09:19Z</time>
      </trkpt>
      <trkpt lat="45.868155201897025" lon="7.937829941511154">
        <ele>1285.9000000000001</ele>
        <time>2013-09-19T15:09:23Z</time>
      </trkpt>
      <trkpt lat="45.86810415610671" lon="7.937859110534191">
        <ele>1284.9400000000001</ele>
        <time>2013-09-19T15:09:28Z</time>
      </trkpt>
      <trkpt lat="45.868041878566146" lon="7.937904791906476">
        <ele>1284.46</ele>
        <time>2013-09-19T15:09:34Z</time>
      </trkpt>
      <trkpt lat="45.867987731471658" lon="7.937900684773922">
        <ele>1283.98</ele>
        <time>2013-09-19T15:09:38Z</time>
      </trkpt>
      <trkpt lat="45.86795998737216" lon="7.937908563762903">
        <ele>1283.98</ele>
        <time>2013-09-19T15:09:40Z</time>
      </trkpt>
      <trkpt lat="45.867802575230598" lon="7.937905127182603">
        <ele>1282.54</ele>
        <time>2013-09-19T15:09:53Z</time>
      </trkpt>
      <trkpt lat="45.86775328963995" lon="7.937878640368581">
        <ele>1282.54</ele>
        <time>2013-09-19T15:09:57Z</time>
      </trkpt>
      <trkpt lat="45.867639211937785" lon="7.93780529871583">
        <ele>1282.0599999999999</ele>
        <time>2013-09-19T15:10:07Z</time>
      </trkpt>
      <trkpt lat="45.867535779252648" lon="7.937702368944883">
        <ele>1281.5699999999999</ele>
        <time>2013-09-19T15:10:18Z</time>
      </trkpt>
      <trkpt lat="45.867387587204576" lon="7.937539089471102">
        <ele>1278.6900000000001</ele>
        <time>2013-09-19T15:10:36Z</time>
      </trkpt>
      <trkpt lat="45.867338888347149" lon="7.937466586008668">
        <ele>1278.21</ele>
        <time>2013-09-19T15:10:46Z</time>
      </trkpt>
      <trkpt lat="45.867304187268019" lon="7.937407661229372">
        <ele>1277.25</ele>
        <time>2013-09-19T15:10:50Z</time>
      </trkpt>
      <trkpt lat="45.867181140929461" lon="7.937213787809014">
        <ele>1274.8499999999999</ele>
        <time>2013-09-19T15:11:03Z</time>
      </trkpt>
      <trkpt lat="45.867085251957178" lon="7.937074564397335">
        <ele>1272.9200000000001</ele>
        <time>2013-09-19T15:11:17Z</time>
      </trkpt>
      <trkpt lat="45.867060776799917" lon="7.937044221907854">
        <ele>1272.4400000000001</ele>
        <time>2013-09-19T15:11:20Z</time>
      </trkpt>
      <trkpt lat="45.866875117644668" lon="7.936888737604022">
        <ele>1271.48</ele>
        <time>2013-09-19T15:11:36Z</time>
      </trkpt>
      <trkpt lat="45.866816528141499" lon="7.936848336830735">
        <ele>1271</ele>
        <time>2013-09-19T15:11:41Z</time>
      </trkpt>
      <trkpt lat="45.866767158731818" lon="7.936812462285161">
        <ele>1270.52</ele>
        <time>2013-09-19T15:11:46Z</time>
      </trkpt>
      <trkpt lat="45.866616033017635" lon="7.936742473393679">
        <ele>1270.04</ele>
        <time>2013-09-19T15:11:59Z</time>
      </trkpt>
      <trkpt lat="45.866417130455375" lon="7.936688493937254">
        <ele>1268.1199999999999</ele>
        <time>2013-09-19T15:12:16Z</time>
      </trkpt>
      <trkpt lat="45.866224598139524" lon="7.936638705432415">
        <ele>1267.1600000000001</ele>
        <time>2013-09-19T15:12:32Z</time>
      </trkpt>
      <trkpt lat="45.866158548742533" lon="7.936647674068809">
        <ele>1266.1900000000001</ele>
        <time>2013-09-19T15:12:46Z</time>
      </trkpt>
      <trkpt lat="45.866146394982934" lon="7.936617499217391">
        <ele>1266.6700000000001</ele>
        <time>2013-09-19T15:13:01Z</time>
      </trkpt>
      <trkpt lat="45.866166176274419" lon="7.936655301600695">
        <ele>1266.6700000000001</ele>
        <time>2013-09-19T15:13:16Z</time>
      </trkpt>
    </trkseg>
  </trk>

</gpx>